GFSGL_con_sbcape_000.txt.gz
CAPE
2836 3425 3246 2941 3050 3370 3304 3428 3017 2210 1396 947 789 263 277 232 175 235 186 9 22 4 3 97 264 431 149 84 80 60 85 84 71 7 16 31 57 111 106 155 132 86 54
3304 3540 2997 2913 2889 3140 3390 3058 2317 1729 973 1038 534 397 305 173 196 298 185 10 24 0 47 235 396 271 356 447 185 254 204 181 137 217 160 67 285 52 87 214 192 65 76
2767 2902 2891 2837 2930 3067 2819 1697 1671 863 649 360 432 663 738 695 276 358 399 294 113 64 187 312 363 375 370 265 256 142 149 142 173 130 139 115 77 51 171 401 366 342 90
2483 2869 3034 2839 2752 2734 2004 427 263 240 325 199 430 274 272 535 553 512 410 401 188 136 321 439 586 599 559 438 263 450 380 242 341 120 173 93 122 209 193 99 97 112 80
2670 2713 3018 3048 2663 1991 1267 321 165 152 438 7 33 0 13 629 317 735 355 259 290 394 499 642 769 865 409 345 226 402 331 225 162 127 150 99 78 103 267 134 115 176 328
2819 2892 3026 3421 2400 1304 960 778 897 745 392 32 2 10 32 155 24 19 158 321 432 656 831 921 998 853 499 189 65 36 71 148 130 89 83 121 346 435 330 203 213 173 202
2893 3024 3223 3019 1968 1223 889 856 794 568 327 197 134 133 62 329 58 29 40 242 412 797 1065 950 722 439 328 575 159 20 12 0 0 131 299 270 467 405 331 481 311 258 144
2980 2999 3004 2649 1727 1612 1240 1160 911 461 227 364 304 191 167 253 251 0 2 449 905 1094 824 526 548 401 403 624 504 271 220 221 286 217 188 127 155 113 50 35 51 54 84
2764 2824 2508 2075 1479 1216 1242 1149 1114 838 562 644 657 555 552 646 0 0 0 474 859 891 593 320 245 416 89 0 93 154 268 238 39 0 0 0 0 0 0 8 5 38 27
2728 2656 2085 1747 1680 1367 1426 1312 1146 1160 826 471 598 664 330 1108 0 0 0 435 745 518 420 222 5 29 0 0 24 132 153 149 93 2 16 13 0 8 1 20 13 33 44
2695 2494 1929 1905 2116 2034 1818 1347 1103 959 855 931 781 1051 796 369 638 0 0 549 224 217 349 845 330 0 0 0 0 14 47 0 0 0 0 0 0 9 25 42 21 4 1
2776 2120 1980 1880 1787 1831 1631 1180 948 1081 1069 887 1445 1245 1022 1077 63 0 0 1 33 427 985 405 31 0 0 0 0 0 0 0 0 2 1 0 1 5 5 1 0 0 0
2231 1949 1986 1810 1535 1528 1469 949 815 912 871 1157 1285 1039 848 1051 289 1 0 1 1 392 379 23 0 0 0 0 0 0 0 0 9 1 0 0 0 0 0 10 6 17 31
2174 2059 1673 1902 1623 1440 1289 1140 1346 1327 1077 1644 1347 1028 430 876 570 71 2 1 0 6 0 0 0 0 0 0 0 0 1 4 1 0 0 0 0 0 0 0 0 0 12
1987 1741 1675 1411 1283 1677 851 257 1249 166 177 602 474 253 660 1125 635 259 87 174 166 9 0 0 1 9 11 15 15 8 5 2 0 0 0 0 0 0 0 0 0 0 18
1414 1410 1395 1409 1682 1513 756 119 0 0 1 1 1 56 133 0 0 0 0 0 0 0 0 0 3 4 3 7 8 3 0 0 0 0 0 0 0 0 0 0 0 3 13
1699 1650 1455 984 1008 1027 975 582 195 0 0 0 0 0 0 0 0 0 0 0 0 0 0 0 0 0 0 0 0 0 0 0 0 0 0 0 0 0 0 0 0 0 6
1374 692 972 882 838 662 622 648 621 528 226 3 0 0 0 0 0 0 0 0 0 0 0 0 0 0 0 0 0 0 0 0 0 0 0 0 0 0 0 0 0 0 6
484 511 526 353 257 140 281 322 451 468 327 197 0 0 0 0 0 0 0 0 0 1 0 0 0 0 0 0 0 0 0 0 0 0 0 0 0 0 0 0 0 0 0
210 14 66 287 446 481 589 511 500 451 472 415 121 35 0 0 0 0 0 0 0 0 0 0 0 0 0 0 0 0 0 0 0 0 0 0 0 0 0 0 0 0 5
369 421 175 451 418 315 216 192 189 262 303 253 247 103 0 18 28 14 11 1 0 0 0 0 0 0 0 0 0 0 0 0 0 0 0 0 0 0 0 0 0 0 0
381 203 109 24 73 184 215 299 336 319 268 258 213 0 0 4 14 33 23 6 1 0 0 0 0 0 0 0 0 0 0 0 0 0 0 0 0 0 0 0 0 0 0
103 84 162 333 306 58 308 352 401 383 345 252 248 167 1 20 31 22 15 5 2 0 0 0 0 0 0 0 0 0 0 0 0 0 0 0 0 0 0 0 0 0 0
224 230 197 153 108 100 128 232 308 69 215 136 124 85 44 18 35 14 1 0 4 1 0 0 0 0 0 0 0 0 0 0 0 0 0 0 0 0 0 0 0 0 0
120 110 100 90 73 73 130 104 98 72 22 57 55 26 24 42 42 6 1 21 15 9 0 0 0 0 0 0 0 0 0 0 0 0 0 0 0 0 0 0 0 0 0
1 0 0 0 0 2 3 7 10 11 10 11 16 22 24 40 45 47 33 36 32 21 8 0 0 0 0 0 0 0 0 0 0 0 0 0 0 0 0 0 0 0 0

GFSGL_con_sbcape_003.txt.gz
CAPE
4184 4125 4303 3928 4058 4307 4090 3913 3729 2947 2798 2110 2168 1628 974 740 395 475 363 153 730 774 602 285 544 966 103 30 46 56 42 44 21 48 20 133 781 713 453 351 138 422 84
3961 4437 4421 4420 4100 3974 4155 4101 3984 3537 2901 2194 1975 1412 665 606 624 678 274 108 234 103 134 710 514 307 1357 1546 205 1282 690 436 94 591 264 21 427 780 891 882 222 43 97
3433 3525 4142 3912 4201 4041 4123 4123 3926 3778 2884 1813 1647 1344 794 656 764 684 682 458 188 142 130 657 611 1191 1394 700 1152 545 316 660 380 117 81 113 127 179 232 694 895 361 139
2408 2764 3939 4234 4034 3825 4120 3908 3373 3141 2492 1550 1372 951 803 602 477 445 494 390 588 506 460 746 822 1035 1205 1211 1163 1454 1188 759 465 189 89 100 166 90 217 140 139 120 112
3204 3068 4028 4453 4081 3903 3977 3938 3153 2614 2010 1180 919 703 585 318 441 709 452 466 970 656 499 433 855 1071 677 607 1103 367 1135 677 385 310 225 169 204 146 184 234 189 173 80
3899 3782 4362 4646 4294 3901 3835 3346 2302 2179 1548 999 443 424 427 101 0 38 465 239 863 911 738 756 1150 854 366 286 276 157 60 167 427 252 141 206 428 444 417 492 339 67 21
4306 4408 4780 4821 4254 3346 3105 2694 2159 1819 1510 1108 483 522 337 487 1 0 0 256 487 830 1167 1019 1099 535 330 443 439 146 72 26 29 219 361 584 494 366 525 499 333 169 30
4529 4541 4758 4618 3683 2660 2195 2057 1955 2025 1846 1286 662 862 560 486 0 0 0 216 328 571 885 1000 1246 1130 964 480 633 526 496 796 579 198 286 519 418 157 65 38 75 60 71
4002 4551 4685 4048 3286 2443 1826 1785 2185 2130 2330 1209 584 743 754 660 0 0 0 434 612 999 1142 1050 1268 756 338 133 110 150 589 824 304 34 4 0 0 0 0 0 3 7 14
4035 4265 4573 3732 2984 2198 1835 1891 2193 2286 1915 875 610 885 769 1178 0 0 0 316 285 409 1733 1379 145 112 46 0 144 227 425 533 306 190 135 0 10 8 0 6 38 55 41
3221 3339 3536 2930 2524 1943 2056 2288 2019 1883 1455 857 718 1104 1509 1087 667 0 0 379 190 701 590 888 262 0 0 0 0 43 158 5 118 0 0 3 80 58 10 73 219 6 4
3752 3447 2907 2458 2165 2157 2361 1828 1552 1575 1410 1335 1627 1471 1322 1180 304 0 0 0 44 672 473 423 902 0 0 0 0 0 0 0 0 0 7 37 30 1 1 5 23 23 4
3919 3065 2549 2480 2395 2533 2292 2048 1733 1558 1211 1285 1354 1055 1029 1143 1701 4 1 1 1 61 487 0 0 0 0 0 0 0 0 0 0 21 24 5 0 0 12 11 29 28 12
2900 2466 2345 2275 2199 2173 2145 1437 1109 885 1051 1250 1250 1432 1341 1661 729 384 18 4 0 8 0 8 0 0 0 0 0 0 0 1 16 3 0 0 0 0 0 0 0 0 0
2429 2309 2740 2313 2127 2020 997 831 1622 1355 1059 1156 1133 1234 1311 650 780 400 23 188 260 77 110 129 19 35 25 46 34 36 33 25 9 1 0 0 0 0 0 0 0 0 0
2564 2560 2299 2029 2250 1595 444 4 0 0 1 0 0 50 44 0 0 0 0 0 0 0 14 20 20 25 31 30 58 52 26 5 2 0 0 0 0 0 0 0 0 0 0
2513 2362 2170 1792 1928 1711 1529 1360 728 0 0 0 0 0 0 0 0 0 0 0 0 0 0 0 12 17 21 14 6 4 1 0 0 0 0 0 0 0 0 0 0 0 0
2186 1422 1723 1799 1346 1332 1211 931 597 344 150 18 0 0 0 0 0 0 0 0 0 0 0 1 8 10 2 0 0 0 0 0 0 0 0 0 0 0 0 0 0 0 0
1592 1209 1291 1015 881 555 600 455 452 548 412 118 0 0 0 0 0 0 0 0 22 33 21 3 0 0 0 0 0 0 0 0 0 0 0 0 0 0 0 0 0 0 0
823 271 632 591 436 349 355 302 307 300 244 189 132 23 0 0 0 0 0 0 8 8 6 1 0 0 0 0 0 0 0 0 0 0 0 0 0 0 0 0 0 0 0
293 373 126 521 267 310 289 236 177 168 168 163 229 51 0 0 67 101 40 9 3 3 7 2 1 0 0 0 0 0 0 0 0 0 0 0 0 0 0 0 0 0 0
376 347 343 303 165 71 104 125 122 133 153 166 32 1 0 51 69 46 39 51 12 17 12 6 1 1 0 0 0 0 0 0 0 0 0 0 0 0 0 0 0 0 0
287 198 157 63 100 40 146 172 160 192 206 302 157 214 104 117 37 52 33 23 37 14 11 2 0 0 0 0 0 0 0 0 0 0 0 0 0 0 0 0 0 0 0
160 177 168 257 216 208 139 87 78 22 121 90 78 178 126 25 39 52 27 28 13 4 6 6 0 0 0 0 0 0 0 0 0 0 0 0 0 0 0 0 0 0 0
225 158 131 165 172 113 74 56 71 79 27 20 40 58 44 35 19 14 22 15 12 13 8 9 2 0 0 0 0 0 0 0 0 0 0 0 0 0 0 0 0 0 0
104 83 77 72 52 24 18 22 33 37 44 48 30 33 48 30 25 27 38 18 9 16 20 16 7 1 0 0 0 0 0 0 0 0 0 0 0 0 0 0 0 0 0

GFSGL_con_sbcape_006.txt.gz
CAPE
4219 4151 4187 4142 4000 3651 4123 3839 2831 3090 2119 2152 1671 1845 1708 1300 1257 940 681 580 623 679 524 651 547 1003 606 410 658 314 152 199 240 118 87 116 132 160 125 154 237 149 124
3972 4103 4089 4113 4125 4006 3507 3875 3197 3542 2541 2003 2129 1907 1700 887 1112 800 509 159 734 684 842 890 675 468 1014 782 854 672 734 623 384 356 294 210 169 268 318 275 191 25 44
3793 3837 3778 3966 3989 3936 3804 3289 3560 3352 2835 2572 2076 1925 1306 768 933 670 573 569 700 523 530 712 720 824 1014 1003 740 810 553 419 266 149 128 239 84 33 48 81 45 293 349
3398 3514 3637 3616 3690 3627 3727 3624 3445 3387 2987 2920 2175 1906 1245 751 683 624 682 686 660 621 918 933 1039 809 925 1047 760 924 933 625 217 126 115 100 196 97 245 91 39 152 175
2980 3479 3617 3873 3699 3673 3651 3695 3545 3754 3581 3256 2284 1796 1178 617 560 698 656 665 784 868 672 999 965 1029 670 806 914 718 992 468 180 34 31 13 40 132 100 102 70 61 39
2497 2932 3372 3777 3991 3843 3676 3868 3780 3965 3474 3008 1751 1312 746 487 306 304 723 740 888 940 640 1000 1228 411 257 93 82 151 652 379 137 37 36 42 51 159 163 112 101 42 0
2718 2983 3205 3856 4180 3919 3848 3902 4051 3750 3062 2374 1402 833 441 575 4 18 285 564 561 871 675 1049 678 538 507 792 277 143 119 72 60 20 35 71 118 194 158 104 80 45 0
3885 3379 3603 4259 4287 4050 3961 3915 3938 3077 2521 2206 1381 483 411 560 85 3 1 63 406 851 710 830 307 827 1099 1218 729 825 302 244 193 119 57 49 245 414 167 26 0 0 0
3544 4180 4254 4794 4511 4336 3990 3665 3252 2494 2239 1995 1191 592 627 706 0 0 0 3 157 425 655 621 769 1314 1195 142 230 236 236 592 546 152 163 201 56 0 0 8 0 0 0
4110 4405 4825 4808 4412 3628 3215 2622 2115 2311 2333 2279 1347 975 702 1226 0 0 0 105 321 556 741 905 313 518 694 45 143 385 656 617 629 480 118 14 3 2 0 0 4 8 19
4535 4557 4951 4665 3946 2878 2285 2092 2098 2392 2648 1797 844 736 758 1011 641 0 0 335 488 528 444 713 874 153 0 0 0 70 66 0 5 50 33 0 0 59 68 124 90 57 0
4556 4704 4758 3749 2548 2233 2207 2302 2334 2083 1613 1386 1220 1029 1827 1570 762 0 0 10 427 553 584 753 111 0 0 0 0 0 0 0 0 0 0 0 28 22 4 0 0 0 0
4194 4476 3869 2873 2343 2208 2583 1893 1625 1970 1631 1433 1405 1843 1690 1467 446 0 0 0 1 0 455 0 0 0 0 0 0 0 0 0 0 0 0 25 0 0 0 0 7 3 2
4068 3337 2779 2562 2882 2908 2419 2123 1851 1792 1691 1435 2028 1699 1795 1535 1088 110 2 2 0 0 0 0 0 0 0 0 0 0 0 0 0 13 2 0 7 0 0 0 0 0 0
2942 2526 2253 2136 2235 2169 542 789 1244 0 278 1838 2014 1698 1447 1418 1208 898 669 466 227 40 21 52 1 15 25 0 1 23 12 25 45 47 13 1 0 0 0 0 0 0 0
2551 2344 2456 1990 1854 712 64 0 0 0 0 0 0 161 0 0 46 28 0 0 0 0 108 545 338 226 164 56 31 31 41 55 64 9 1 0 0 0 0 0 0 0 0
2652 2650 1850 1873 1837 1330 888 405 0 0 0 0 0 0 0 0 0 0 0 0 0 0 205 207 58 247 226 170 45 23 10 23 0 0 0 0 0 0 0 0 0 0 0
2702 1902 2204 1975 2197 2114 1970 1496 1014 32 0 0 0 0 0 0 0 0 0 0 0 0 0 4 80 147 89 15 1 0 0 0 0 0 0 0 0 0 0 0 0 0 0
2369 2170 1848 1968 2234 1713 1569 1143 1118 389 367 0 0 0 0 0 0 0 0 0 24 19 2 17 42 13 17 9 3 1 0 0 0 0 0 0 0 0 0 0 0 0 0
2111 1369 1510 674 681 1089 911 755 610 412 12 0 0 0 0 0 0 0 0 0 0 15 132 57 51 35 11 1 0 0 0 0 0 0 0 0 0 0 0 0 0 0 0
1057 1019 130 428 740 612 490 327 343 307 359 262 72 0 0 0 0 0 2 2 46 30 181 64 67 60 20 5 2 0 0 0 0 0 0 0 0 0 0 0 0 0 0
544 652 777 490 248 507 455 297 157 81 103 160 96 0 0 17 68 187 87 18 31 30 15 46 23 24 13 8 0 0 0 0 0 0 0 0 0 0 0 0 0 0 0
129 214 430 15 59 48 92 165 164 149 154 125 0 0 0 33 188 8 42 33 14 6 4 0 12 2 1 0 0 0 0 0 0 0 0 0 0 0 0 0 0 0 0
247 63 56 156 10 145 105 204 204 21 99 90 133 158 31 10 11 7 18 27 11 19 9 1 0 0 0 0 0 0 0 0 0 0 0 0 0 0 0 0 0 0 0
0 172 95 95 151 17 54 53 93 87 41 86 78 99 104 35 21 6 9 12 12 7 2 4 3 3 1 0 0 0 0 0 0 0 0 0 0 0 0 0 0 0 0
161 102 13 53 64 52 59 55 56 30 28 90 60 49 131 58 43 26 27 27 27 22 19 15 14 15 0 0 0 0 0 0 0 0 0 0 0 0 0 0 0 0 0

GFSGL_con_sbcape_009.txt.gz
CAPE
3048 2925 2818 2694 2268 1932 2138 1950 1678 1426 1127 1131 1015 1455 963 343 325 281 16 24 149 0 0 0 44 28 16 16 70 27 11 16 3 5 0 4 7 0 0 0 6 25 24
3182 3109 3034 2998 2765 2401 2021 2124 1970 1564 1122 1236 1253 851 1028 560 355 358 62 111 28 79 15 8 3 0 76 81 157 141 141 107 12 30 52 39 21 4 2 7 32 62 13
3351 3226 3192 2972 3083 2952 2358 2668 2555 1633 1611 932 799 963 887 697 428 417 101 11 123 59 94 88 59 46 84 172 174 212 167 137 69 38 15 28 30 8 3 0 0 0 18
3479 3342 3115 3039 3033 3072 2913 2331 2703 2458 1881 1086 947 946 968 663 405 382 200 106 126 132 60 97 84 64 107 282 157 138 165 168 83 42 30 30 17 14 11 17 0 0 0
3182 3250 3052 3054 3060 3115 3052 3002 2375 2356 2130 1888 1248 1209 836 452 347 273 287 266 213 183 95 277 166 310 290 204 211 240 209 171 127 63 31 0 0 0 13 0 0 0 0
2912 3068 2909 2981 2954 3076 3027 2996 2879 2456 2384 2145 1681 1268 923 504 402 301 291 327 300 289 310 427 81 519 492 321 295 263 283 229 77 5 2 11 0 2 4 0 0 0 0
2511 2881 2869 2737 2926 2875 2937 2844 2944 2827 2838 2592 1728 1143 780 456 258 232 333 276 266 267 361 435 339 372 259 177 89 74 105 218 126 41 6 0 0 0 10 0 0 0 0
1983 2603 2714 2934 2842 3088 3036 2962 3146 2993 2828 2218 1426 796 505 281 87 3 59 222 224 195 426 389 176 37 202 161 192 110 118 105 73 30 0 4 0 4 27 27 1 0 0
1637 1983 2548 2682 3057 3269 3169 3067 3221 2996 2263 1931 1173 485 229 233 73 0 0 35 47 62 125 165 85 54 176 173 177 149 23 22 92 141 70 25 12 12 35 0 0 0 0
1391 1889 2373 2558 3046 3467 3238 3045 2603 1972 1653 1554 1031 288 164 258 100 29 0 0 0 0 5 94 120 164 418 80 32 1 22 66 0 0 0 0 0 0 0 0 0 0 0
1353 2766 3153 3618 3634 3049 2429 1754 1483 1564 1625 1673 1291 342 214 290 12 0 0 0 0 0 8 40 58 221 0 0 0 0 16 0 0 0 0 0 0 0 0 2 11 7 1
3429 4129 3858 2973 2584 1955 1520 1474 1502 1582 1404 886 573 380 306 337 76 0 0 0 0 22 13 6 0 0 0 0 0 0 0 0 0 0 0 0 0 0 0 0 0 0 0
4066 3429 2449 2071 1820 1424 1279 1402 1419 1037 853 689 571 519 733 675 181 6 0 0 0 0 0 0 0 0 0 0 0 0 0 0 0 0 0 0 0 0 0 0 0 0 0
3172 2399 1816 1604 1603 1457 1155 1090 1168 1141 970 677 682 735 766 590 12 0 1 1 0 0 0 0 0 0 0 0 0 0 0 0 0 0 0 0 0 0 0 0 0 0 0
2178 1705 1593 1567 1575 127 0 161 77 0 396 883 984 665 448 588 380 0 0 0 0 0 0 0 0 0 0 0 0 0 0 0 0 0 0 0 0 0 0 0 0 0 0
1750 1541 1678 1369 59 0 0 0 0 0 0 0 4 144 0 20 521 292 78 21 5 0 0 0 0 0 0 0 0 0 3 7 7 0 0 0 0 0 0 0 0 0 0
1750 1653 1621 742 262 37 0 0 0 0 0 0 0 0 0 0 0 0 0 0 0 0 0 0 0 0 0 0 0 0 0 0 0 0 0 0 0 0 0 0 0 0 0
2084 1745 1622 1135 675 340 106 0 0 0 0 0 0 0 0 0 0 0 0 0 0 0 0 0 0 0 0 0 0 0 0 0 0 0 0 0 0 0 0 0 0 0 0
1796 1702 1692 1577 1197 710 465 297 0 0 0 0 0 0 0 0 0 0 0 0 0 0 0 0 0 0 0 0 0 0 0 0 0 0 0 0 0 0 0 0 0 0 0
1816 1717 1573 1464 917 1015 857 821 82 0 0 0 0 0 0 0 0 0 0 0 0 0 0 0 0 0 0 0 0 0 0 0 0 0 0 0 0 0 0 0 0 0 0
319 72 215 527 720 640 524 120 113 1 0 0 0 0 0 0 0 0 0 0 0 0 0 0 0 0 0 0 0 0 0 0 0 0 0 0 0 0 0 0 0 0 0
264 0 42 43 32 6 0 0 2 8 0 2 0 0 0 0 0 0 0 0 0 0 0 0 0 0 0 0 0 0 0 0 0 0 0 0 0 0 0 0 0 0 0
24 11 20 11 0 0 0 0 0 3 7 0 0 0 0 0 0 0 0 0 0 0 0 0 0 0 0 0 0 0 0 0 0 0 0 0 0 0 0 0 0 0 0
52 14 8 6 0 1 0 0 0 0 0 0 0 0 0 0 0 0 0 0 0 0 0 0 0 0 0 0 0 0 0 0 0 0 0 0 0 0 0 0 0 0 0
14 4 26 23 18 2 0 0 0 0 0 10 1 0 0 0 0 0 0 0 0 0 0 0 0 0 0 0 0 0 0 0 0 0 0 0 0 0 0 0 0 0 0
3 4 0 0 0 0 0 0 0 0 0 1 16 14 21 0 0 0 0 0 0 0 0 0 0 0 0 0 0 0 0 0 0 0 0 0 0 0 0 0 0 0 0

GFSGL_con_sbcape_012.txt.gz
CAPE
1969 1883 1868 1645 1384 1496 1230 1256 1410 846 587 859 711 662 305 87 26 0 1 3 0 6 5 0 0 0 0 0 0 0 0 0 0 0 0 0 0 0 0 0 0 0 1
2102 2106 2028 2035 1836 1510 1410 1453 1197 1201 643 823 710 897 655 243 32 80 0 0 5 0 0 0 0 1 11 1 0 21 27 0 0 1 0 1 7 6 0 0 0 3 0
2178 2206 2396 2240 2151 1864 1511 1544 1479 1253 698 697 633 1007 862 452 157 85 11 0 0 4 0 0 0 1 0 0 4 8 54 48 17 7 18 6 9 1 0 0 0 0 0
2450 2422 2449 2479 2343 2279 1920 1640 1556 1604 984 820 778 711 972 686 251 207 73 0 0 0 0 0 0 1 11 2 57 71 107 87 82 84 60 17 3 0 0 0 0 0 0
2487 2667 2618 2607 2560 2543 2338 2043 1773 2066 1292 939 604 784 620 701 493 255 188 31 0 1 1 0 0 29 31 9 70 69 62 100 116 89 26 0 0 0 0 0 0 0 0
2615 2699 2723 2782 2703 2679 2718 2566 2037 1957 1990 1072 724 524 591 716 583 241 238 134 22 3 0 0 25 177 136 183 73 30 59 119 85 5 0 0 0 0 0 0 0 0 0
2707 2873 2898 2776 2725 2687 2723 2700 2599 2070 1733 1514 923 773 691 732 500 52 91 184 66 53 0 0 45 100 79 79 47 6 28 77 99 1 1 0 0 0 0 0 0 0 0
2608 2833 3023 2910 2750 2690 2729 2768 2642 2575 2044 1885 1328 1006 856 487 87 34 111 156 83 17 15 35 172 152 42 12 11 23 17 13 30 9 4 5 0 0 0 0 0 0 0
2292 2589 2795 2828 2622 2684 2611 2764 2582 2648 2413 2250 1564 1119 859 562 0 0 42 89 125 33 21 142 233 129 2 21 23 16 12 14 18 16 5 0 0 0 0 0 0 0 0
1921 2250 2648 2694 2543 2547 2669 2688 2700 2665 2610 1848 1352 1059 668 327 0 1 0 0 12 3 12 18 3 1 1 4 26 4 5 11 0 0 0 0 0 0 0 0 0 0 0
1808 1996 2208 2543 2563 2540 2745 2738 2842 2455 2189 1713 987 297 154 164 19 9 0 0 0 0 0 0 1 1 0 7 2 0 0 0 0 0 0 0 0 0 0 0 0 0 0
1482 1595 1609 2221 2421 2772 2735 2540 2252 1850 1689 1281 673 340 178 120 65 0 0 0 0 0 0 0 0 0 0 0 0 0 0 0 0 0 0 0 0 0 0 0 0 0 0
1046 1537 1995 2462 2721 2584 2266 1934 1502 1353 1169 749 618 220 92 76 0 0 0 0 0 0 0 0 0 0 1 1 0 0 0 0 0 0 0 0 0 0 0 0 0 0 0
2567 3015 2721 2367 2034 1805 1371 1334 982 812 681 482 461 334 257 131 0 0 0 0 0 0 0 0 0 0 0 0 0 0 0 0 0 0 0 0 0 0 0 0 0 0 0
2640 2381 1990 1381 1418 357 0 323 389 246 397 438 257 253 299 205 6 0 0 0 0 0 0 0 0 0 0 0 0 0 0 0 0 0 0 0 0 0 0 0 0 0 0
1829 1749 1351 145 1 1 1 1 0 0 2 306 334 201 1 98 44 0 0 1 1 0 0 0 0 0 0 0 0 0 0 0 0 0 0 0 0 0 0 0 0 0 0
1831 1274 448 101 0 0 0 0 0 0 0 0 0 1 0 0 0 0 0 2 2 0 0 0 0 0 0 0 0 0 0 0 0 0 0 0 0 0 0 0 0 0 0
972 400 209 91 4 1 14 0 0 0 0 0 0 0 0 0 3 2 0 0 1 0 0 0 0 0 0 0 0 0 0 0 0 0 0 0 0 0 0 0 0 0 0
1029 750 449 185 58 0 0 0 0 0 0 0 0 0 0 0 0 0 0 0 0 0 0 0 0 0 0 0 0 0 0 0 0 0 0 0 0 0 0 0 0 0 0
936 872 800 457 144 64 0 0 0 0 0 0 0 0 0 0 0 0 0 0 0 0 0 0 0 0 0 0 0 0 0 0 0 0 0 0 0 0 0 0 0 0 0
199 575 589 607 664 509 428 25 0 0 0 0 0 0 0 0 0 0 0 0 0 0 0 0 0 0 0 0 0 0 0 0 0 0 0 0 0 0 0 0 0 0 0
30 132 82 219 204 188 156 69 28 0 0 0 0 0 0 0 0 0 0 0 0 0 0 0 0 0 0 0 0 0 0 0 0 0 0 0 0 0 0 0 0 0 0
11 1 0 0 0 0 0 0 28 5 0 0 0 0 0 0 0 0 0 0 0 0 0 0 0 0 0 0 0 0 0 0 0 0 0 0 0 0 0 0 0 0 0
0 0 0 0 0 0 0 0 0 14 2 0 0 0 0 0 0 0 0 0 0 0 0 0 0 0 0 0 0 0 0 0 0 0 0 0 0 0 0 0 0 0 0
3 0 0 0 0 0 0 0 0 0 0 0 0 0 0 0 0 0 0 0 0 0 0 0 0 0 0 0 0 0 0 0 0 0 0 0 0 0 0 0 0 0 0
0 4 0 0 0 0 0 0 0 0 0 0 0 0 0 0 0 0 0 0 0 0 0 0 0 0 0 0 0 0 0 0 0 0 0 0 0 0 0 0 0 0 0

GFSGL_con_sbcape_015.txt.gz
CAPE
713 917 973 1110 1045 876 630 729 749 690 655 817 816 723 274 30 0 0 0 0 0 0 0 0 0 0 0 0 0 0 0 0 0 0 0 0 0 0 0 0 0 0 0
848 1011 958 948 1091 1184 930 762 921 877 606 729 659 670 369 87 17 6 0 0 0 0 0 0 0 0 0 0 0 0 0 0 0 0 0 0 0 0 0 0 0 0 0
1044 1172 1211 1203 1109 1236 1281 1127 962 1088 626 695 575 674 449 157 37 7 0 0 0 0 0 0 0 0 0 0 0 0 0 0 0 0 0 0 0 0 0 0 0 0 0
1206 1383 1433 1441 1485 1249 1249 1241 1270 1126 872 621 646 732 706 432 171 40 2 0 0 0 0 0 0 0 0 0 0 0 0 0 0 0 14 0 0 0 0 0 0 0 0
1279 1540 1607 1604 1673 1650 1509 1285 1211 1185 1089 816 566 617 769 641 351 188 97 51 3 0 0 0 0 0 0 0 0 0 0 0 0 12 29 0 0 0 0 0 0 0 0
1511 1631 1738 1851 1923 1906 1860 1642 1367 1270 1287 801 740 590 547 741 604 234 217 131 17 4 1 0 0 0 0 1 2 4 0 0 0 3 0 1 0 0 0 0 0 0 0
1754 1855 1935 1924 2109 2144 2077 1955 1703 1428 1514 942 742 624 568 578 516 172 119 166 34 4 42 13 0 0 3 20 22 0 0 0 0 0 0 0 0 0 0 0 0 0 0
1954 1984 2147 2203 2178 2261 2305 2233 2070 1689 1784 1139 879 545 638 641 104 80 175 151 80 107 64 12 0 0 0 14 12 7 0 0 1 0 0 0 0 0 0 0 0 0 0
2017 2140 2277 2414 2379 2439 2427 2483 2407 2156 1729 1669 1193 953 930 832 61 30 28 144 143 114 84 0 0 0 10 2 1 2 0 0 7 3 0 0 0 0 0 0 0 1 0
2220 2284 2442 2588 2525 2489 2527 2485 2548 2563 2141 1833 1666 1402 1303 974 1 1 28 227 193 65 0 0 1 21 6 0 0 0 0 0 0 0 0 0 0 0 0 0 0 0 0
2059 2380 2413 2613 2692 2574 2480 2479 2602 2619 2399 2174 2049 1680 1366 938 1 1 11 118 66 0 0 0 0 0 0 0 0 0 0 0 0 0 0 0 0 0 0 0 0 0 0
1597 1798 2182 2376 2669 2512 2475 2439 2532 2654 2513 2435 2099 872 689 69 2 0 0 1 0 0 0 0 0 0 0 0 1 0 0 0 0 0 0 0 0 0 0 0 0 0 0
1417 1522 1591 2096 2414 2332 2420 2552 2672 2710 2543 1992 1107 659 385 257 81 0 0 0 0 0 0 0 0 1 1 1 0 0 0 0 0 0 0 0 0 0 0 0 0 0 0
1159 1392 1506 1872 2275 2342 2534 2698 2672 2423 2188 1436 922 554 215 99 0 0 0 0 0 0 0 0 1 1 0 0 0 0 0 0 0 0 0 0 0 0 0 0 0 0 0
838 1114 1370 1776 2354 1953 1042 1629 2243 1177 1354 819 556 300 116 79 0 0 0 0 0 0 0 0 0 0 0 0 0 0 0 0 0 0 0 0 0 0 0 0 0 0 0
1693 2120 2125 2067 105 1 0 0 1 1 322 260 200 149 2 0 0 0 0 1 1 0 0 0 0 0 0 0 0 0 0 0 0 0 0 0 0 0 0 0 0 0 0
1202 2045 864 125 157 391 581 283 0 1 0 2 2 0 0 0 0 3 2 2 1 0 0 0 0 0 0 0 0 0 0 0 0 0 0 0 0 0 0 0 0 0 0
0 26 280 285 391 336 269 65 0 0 0 1 2 0 2 1 2 1 1 1 0 0 0 0 0 0 0 0 0 0 0 0 0 0 0 0 0 0 0 0 0 0 0
7 11 51 53 47 0 0 0 0 0 0 0 0 0 0 1 1 1 1 0 0 0 0 0 0 0 0 0 0 0 0 0 0 0 0 0 0 0 0 0 0 0 0
82 77 102 2 0 0 0 0 0 0 0 0 0 0 0 0 0 0 0 0 0 0 0 0 0 0 0 0 0 0 0 0 0 0 0 0 0 0 0 0 0 0 0
178 68 35 22 1 0 0 0 0 0 0 0 0 0 0 0 0 0 0 0 0 0 0 0 0 0 0 0 0 0 0 0 0 0 0 0 0 0 0 0 0 0 0
21 79 97 86 56 19 0 0 0 0 0 0 0 0 0 0 0 0 0 0 0 0 0 0 0 0 0 0 0 0 0 0 0 0 0 0 0 0 0 0 0 0 0
0 0 0 11 0 0 1 4 0 0 0 0 0 0 0 0 0 0 0 0 0 0 0 0 0 0 0 0 0 0 0 0 0 0 0 0 0 0 0 0 0 0 0
0 0 0 0 0 0 0 0 0 0 0 0 0 0 0 0 0 0 0 0 0 0 0 0 0 0 0 0 0 0 0 0 0 0 0 0 0 0 0 0 0 0 0
0 0 0 0 0 0 0 0 0 0 0 0 0 0 0 0 0 0 0 0 0 0 0 0 0 0 0 0 0 0 0 0 0 0 0 0 0 0 0 0 0 0 0
0 0 0 0 0 0 0 0 0 0 0 0 0 0 0 0 0 0 0 0 0 0 0 0 0 0 0 0 0 0 0 0 0 0 0 0 0 0 0 0 0 0 0

GFSGL_con_sbcape_018.txt.gz
CAPE
794 889 892 862 829 776 649 506 480 551 621 867 938 900 624 245 75 4 0 0 0 0 0 0 0 0 0 0 0 0 0 0 0 0 0 0 0 25 14 0 0 0 0
543 983 1007 988 962 904 761 725 599 562 614 823 842 943 730 354 141 71 3 0 0 0 0 0 0 0 0 0 0 0 0 0 0 5 0 11 16 20 30 43 3 0 0
476 696 979 1043 1017 972 878 863 717 729 631 743 833 905 779 491 216 131 89 43 1 0 0 0 0 0 0 0 0 0 0 0 0 0 5 0 0 0 10 0 0 2 0
609 610 809 945 1021 1099 1056 968 767 871 742 792 847 936 871 612 346 253 163 102 80 36 0 0 0 0 0 0 0 0 0 1 0 1 4 51 30 1 1 0 0 0 0
735 771 892 992 962 1023 1222 1172 1043 973 972 813 916 931 947 726 520 294 231 163 127 98 19 1 0 0 0 0 0 0 0 8 4 8 24 15 0 9 14 2 0 0 0
910 956 1066 1193 1245 1205 1144 1244 1255 1144 1192 946 865 976 942 908 624 232 286 310 225 146 72 0 26 4 0 0 0 0 2 17 29 27 22 34 61 1 0 0 0 0 53
1004 1138 1304 1386 1454 1525 1426 1297 1253 1234 1228 1064 1016 985 1020 1082 537 225 182 522 431 289 192 104 55 62 3 31 0 0 0 2 9 52 48 27 17 2 0 0 0 0 22
1142 1210 1448 1620 1647 1658 1709 1599 1488 1360 1304 1248 1122 1021 985 931 476 188 135 744 497 279 214 229 229 175 54 57 88 0 0 16 12 24 40 71 15 4 2 0 0 2 0
1422 1448 1593 1755 1825 1848 1915 1898 1802 1647 1467 1480 1304 1044 1047 1062 363 46 78 650 495 313 279 243 196 164 1 0 49 56 3 7 0 0 0 0 0 0 0 1 2 2 1
1665 1727 1812 1906 1902 1926 2117 2107 2035 1926 1751 1737 1374 1087 983 1238 62 0 85 544 392 317 311 241 6 55 0 0 75 52 7 2 0 0 0 0 0 0 0 0 0 0 0
1580 1835 1946 2083 2175 2097 2237 2337 2358 2295 2115 1926 1612 1417 1394 1152 253 0 5 459 507 414 140 7 16 0 0 0 0 5 19 2 0 0 0 0 0 0 0 0 0 0 0
1530 1861 2013 2228 2324 2291 2450 2480 2548 2568 2569 2117 1839 1785 1669 1278 283 1 2 458 342 269 115 54 7 0 0 0 0 0 0 0 0 0 0 0 0 0 0 0 0 0 0
1124 1527 2130 2272 2513 2598 2611 2620 2637 2642 2592 2281 1976 2031 1436 138 0 1 1 5 15 15 4 3 0 0 2 0 1 2 0 0 0 0 0 0 0 0 0 0 0 0 0
554 1022 1492 2141 2443 2725 2681 2615 2713 2740 2717 2309 2213 1839 951 167 11 2 1 0 0 0 1 0 1 0 0 0 0 0 0 0 0 0 0 0 0 0 0 0 0 0 0
1271 607 1136 1600 1733 2560 2613 2469 2678 2796 2659 2549 2136 1074 479 258 27 0 0 0 0 0 0 1 1 0 0 0 0 0 0 0 0 0 0 0 0 0 0 0 0 0 0
580 1465 960 1418 1736 2326 196 1 27 1356 1138 1005 730 416 66 1 1 0 0 0 1 0 0 0 0 0 0 0 0 0 0 0 0 0 0 0 0 0 0 0 0 0 0
0 1184 1548 1463 1212 181 512 316 0 0 1 4 40 85 1 0 0 1 1 2 1 0 0 0 0 0 0 0 0 0 0 0 0 0 0 0 0 0 0 0 0 0 0
0 104 478 603 385 568 273 295 128 154 49 0 0 1 2 1 1 1 1 1 0 0 0 0 0 0 0 0 0 0 0 0 0 0 0 0 0 0 0 0 0 0 0
0 52 3 18 57 264 119 93 20 11 1 1 3 3 1 1 1 1 1 0 1 1 0 0 0 0 0 0 0 0 0 0 0 0 0 0 0 0 0 0 0 0 0
0 0 0 0 2 1 0 1 2 0 1 1 2 1 0 0 0 0 0 1 1 0 0 0 0 0 0 0 0 0 0 0 0 0 0 0 0 0 0 0 0 0 0
4 3 0 8 1 2 2 21 3 2 1 2 0 0 0 0 0 0 0 0 0 0 0 0 0 0 0 0 0 0 0 0 0 0 0 0 0 0 0 0 0 0 0
1 4 11 3 4 3 2 2 1 0 0 0 3 1 1 0 0 0 0 0 0 0 0 0 0 0 0 0 0 0 0 0 0 0 0 0 0 0 0 0 0 0 0
0 0 1 1 2 0 1 2 2 1 0 0 0 0 0 0 0 0 0 0 0 0 0 0 0 0 0 0 0 0 0 0 0 0 0 0 0 0 0 0 0 0 0
0 0 0 0 0 1 7 1 0 0 0 0 0 0 0 0 0 0 0 0 0 0 0 0 0 0 0 0 0 0 0 0 0 0 0 0 0 0 0 0 0 0 0
0 0 0 0 0 0 0 1 1 1 0 0 0 0 0 0 0 0 0 0 0 0 0 0 0 0 0 0 0 0 0 0 0 0 0 0 0 0 0 0 0 0 0
0 0 0 0 0 0 0 0 0 0 0 0 0 0 0 0 0 0 0 0 0 0 0 0 0 0 0 0 0 0 0 0 0 0 0 0 0 0 0 0 0 0 0

GFSGL_con_sbcape_021.txt.gz
CAPE
1995 2027 1971 1934 1945 2030 2096 2240 2287 2214 2196 2149 2158 2137 2208 2216 2027 1825 1683 1244 685 588 279 303 323 302 95 59 54 52 50 2 4 12 7 79 202 241 63 146 65 175 91
1929 2093 2076 2119 2103 2089 2135 2211 2342 2374 2153 2644 2559 2228 2236 2277 2083 1837 1756 1347 980 790 642 342 235 124 231 159 50 155 58 78 35 253 118 144 306 313 387 532 247 9 84
1794 1945 2113 2201 2245 2209 2209 2286 2374 2404 2412 1954 2515 2629 2220 2170 2109 1874 1921 1732 1259 1087 832 528 409 276 139 35 51 38 27 123 118 80 88 115 115 139 271 415 464 188 39
1513 1818 2091 2253 2276 2294 2330 2401 2406 2454 2436 2491 2566 2582 2400 2097 2064 1911 1845 1897 1578 1250 1073 643 386 207 242 197 217 205 152 139 183 175 81 96 189 271 224 194 148 132 44
1774 1741 2058 2327 2394 2447 2453 2452 2448 2486 2382 2461 2607 2616 2444 2172 1909 2137 1868 1866 1826 1430 1156 752 439 314 78 195 221 300 290 234 147 118 88 67 68 228 296 139 147 132 103
1878 1873 1954 2312 2512 2518 2554 2567 2541 2497 2482 2514 2507 2586 2571 2050 1423 992 1687 2102 1919 1765 1593 1051 607 80 3 0 0 38 268 308 334 225 220 203 651 573 223 158 150 176 168
1570 2019 2198 2280 2447 2512 2537 2602 2553 2534 2494 2547 2510 2576 2624 2621 933 393 344 2033 1903 1978 1802 1459 919 524 145 205 1 0 0 0 62 718 641 495 349 489 295 202 204 211 234
1956 2189 2325 2387 2423 2497 2462 2555 2678 2644 2576 2655 2554 2582 2679 2599 725 218 148 1590 2117 2149 1820 1609 1290 1054 680 525 564 269 176 211 54 62 537 771 449 389 318 225 374 343 231
1983 2202 2366 2442 2456 2578 2615 2592 2623 2708 2768 2692 2698 2684 2627 2707 655 91 84 1415 2167 2126 1822 1574 1370 1334 880 71 503 754 748 756 103 0 18 0 0 0 37 113 66 50 108
2170 2248 2364 2652 2708 2754 2807 2891 2820 2738 2723 2593 2771 2774 2232 2710 731 6 56 1665 2089 1871 1711 1488 448 1053 157 0 370 910 853 703 305 0 1 0 0 0 0 38 0 0 0
2024 2314 2825 2867 2910 2984 3082 3100 3120 3081 2828 2875 2856 2813 2817 2341 2514 0 0 2003 2033 1322 1333 1125 1392 11 67 0 29 1078 631 645 28 17 0 1 0 0 0 0 0 0 0
2345 2680 3179 3198 2880 2904 3362 3412 3380 3176 3034 3002 2909 2771 2548 2737 1534 0 1 541 1348 1617 1367 720 473 1 0 0 0 308 2 7 40 2 0 0 0 0 0 0 0 0 0
2500 3096 3273 3306 3489 3488 3539 3519 3481 3333 2906 2803 2507 2337 2120 2068 2069 0 1 0 399 1198 678 422 218 0 1 0 0 0 0 59 5 0 0 0 0 0 0 0 0 0 0
2467 2908 3196 3294 3646 3767 3352 3420 3449 3247 2871 2981 2703 2523 2220 2005 971 0 1 1 0 0 2 2 3 2 0 3 0 0 6 18 0 0 0 0 0 0 0 0 0 0 0
1564 2353 2344 2698 3067 3581 3806 3718 3601 3603 3224 3115 3131 2783 2390 916 111 0 0 1 1 0 1 2 2 6 1 1 0 1 1 0 0 0 0 0 0 0 0 0 0 0 0
344 426 803 1440 2041 2576 3253 3524 10 277 2121 2394 2463 2392 975 145 2 2 1 2 1 1 0 0 1 3 0 0 0 0 0 0 0 0 0 0 0 0 0 0 0 0 0
448 334 552 1344 1484 1393 2650 2948 1995 294 1 163 542 275 0 0 1 1 1 1 2 1 0 2 2 0 0 1 0 0 0 0 0 0 0 0 0 0 0 0 0 0 0
206 22 586 3 0 164 638 1216 1540 176 666 0 1 0 1 1 1 1 1 1 0 0 0 0 0 0 0 0 0 0 0 0 0 0 0 0 0 0 0 0 0 0 0
197 328 174 0 0 0 0 0 0 98 371 0 1 0 0 1 1 0 1 0 2 4 5 13 42 35 29 4 0 0 0 0 0 0 0 0 0 0 0 0 0 0 0
259 0 30 169 17 0 0 0 0 0 1 3 0 0 0 0 0 0 2 1 7 9 207 137 106 54 33 0 0 0 0 0 0 0 0 0 0 0 0 0 0 0 0
43 69 0 40 38 25 1 5 0 0 0 0 13 0 0 4 3 3 6 1 3 17 233 242 56 71 0 0 0 0 0 0 0 0 0 0 0 0 0 0 0 0 0
42 57 18 7 13 8 9 7 3 14 5 1 2 2 1 7 6 7 7 68 81 206 249 128 9 0 0 0 0 0 0 0 0 0 0 0 0 0 0 0 0 0 0
180 59 5 9 16 5 11 12 11 7 3 3 2 3 6 6 3 4 7 0 10 32 25 7 0 0 0 0 0 0 0 0 0 0 0 0 0 0 0 0 0 0 0
5 15 15 35 36 15 31 10 5 1 8 12 6 2 6 21 6 2 0 0 1 14 30 33 16 0 0 0 0 0 0 0 0 0 0 0 0 0 0 0 0 0 0
0 1 3 1 0 3 15 8 6 6 6 5 2 1 3 0 0 0 10 11 11 21 4 1 0 0 0 0 0 0 0 0 0 0 0 0 0 0 0 0 0 0 0
0 0 0 1 3 4 4 4 4 1 1 2 2 0 0 1 0 7 2 38 43 47 2 0 0 0 0 0 0 0 0 0 0 0 0 0 0 0 0 0 0 0 0

GFSGL_con_sbcape_024.txt.gz
CAPE
3190 3390 3328 3078 3017 3152 3246 3779 3880 3181 3529 2955 2885 2508 2371 2601 2847 3091 3146 2385 2498 2140 1309 908 831 287 48 29 32 0 0 0 0 0 0 64 263 408 84 57 178 194 146
2875 3552 3554 3562 3387 3061 3535 3561 3894 3768 3678 3624 3142 2900 2598 2424 3039 2996 3021 2272 2479 2308 1887 1337 1005 434 510 527 116 461 253 107 0 133 37 43 539 427 679 666 455 133 135
2772 2535 2750 3091 3176 3444 3747 3489 3773 3924 3946 2880 3444 3800 3410 2916 3103 2944 3178 2931 2559 2501 2202 1862 1419 735 780 347 272 138 81 58 267 18 37 182 118 274 578 777 624 609 265
1891 2274 3099 3525 3497 3551 3727 3761 3828 3998 4041 3883 3943 4100 3680 3128 2940 2911 2908 3019 2943 2628 2555 2222 1742 1132 1015 669 374 435 179 128 405 113 12 11 163 311 179 65 458 696 395
2559 2154 3165 3581 3817 3829 3836 3937 3869 4042 3965 4086 4048 4112 3946 3046 2451 3426 3443 3007 3324 3165 2996 2558 2157 1340 563 574 392 989 1286 417 33 158 81 31 39 113 279 82 93 91 256
2885 2826 3153 3729 3999 3985 4071 4112 4102 4058 4102 4166 3980 4092 4098 3067 1851 1508 2625 3508 3680 3787 3482 2988 2427 998 465 108 86 162 931 981 1058 175 143 353 457 383 359 206 155 112 127
2907 3275 3509 3859 3969 4129 4059 4184 4147 4154 4156 4213 4167 4155 4254 4129 1502 727 1105 3086 3583 3553 3739 3204 2651 1980 925 1094 68 13 65 174 221 963 936 765 681 698 1041 718 421 341 273
3275 3401 3628 3560 3827 3815 4179 4179 4206 4134 4016 4130 4131 4180 4251 4113 2159 336 424 2679 3523 3536 3122 3093 3158 2809 1908 1403 1406 476 342 371 307 199 490 1015 1242 881 832 743 586 409 521
3311 3425 3568 3482 3524 3769 4153 4213 4189 4073 4095 4082 4089 4269 4274 4165 1816 259 215 2456 2666 3812 3386 3195 3291 3258 2339 611 1579 1617 974 964 129 78 1 1 0 0 138 335 219 146 154
3127 2921 3575 3826 3919 3879 4046 4280 4297 4238 3987 3341 3824 4109 3590 4165 2313 72 256 2174 2590 2668 3550 3896 1971 2710 2060 226 1319 1895 1856 1385 933 684 390 27 1 4 0 134 115 124 29
2410 2453 3307 3898 4107 4100 4291 4390 4181 4078 3638 4119 4088 4134 4306 3767 3948 0 0 2716 2548 2544 2301 2638 2919 1148 26 14 405 1726 1801 1302 775 733 620 369 139 52 0 2 3 0 0
2836 2733 3625 4005 3385 3028 4475 4524 4221 4140 4221 4208 4173 3995 3810 4210 2513 56 0 477 2156 2809 2716 2573 2505 59 0 0 0 561 612 392 949 396 365 176 71 7 4 0 0 0 0
2759 3175 3162 3370 3398 3921 4378 4243 3663 4337 3465 3640 3401 3406 3617 3702 3942 1081 0 0 395 2513 2520 2073 1226 0 1 1 0 11 27 333 501 459 584 335 80 11 0 0 0 0 0
3267 3406 3425 3596 3582 3511 3290 3419 3453 3379 3552 3362 3347 3567 3401 3272 3414 3130 153 5 99 458 7 0 0 0 0 1 0 0 324 460 714 507 471 223 18 0 0 0 0 0 0
3161 3181 3408 3402 3520 3571 3936 3400 3350 3883 3188 3595 3515 3326 3591 3420 3148 2631 557 61 321 285 0 1 2 4 4 4 6 4 130 220 290 505 284 74 2 0 0 0 0 0 0
1152 1041 1178 1624 1939 2663 2889 3468 877 1127 510 271 228 2470 3344 2907 1487 218 2 3 9 1 6 4 9 32 13 9 34 39 56 95 171 229 155 3 0 0 0 1 0 0 0
1249 1203 1244 1203 1688 1568 1747 2031 2344 1366 868 653 531 395 87 1413 2 2 2 1 1 0 156 55 68 9 8 2 7 16 55 106 284 114 13 4 0 0 0 1 0 0 0
945 173 665 677 883 1166 1231 1136 1129 1349 1519 1924 951 0 0 2 2 1 1 1 0 33 234 60 54 10 7 7 9 24 58 110 95 49 11 2 0 2 9 0 0 0 0
726 711 406 70 0 0 129 99 5 51 38 124 2 0 0 0 1 1 1 0 1 64 143 76 93 58 27 31 51 109 166 137 66 49 3 1 6 3 1 0 0 0 0
551 0 40 477 338 347 315 251 0 1 12 22 6 6 0 0 0 5 0 0 6 23 73 119 90 82 161 177 88 68 60 40 40 3 0 5 3 1 1 0 0 0 0
462 149 0 27 13 34 159 10 6 8 1 19 31 2 0 0 0 0 1 6 22 21 84 153 198 197 418 382 78 62 7 15 3 0 5 4 2 0 0 0 0 0 0
290 65 69 45 25 17 15 16 21 22 35 18 6 0 0 12 3 1 19 115 179 124 159 268 191 185 279 209 39 2 8 1 0 0 2 2 2 0 0 0 0 0 0
233 405 154 177 138 5 8 8 10 9 8 5 8 1 0 6 7 20 51 123 200 196 255 236 405 305 174 67 7 0 0 0 0 0 2 2 4 1 0 0 0 0 0
6 42 18 17 12 68 78 29 21 1 4 4 4 3 4 15 22 31 6 22 120 232 93 23 24 14 10 2 0 0 0 2 4 3 0 2 4 0 0 0 0 0 0
0 0 7 12 13 17 18 14 15 13 9 10 5 4 3 0 3 2 1 1 0 0 0 1 12 17 37 56 27 0 0 0 1 0 4 5 4 3 0 0 0 0 0
0 0 0 0 0 0 1 2 5 6 10 6 5 7 12 13 0 0 2 2 1 1 23 45 55 54 53 27 0 0 0 0 0 0 3 0 0 0 1 0 0 0 0

GFSGL_con_sbcape_027.txt.gz
CAPE
3889 3921 3903 3963 3977 4178 4005 4245 4148 4237 4479 3894 4220 3691 3721 3817 4065 4275 3806 3485 3751 3568 3003 2842 2248 2084 83 56 48 20 7 0 0 0 10 663 995 265 90 41 68 593 53
3735 4051 3968 4009 3926 4012 4114 4002 4316 4344 4300 4581 4332 4289 4130 3814 4017 4215 3946 2684 3727 3415 2977 2882 2053 1022 1924 1710 171 1502 319 564 0 1186 774 276 989 1359 1357 1637 430 73 385
3341 3507 4100 4056 4042 3877 4092 4127 4230 4362 4408 4203 4368 4539 4418 4009 4011 4278 4243 3966 3769 3675 3400 3277 2546 2247 2252 500 685 499 172 440 486 109 62 100 174 468 1223 1328 1646 1142 417
2555 2825 3585 4100 4009 4076 4126 4294 4255 4414 4425 4389 4353 4467 4461 4335 3944 3947 4083 4129 3947 3685 3677 3563 3229 2659 2321 2122 1618 1508 1236 627 492 215 58 3 80 858 425 401 899 747 657
3274 3276 3466 4075 4280 4353 4339 4309 4348 4407 4411 4463 4443 4410 4591 4420 3556 3926 3769 4018 4228 4022 3822 3849 3640 2823 1792 1824 1117 1399 1205 866 51 141 170 83 30 461 869 507 407 792 716
3536 3382 3734 4110 4402 4489 4520 4526 4632 4496 4550 4546 4510 4401 4378 4221 2771 1899 2999 3808 4224 4401 4206 4265 3999 2185 1263 843 665 690 1099 1741 1129 203 124 292 1700 727 352 287 461 350 656
3278 3948 3724 4198 4337 4558 4674 4698 4612 4628 4631 4608 4520 4512 4464 4480 2670 1085 1350 3603 4059 4294 4405 4295 3918 2750 2078 1893 329 220 25 573 726 1667 1348 1292 1424 1567 1508 754 1441 860 335
3845 3718 4127 4063 4403 4575 4672 4674 4719 4655 4594 4621 4616 4654 4573 4422 3195 744 555 2867 3701 4243 4197 4263 4300 3535 3063 2671 2278 1373 1122 893 1010 566 1350 1723 1766 1701 1093 1214 1390 1151 676
3745 4143 3918 4196 4402 4563 4605 4630 4678 4648 4635 4556 4629 4671 4642 4540 2790 1140 48 2671 3184 3566 4132 4177 4078 4140 3160 1580 2721 2600 1819 1249 478 343 154 254 110 299 528 1001 287 252 94
3843 4067 4257 4447 4460 4573 4618 4731 4720 4705 4654 4486 4562 4620 4280 4652 3862 944 199 2905 3104 3261 3662 4175 2630 3486 2742 698 2470 2867 2565 1751 1275 469 10 10 20 26 0 1062 313 327 243
3011 3685 4483 4609 4724 4678 4693 4812 4855 4804 4512 4685 4583 4602 4683 4501 4576 1249 5 3336 3099 3109 3263 3443 3769 1717 1296 72 1088 2783 2395 1999 1185 1207 375 576 493 530 244 58 302 258 47
3900 4010 4497 4657 4190 4002 4873 4854 4902 4877 4810 4717 4726 4502 4503 4694 3469 2405 0 464 2810 3128 3209 3152 3303 1272 80 0 66 1874 1646 1671 1896 1049 488 406 321 346 314 233 243 228 8
4421 4652 4712 4733 4641 4632 4854 4919 4471 4743 4000 4138 3963 4136 4194 4015 4654 2371 0 0 240 2457 3179 2937 2388 261 0 0 6 166 198 1535 1393 503 542 396 272 186 383 134 107 8 0
3641 4194 4268 4311 4509 4511 3660 3951 3761 3608 3680 3727 3495 3869 3434 3942 4136 4602 1725 69 6 265 1772 2131 239 42 233 1059 0 0 603 1309 1023 387 419 501 440 87 5 1 0 0 0
3778 3775 3926 3697 3899 4317 4346 3437 3536 4096 3328 3602 3607 3375 3534 3737 3735 3618 3762 3687 2201 996 1434 908 94 11 12 0 23 28 199 425 395 485 424 501 145 0 2 24 0 1 0
3133 3449 3233 3273 3604 3648 3602 3990 3049 2716 1624 1303 289 839 2875 2539 1258 763 1922 2090 1346 471 864 430 195 51 3 0 1 11 97 125 110 198 121 72 32 0 0 3 10 1 3
2055 1996 1506 857 1348 1514 1930 2167 2288 1413 1296 1835 55 0 0 2 0 1 0 2 0 1 1046 386 295 147 92 4 13 90 23 0 62 103 74 277 68 49 6 14 20 5 3
1179 277 1168 1148 1316 1581 1691 1427 1079 800 731 618 35 0 0 0 2 2 2 2 0 1 903 725 274 103 57 4 83 123 22 9 42 179 316 226 31 24 14 11 12 28 0
973 1024 913 542 229 223 621 693 410 212 172 8 1 0 0 0 0 0 0 1 36 0 248 630 87 43 4 4 68 63 6 52 95 189 90 99 102 25 11 9 7 0 1
433 15 146 683 593 705 590 522 170 69 37 43 1 0 0 1 3 4 2 3 2 12 6 40 42 19 2 3 42 79 58 161 71 157 41 80 22 2 2 14 1 0 0
374 315 46 366 308 288 361 361 270 236 134 2 1 0 0 0 19 10 33 1 18 25 6 2 1 3 3 20 27 123 111 83 62 88 42 15 2 6 11 6 0 0 0
347 201 94 55 40 70 25 16 10 8 7 4 0 7 0 12 10 12 16 6 3 27 87 32 15 37 55 167 100 117 112 51 32 31 0 3 14 1 0 0 0 0 0
142 58 32 16 90 32 58 9 10 8 9 9 9 10 17 23 26 15 44 95 85 106 85 99 112 118 115 111 101 80 79 21 32 32 31 16 3 0 0 0 0 0 0
17 7 9 7 0 7 2 6 9 1 6 10 8 9 4 4 4 13 37 165 193 181 92 35 53 73 37 19 3 41 49 20 32 37 11 0 0 0 0 0 0 0 0
0 1 6 13 9 6 7 6 9 7 6 3 6 2 2 5 9 8 0 0 0 0 0 15 29 33 16 28 8 29 5 0 25 1 3 1 3 19 0 1 0 0 0
2 1 1 1 0 0 0 0 2 2 2 1 3 4 1 2 1 6 5 0 0 0 0 0 1 0 15 16 24 0 0 1 0 0 2 5 9 10 7 0 0 0 0

GFSGL_con_sbcape_030.txt.gz
CAPE
3499 3417 3341 3443 2777 2737 2882 2612 3500 2564 4129 2858 4036 3351 3236 3180 3267 3530 3032 2804 3364 2875 2706 2576 1767 1115 910 849 649 765 611 507 125 231 780 699 522 143 1 65 57 20 0
3699 3697 3477 3495 3648 3254 2546 2862 3135 3921 2935 4060 3603 3444 3431 3123 3209 3183 3222 2415 3046 3125 2774 2675 2067 1353 1531 1582 1620 686 679 803 468 866 935 818 647 648 993 953 296 2 174
3663 3742 3678 3585 3489 3603 3535 2659 3309 3198 3931 3094 4036 3804 3283 3250 3126 3342 3204 3147 2522 3287 3071 2633 2307 1773 1606 858 1088 1399 892 1289 1574 554 722 1021 856 924 798 988 1186 805 582
3430 3690 3659 3757 3562 3525 3484 3570 2961 3502 3276 3674 3471 3601 3814 3351 3275 3157 3258 3312 3099 2857 3252 3055 2653 1978 1752 1622 1197 732 1369 638 740 1007 468 316 996 763 774 449 721 766 652
2620 3393 3519 3624 3915 3700 3645 3678 3786 3394 3481 3416 3551 3610 3509 3703 3438 3216 3161 3278 3385 3155 3005 3274 3007 2460 1858 1792 1122 1405 590 1512 904 468 477 592 480 790 582 473 567 418 637
2856 2923 3217 3521 3713 4075 3933 3857 3941 3884 3771 3860 3789 3656 3689 3613 3316 2745 2902 3197 3387 3332 3269 3116 3185 2547 1931 1387 1283 881 1133 660 701 413 391 349 449 646 818 435 389 376 158
3296 3377 3355 3583 3736 3932 4094 4111 3970 4049 4023 4004 3992 3968 3713 3717 3073 1954 1863 3103 3207 3283 3318 3353 3278 2946 2349 1768 789 840 628 716 655 576 401 512 933 1096 901 1181 924 790 433
4006 3837 4189 4077 3856 4021 4085 4181 4212 4180 4216 4117 4176 4186 4068 3918 3274 1224 976 2589 3091 3147 3229 3301 3280 3137 2908 2407 1663 992 871 582 378 664 832 663 1275 1599 1630 1348 955 894 694
3292 3752 3689 4328 4192 4157 4236 4245 4299 4357 4288 4317 4257 4301 4294 4144 3112 1515 192 2216 2681 2946 3250 3330 3345 3318 3111 1804 2065 1428 1153 959 646 427 549 888 625 297 1158 574 542 377 285
3327 3498 3976 3759 4187 4207 4309 4399 4413 4467 4442 4404 4393 4341 4226 4298 3968 1429 234 2754 2636 2640 2904 3228 2631 3261 3172 807 2120 2141 1738 1305 937 384 138 6 0 86 214 641 340 189 165
3455 3777 4181 4460 4157 4249 4444 4552 4550 4572 4530 4490 4442 4442 4398 4297 4292 2332 11 3074 3291 2960 2716 2786 2957 1700 2109 541 1094 2395 2236 1906 1126 727 230 113 73 89 15 169 584 249 169
4593 4149 4479 4705 4231 4280 4578 4752 4632 4558 4545 4496 4534 4467 4443 4476 3913 3657 128 318 3235 3395 3201 2785 2759 2744 556 4 0 1775 1871 1857 1566 782 224 59 70 75 146 92 113 176 122
5226 4998 4712 4951 4628 4407 4710 4640 4584 4624 4557 4543 4493 4434 4519 4404 4384 3709 1435 0 126 1706 3358 3188 981 1649 1066 0 0 252 494 1558 1770 1003 584 194 142 99 110 69 30 112 11
5171 5377 5159 5109 4847 4702 4555 4590 4536 4459 4452 4428 4257 4309 4216 4120 4178 4155 2273 45 2 224 1314 2069 2371 2199 0 434 19 0 1073 1819 1739 935 611 353 214 126 40 47 23 3 0
4562 4849 5083 4746 4748 4802 4663 3992 4532 4386 4012 4159 4086 3915 3725 4007 900 0 17 1796 2097 1428 2072 2758 2691 2121 2404 630 744 228 919 1646 1444 992 450 205 84 52 0 0 0 0 0
4902 4560 4356 4096 4431 4137 4403 4407 3757 2245 76 1 0 408 659 0 0 0 1 12 419 1252 773 2330 2576 2444 1421 1507 1142 522 655 1049 1157 678 285 152 22 2 0 0 0 0 0
3229 3725 2297 2100 3069 4577 4418 4767 4480 157 0 0 0 0 0 0 0 0 2 2 2 0 1799 1684 2095 2289 1650 1158 987 592 497 695 689 320 139 76 18 5 0 0 0 0 0
1947 536 2013 2133 2102 1835 1533 1492 1386 1406 1752 843 23 0 0 0 0 1 0 1 0 1 294 1351 1572 1480 1324 860 603 508 488 298 184 74 0 1 11 0 0 0 0 0 0
2033 1453 1256 862 718 861 1519 1466 876 874 839 546 246 0 0 0 0 0 0 2 2 3 3 5 2 8 208 578 504 301 241 142 71 1 0 2 6 2 0 0 0 0 0
390 78 522 1294 975 1278 1084 881 754 702 414 287 28 0 0 0 0 5 0 0 1 1 4 6 7 9 4 2 19 93 45 19 1 0 0 5 23 0 0 0 0 0 0
345 401 192 407 308 278 290 223 181 108 98 44 4 0 0 0 7 10 8 10 6 0 37 45 0 0 0 7 1 2 2 4 5 7 33 197 34 0 0 0 0 0 0
289 114 96 55 16 8 3 2 2 5 8 4 0 0 0 6 10 9 23 26 21 20 7 39 16 0 3 0 11 5 2 22 22 77 68 15 0 0 0 0 0 0 0
12 3 1 1 0 4 9 13 13 8 4 3 4 6 5 5 6 10 28 46 41 26 141 138 135 91 125 146 104 38 2 0 0 1 0 0 0 0 0 0 0 0 0
5 0 0 0 0 0 0 6 2 0 1 0 3 5 5 4 3 3 3 5 5 1 114 172 31 106 48 3 9 3 0 0 0 0 0 0 1 0 0 0 0 0 0
9 9 4 0 0 1 0 0 0 0 1 2 4 4 6 4 5 4 5 5 1 0 0 1 26 17 0 0 0 0 0 0 0 0 0 1 0 0 0 0 0 0 0
6 8 4 3 1 0 0 0 0 0 0 0 3 2 5 5 3 3 4 2 3 3 4 1 0 0 70 56 18 0 0 0 0 0 1 0 17 4 0 2 10 0 0

GFSGL_con_sbcape_033.txt.gz
CAPE
1899 1761 1946 1612 1244 1842 1512 648 1244 1583 1424 1300 1936 1664 1901 1858 2275 1931 1733 1999 2208 1901 1680 1410 1167 752 82 36 47 66 0 0 0 0 0 0 0 0 0 0 0 0 0
2203 1887 1988 1990 1769 1324 1950 1718 582 1739 1477 2420 2359 2100 2180 2009 2012 2336 2121 2124 1783 2018 1964 1514 1283 957 372 156 533 6 22 10 0 0 207 189 0 0 0 0 0 0 0
2367 2414 2143 2159 2273 1802 1565 1624 2011 926 2167 1542 2544 2463 2343 2267 2282 2170 2308 2358 1886 2021 2052 1886 1615 1088 707 426 432 507 53 5 93 0 230 102 61 113 64 30 14 2 0
2437 2578 2651 2487 2474 2514 2105 1770 1437 2048 1708 2780 1710 2409 2446 2422 2242 2356 2309 2307 2316 1791 2183 2177 1927 1406 1102 762 422 274 391 276 393 106 0 80 315 323 62 164 254 320 220
2438 2704 2726 2775 2675 2645 2587 2629 2325 1528 2165 2098 2621 2039 2607 2438 2474 2315 2406 2438 2395 2393 1883 2309 2278 1885 1384 1058 916 383 172 441 173 217 159 25 5 395 465 183 45 96 220
2166 2581 2837 2856 2818 2753 2772 2619 2784 2599 1892 2427 2369 2369 2601 2805 2799 2165 2396 2513 2508 2485 2505 2131 2476 1989 1525 900 838 705 391 62 520 216 126 217 84 2 228 237 213 164 187
1742 2251 2680 2840 2868 2934 2844 2871 2730 2798 2864 2405 2305 2697 2430 2728 2714 1607 1540 2588 2543 2584 2596 2605 2370 2553 2038 1873 584 617 443 315 27 333 204 69 50 56 124 174 158 71 6
1819 1941 2105 2764 2968 2971 3121 2933 3067 2940 3051 3137 2988 2656 3034 2876 2719 1611 760 2332 2660 2556 2724 2711 2657 2583 2520 2291 1972 1049 918 498 288 28 111 90 19 26 97 184 93 42 34
2180 2309 2298 2664 2814 3000 3062 3331 3248 3282 3200 3236 3324 3266 3186 3244 2762 1843 370 1763 2565 2710 2689 2674 2806 2770 2687 1716 2280 1957 1266 1124 414 140 85 53 122 675 568 344 161 54 11
2655 3038 3262 2826 3062 3005 3171 3264 3402 3459 3484 3496 3429 3561 3411 3441 3350 1699 339 2411 2591 2659 2712 2628 2380 2610 2826 1506 1909 2276 1902 1405 954 539 5 1 49 69 381 221 88 24 0
2550 2472 3109 3354 3440 3559 3320 3365 3554 3637 3695 3674 3761 3691 3715 3587 3514 2161 563 2379 2989 2989 2835 2677 2528 2140 1122 1214 326 2529 2259 1934 1096 737 551 246 53 77 17 90 77 106 7
2649 2780 3075 3288 3225 3520 3648 3745 3827 3920 3966 3932 3888 3864 3829 3810 3567 2949 702 235 3146 3225 3308 3184 2884 2336 1409 583 0 945 1414 1285 1644 1007 842 472 183 29 46 95 125 32 11
3764 3136 3274 3427 3855 3242 3706 4157 4107 4028 4089 4022 3964 3940 3898 3817 3758 3526 2030 275 196 2081 3422 3343 3095 2670 1581 13 0 100 5 1080 2027 1739 1167 975 335 139 43 7 42 2 0
3190 4457 3916 4244 4194 3745 4139 4061 4255 4090 4029 3880 3843 3831 3739 3617 3509 1896 989 76 1 1 751 1873 2104 1800 1962 1198 74 1 16 1496 2195 2257 1804 1292 507 33 7 10 0 28 0
3779 4594 4446 4370 4238 4287 3839 3584 3820 2900 3485 3766 3709 3392 3242 1531 0 0 0 132 814 600 512 1338 1979 2528 2320 2532 917 684 12 170 1336 1880 2108 1618 408 0 0 14 13 1 0
3672 3907 3891 3825 4130 4099 3932 610 0 36 0 0 364 0 0 0 0 0 1 2 2 2 0 1117 1501 2152 2670 2795 2656 2539 1330 316 526 1143 1523 1431 432 13 8 1 0 0 0
2279 2785 2974 2723 3361 3416 3748 1958 0 0 0 0 0 0 0 0 2 1 2 1 2 0 1 855 1096 1358 2050 2393 2350 2150 2171 1369 803 666 1234 1392 453 174 0 0 0 0 1
1282 445 1025 971 519 596 798 1968 50 74 3 0 0 0 0 2 2 0 0 0 0 0 0 0 0 0 0 0 0 0 3 472 997 843 858 1114 745 128 0 0 0 0 0
130 198 196 200 374 659 486 212 285 85 1 0 0 0 0 0 0 0 0 0 0 0 0 0 0 0 0 0 0 0 1 2 4 19 126 581 628 13 0 0 0 0 0
91 122 368 155 45 16 17 9 2 1 0 0 0 0 0 0 0 0 0 0 0 0 0 0 0 0 1 0 0 0 0 0 1 6 8 9 17 6 2 1 1 0 0
8 0 0 0 0 0 0 0 0 0 0 0 0 1 1 0 0 0 0 1 0 0 0 0 0 0 0 0 0 0 9 0 0 0 0 3 0 1 1 1 2 1 0
0 0 0 0 0 0 0 0 1 0 1 1 2 1 0 2 2 2 3 4 3 2 0 0 0 0 0 0 0 0 0 0 0 0 5 6 9 1 1 1 2 0 0
0 0 0 0 0 0 0 0 0 0 1 2 2 2 2 3 4 4 4 2 2 2 1 1 8 2 0 0 1 3 5 2 0 0 0 0 0 0 0 0 0 0 0
0 0 0 0 0 0 0 0 0 0 0 1 2 3 2 3 4 4 4 4 5 3 2 0 0 0 0 0 0 0 0 0 0 0 0 0 0 0 0 0 0 0 0
0 0 0 0 0 0 0 0 0 0 0 0 3 1 2 2 2 3 2 2 4 3 1 0 0 0 0 0 0 0 0 0 0 0 0 0 0 0 0 0 0 0 0
0 0 0 0 0 0 0 0 0 0 0 0 0 0 0 1 1 2 2 1 1 1 3 4 2 0 0 0 0 0 0 0 0 0 0 0 0 0 0 0 0 0 0

GFSGL_con_sbcape_036.txt.gz
CAPE
1490 1424 1131 799 798 1631 818 175 247 779 482 659 1189 1193 1652 1462 1270 1128 1335 1636 1198 1293 1429 972 646 479 252 6 0 0 0 0 0 0 0 0 0 0 0 0 0 0 0
1661 1663 1560 1323 856 839 1626 829 335 424 929 505 1218 1288 1429 1677 1616 1420 1285 1502 1851 1426 1499 1348 1071 746 516 75 0 0 0 0 0 0 0 19 0 0 0 0 0 0 0
1562 1555 1560 1565 1302 937 990 1682 1064 439 664 1212 1476 1441 1370 1545 1628 1826 1610 1488 1452 1749 1581 1521 1470 1029 976 540 32 29 4 0 0 0 0 7 0 0 0 0 0 0 0
1701 1680 1513 1655 1688 1471 1112 995 1666 1357 354 956 1536 1896 1701 1730 1586 1653 1920 1881 1714 1612 1608 1648 1594 1400 1321 977 376 87 30 51 0 0 0 0 0 0 0 0 0 0 0
1903 1921 1823 1634 1817 1925 1774 1299 1147 1336 1655 780 1156 1431 2165 2053 1996 1926 1825 1843 2035 2019 1632 1834 1774 1664 1458 1276 957 512 60 49 14 0 0 0 2 49 49 2 0 0 12
2015 2064 2086 2117 1932 2023 2142 2089 1604 1399 1171 1667 1551 1904 1642 2238 2301 1802 1993 2067 1948 1914 1983 1730 1712 1771 1432 934 685 911 420 267 83 82 64 8 6 0 16 16 3 0 7
2041 2100 2270 2278 2424 2320 2276 2312 2325 2169 1849 1263 1378 1889 1956 2028 2129 1338 1263 2090 2127 2098 2057 2022 2001 1873 1699 1812 367 165 288 59 280 47 85 31 4 0 0 2 52 15 29
1562 2157 2290 2521 2521 2583 2548 2455 2460 2450 2578 2364 1775 1609 2125 2062 1983 1142 558 1847 2236 2206 2258 2225 2173 2201 2056 1922 2067 952 606 701 96 29 3 30 19 10 0 0 12 57 2
1324 1447 2298 2495 2782 2740 2672 2688 2654 2681 2566 2587 2665 2382 1954 2062 2077 1317 250 1415 2067 2463 2517 2348 2402 2396 2303 1520 1956 2183 1623 1120 888 81 65 9 1 0 0 0 4 6 25
1423 1599 1654 2243 2617 2780 2794 2795 2878 2764 2798 2710 2667 2778 2735 2591 2195 1165 252 2087 2242 2355 2510 2650 2076 2205 2567 1673 1417 2150 2272 2200 1560 1371 184 9 1 0 0 3 40 6 6
1799 1592 1772 1794 2222 2622 2753 2867 2898 3023 2901 2921 2939 2866 2975 2724 2886 1474 160 2202 2733 2780 2715 2761 2724 2259 1160 1279 421 2389 2496 2493 2244 1546 1376 808 387 192 4 32 87 42 10
1909 2123 2410 2535 2255 2450 2574 2692 2875 2886 3094 3120 3114 3253 3222 3160 2976 2074 443 269 2825 3088 3228 3241 3111 2816 1700 270 0 489 1163 875 2132 2385 1626 1367 1186 521 278 101 74 68 64
2122 2034 2157 2342 2718 2823 2934 2784 2865 3089 3126 3249 3357 3421 3493 3281 3331 2515 1325 101 15 1867 3236 3396 3214 2834 1369 36 0 10 0 551 1690 2335 2413 2096 1323 1078 543 181 88 98 57
2527 2875 2397 2450 2717 2636 3046 3306 3312 3426 3539 3571 3633 3690 3675 3470 3423 1631 540 66 3 1 0 567 1122 1491 1427 1108 511 65 0 172 1010 1665 2075 2432 2157 1397 781 271 24 10 7
1908 3100 3574 3090 2814 2922 659 1550 3212 3409 3468 3785 3740 3820 3550 3170 258 0 24 200 246 33 118 583 905 1256 1761 2300 2446 2341 1459 376 142 420 1030 1635 1968 2037 992 280 24 0 5
1657 2670 3374 3482 3436 2822 185 0 0 0 2 497 831 16 0 0 0 0 0 0 1 2 0 132 609 906 1291 1679 2143 2306 1990 1387 1033 833 825 1053 1232 1536 1572 464 34 0 0
1104 549 1935 2894 3501 3013 76 0 0 0 0 0 0 0 0 0 0 0 0 0 0 0 0 0 0 5 9 0 0 0 0 0 0 0 4 190 586 914 747 640 158 0 0
429 313 1012 945 1769 2438 40 0 0 0 0 0 0 0 0 0 0 0 1 1 0 0 0 0 0 1 0 0 0 0 0 0 0 0 0 0 5 30 24 14 24 238 84
70 165 130 128 65 294 303 87 10 0 0 0 0 0 1 0 0 1 0 0 0 0 0 0 0 0 0 0 0 0 0 0 0 0 1 1 0 0 1 1 5 0 10
0 0 0 0 0 0 0 0 0 0 2 3 1 0 0 0 0 0 0 0 0 0 0 0 0 0 0 0 0 0 0 0 0 0 0 0 0 0 0 0 0 0 0
0 0 0 0 0 0 0 0 1 2 4 4 3 0 0 0 1 1 1 1 2 3 2 2 1 0 0 0 1 1 0 0 0 0 0 0 1 1 0 1 1 2 2
0 0 0 0 0 0 0 0 0 0 1 1 1 0 0 1 2 3 3 4 3 4 3 2 1 1 4 4 0 1 1 0 0 0 0 0 0 0 0 1 1 0 0
0 0 0 0 0 0 0 0 0 0 1 1 1 1 1 2 2 2 3 4 4 3 3 2 2 0 0 1 6 2 1 1 0 0 0 0 0 0 0 0 0 0 0
0 0 0 0 0 0 0 0 0 0 0 0 1 1 2 3 3 3 3 3 3 2 3 5 4 2 0 0 0 0 0 0 0 0 0 0 0 0 0 0 0 0 0
0 0 0 0 0 0 0 0 0 0 0 0 0 0 0 0 1 2 2 2 2 1 1 2 2 1 2 1 0 0 0 0 0 0 0 0 0 0 0 0 0 0 0
0 0 0 0 0 0 0 0 0 0 0 0 0 0 0 0 0 0 0 1 1 1 1 1 1 1 0 0 0 0 0 0 0 0 0 0 0 0 0 0 0 0 0

GFSGL_con_sbcape_039.txt.gz
CAPE
524 487 531 623 613 551 489 202 346 19 306 710 619 719 985 1021 950 853 923 816 704 804 1043 830 477 294 308 21 0 0 0 0 0 0 0 0 0 0 0 0 0 0 0
677 619 665 808 954 998 741 318 157 411 187 335 767 797 971 1113 1041 965 983 1332 1048 916 965 1101 1038 667 367 92 4 0 0 0 0 0 0 0 0 0 0 0 0 0 0
701 789 735 707 668 874 1369 1151 167 52 365 301 487 790 943 1193 1286 1159 1146 1047 1334 1416 1267 1173 1306 1080 923 602 157 17 0 0 0 0 0 0 0 0 0 0 0 0 0
810 1013 1090 1072 947 693 661 1132 1183 354 245 512 658 861 975 1055 1333 1441 1413 1265 1120 1296 1576 1557 1506 1404 1297 1077 666 263 11 0 0 0 0 0 0 0 0 0 0 0 0
1043 1241 1301 1327 1277 1113 845 723 1124 1169 721 575 714 1042 1244 1214 1306 1351 1545 1579 1414 1325 1277 1408 1519 1574 1460 1337 1291 986 141 12 2 0 0 0 0 0 0 0 0 0 0
1341 1325 1329 1265 1373 1382 1250 1012 790 1076 1441 1069 644 849 1216 1574 1679 1290 1415 1527 1643 1648 1610 1445 1439 1347 1258 872 781 1018 990 619 403 101 299 31 0 0 0 0 0 0 0
1567 1537 1506 1395 1336 1483 1562 1484 1280 973 1010 1301 1402 1038 1003 1102 1361 1029 865 1737 1693 1652 1669 1670 1710 1681 1398 1616 623 197 118 147 614 1132 333 517 211 12 0 0 0 0 0
1720 1762 1764 1762 1656 1553 1661 1827 1823 1632 1304 1200 1088 1229 1411 1468 1515 513 386 1483 1944 1945 1864 1795 1743 1789 1740 1512 1665 1544 792 936 477 88 772 1294 645 354 2 0 0 0 0
1686 1868 1950 1982 2001 2048 1992 1933 2063 2107 2101 1949 1732 1332 1135 1339 1422 693 71 1212 1815 2018 2054 1990 2044 2051 1982 1512 1570 1842 1882 1573 1080 479 128 209 226 82 64 0 0 0 0
1461 1850 1996 2126 2223 2235 2361 2368 2262 2308 2319 2352 2450 2402 1920 1573 1537 454 5 1413 1712 1875 2112 2231 2008 2039 2235 1837 1386 1958 2079 2190 2163 1704 859 54 16 20 0 0 76 3 0
1039 1113 1509 2142 2281 2466 2446 2461 2510 2516 2556 2539 2501 2428 2478 2146 2148 607 10 1541 1979 2112 2182 2283 2362 2225 1268 907 342 2235 2369 2405 2509 1949 2236 1839 1443 907 689 128 4 49 44
1064 1086 1231 1406 2198 2314 2558 2605 2556 2633 2662 2638 2589 2610 2565 2551 2295 922 34 80 2079 2437 2747 2918 2885 2694 1563 303 0 201 992 615 1755 2276 2499 2564 2301 1872 1100 877 447 0 31
1581 1609 1392 1507 1528 1821 2352 2464 2664 2660 2772 2863 2840 2795 2843 2741 2686 1872 261 0 11 1549 2810 3203 3175 2572 999 0 0 0 0 0 609 1402 1982 2311 2518 2599 2203 1587 697 484 0
1994 2201 1680 2086 2274 2056 2126 2301 2416 2607 2746 2775 2884 2987 2972 3000 3181 3129 794 20 1 1 6 548 813 937 1062 1245 906 296 0 0 385 979 1498 1800 1969 2114 2354 2042 1267 883 274
1595 2136 2913 2148 1552 1422 1 657 1859 2357 2197 2999 3081 3193 3294 3471 2914 1225 1127 1133 891 311 313 556 819 1016 1188 1284 1638 2060 1886 672 117 165 368 574 601 727 913 1142 1329 1393 1172
1253 1077 1714 2868 2164 141 0 0 0 1 3 429 1718 1244 0 123 0 0 0 0 0 0 66 248 239 359 497 551 333 16 0 0 0 0 0 0 0 0 0 2 62 425 455
878 707 365 2435 2575 185 0 0 0 0 0 0 0 0 0 0 0 2 2 2 2 0 0 0 0 0 0 0 0 0 0 0 0 0 0 0 0 0 1 1 5 8 6
36 169 610 1219 2412 160 0 0 0 0 0 0 0 0 2 2 2 0 0 0 0 0 0 0 0 0 0 0 0 0 0 0 0 0 0 0 2 5 1 0 1 4 4
45 7 0 90 679 0 0 0 0 0 0 0 0 0 0 0 1 0 0 0 0 0 0 0 0 0 0 0 0 0 0 0 0 0 0 0 0 0 0 1 1 0 1
0 0 0 0 60 83 0 0 1 1 1 0 0 1 0 0 0 1 1 0 1 1 1 2 0 1 1 1 1 1 0 1 0 0 0 0 0 0 0 1 0 2 1
0 0 0 0 0 0 0 1 1 1 1 1 1 1 0 1 2 1 1 2 3 2 2 3 4 1 2 3 4 1 0 0 1 0 0 0 0 1 0 0 1 0 0
0 0 0 0 0 0 0 0 0 0 1 1 2 0 0 0 1 2 2 3 4 3 4 4 3 3 3 2 4 5 7 4 2 0 0 0 0 0 0 0 0 0 0
0 0 0 0 0 0 0 0 0 0 1 1 1 1 1 2 2 2 3 2 2 2 2 3 2 1 2 2 2 3 3 4 3 4 2 1 0 0 0 0 0 0 0
0 0 0 0 0 0 0 0 0 0 0 0 0 0 1 1 2 2 1 1 1 1 1 2 1 1 1 1 1 0 2 1 1 1 1 1 1 1 0 0 0 0 0
0 0 0 0 0 0 0 0 0 0 0 0 0 0 0 0 0 1 1 1 0 1 0 1 1 0 1 1 0 0 0 0 0 0 0 0 0 0 0 0 0 0 0
0 0 0 0 0 0 0 0 0 0 0 0 0 0 0 0 0 0 0 0 0 0 0 0 0 0 0 0 0 0 0 0 0 1 0 0 0 0 0 0 0 0 0

GFSGL_con_sbcape_042.txt.gz
CAPE
45 53 88 97 72 117 90 24 0 0 155 332 398 576 899 1069 1142 1067 1121 1018 846 962 1025 1095 1070 517 568 235 4 0 0 0 0 5 0 0 9 0 13 87 1 16 0
134 148 178 244 266 267 264 128 86 8 145 417 513 565 713 947 1047 1151 1218 1353 1181 1142 1121 1139 1321 1080 820 592 214 92 1 0 0 36 0 0 0 2 3 2 12 0 0
267 239 247 331 430 445 450 350 184 264 157 265 500 706 776 978 1098 1133 1203 1325 1475 1471 1402 1305 1378 1317 1446 1175 789 460 67 1 0 0 6 0 0 0 0 0 0 2 0
397 431 417 482 583 679 682 641 161 271 484 413 498 613 874 1025 1262 1343 1329 1344 1386 1578 1670 1569 1530 1531 1554 1720 1199 1024 827 430 43 12 8 0 0 0 0 19 9 0 0
357 612 602 606 636 697 905 1136 741 287 392 453 578 656 845 1028 1141 1461 1595 1560 1520 1483 1539 1685 1771 1655 1401 1496 1705 1632 1255 973 1007 428 452 79 13 10 8 91 0 47 70
405 671 758 773 749 710 619 640 1189 1094 853 657 605 739 843 966 891 803 1295 1726 1757 1690 1627 1566 1625 1262 1130 854 659 964 1454 1350 1330 1200 1017 1075 1042 530 114 41 10 19 123
681 796 993 1069 1116 1050 931 778 733 1011 1252 1125 856 898 979 1177 1017 444 421 1574 1740 1827 1847 1823 1775 1689 1319 1791 1039 184 161 141 686 1820 1610 1354 1268 1327 908 336 63 67 204
1069 1100 1235 1295 1299 1308 1288 1192 1041 909 951 1283 1397 1186 983 1025 857 226 104 1201 1673 1792 1844 1924 1964 2061 1983 1820 1979 2064 1910 1482 664 399 1090 1698 1986 1929 1469 946 607 337 70
1447 1442 1454 1452 1371 1369 1462 1506 1458 1413 1195 1066 1137 1326 1471 1420 693 197 0 1085 1694 1846 1969 2061 2056 2069 1870 1341 1848 2094 2190 2242 1680 824 440 555 303 140 288 1096 601 0 3
1647 1669 1697 1693 1653 1563 1544 1599 1747 1829 1856 1754 1574 1484 1205 1361 1139 238 0 1148 1396 1615 1992 2175 1745 1902 2016 1579 1190 2137 2314 2424 2362 2254 1652 242 49 113 4 0 308 582 444
1482 1761 1835 1901 1927 1943 1935 1913 1910 2053 2155 2255 2308 2280 2180 1571 1624 459 0 1208 1792 1936 1999 2141 2325 1919 1099 993 412 2063 2250 2307 2409 2114 2422 2457 2190 1806 1567 1127 287 69 447
1117 1610 1885 1995 2128 2201 2225 2322 2404 2364 2405 2478 2510 2562 2576 2654 1794 1347 5 39 1537 2026 2297 2400 2432 2127 1338 122 0 75 624 482 1528 2007 2222 2411 2586 2629 2595 1885 1416 942 238
868 1075 1224 1870 2157 2374 2493 2512 2553 2623 2684 2681 2714 2745 2790 2772 2693 1199 442 0 2 958 2340 2552 2634 2680 966 47 0 0 0 0 123 683 1261 1778 2044 2182 2350 2368 2421 2244 1327
1477 1295 1201 1333 1645 2211 2426 2641 2771 2732 2740 2871 2938 2933 2922 2957 2997 2976 591 92 1 1 4 711 701 876 931 1218 935 483 1 17 393 888 1182 1353 1454 1300 972 1052 1021 700 506
1994 2589 1890 1817 1576 1075 7 574 1718 1892 2039 2874 2913 3060 3113 3153 3198 3094 3036 2037 1096 440 535 658 898 1179 1339 1165 1153 1415 1380 547 454 477 342 259 150 66 52 9 12 10 6
1295 1361 2372 2016 1536 78 0 0 0 1 3 695 2061 2096 0 57 2 2 1 2 11 2 535 715 519 421 391 194 58 4 1 0 0 0 0 0 2 4 8 11 11 10 8
558 572 494 2120 850 22 1 0 0 0 0 0 0 0 0 0 0 2 2 0 0 0 3 0 0 0 0 1 0 0 0 0 1 1 1 1 3 3 6 1 3 6 0
14 4 380 2255 1043 25 0 0 0 0 0 0 0 0 1 0 0 0 0 0 0 0 0 2 3 3 3 1 1 1 1 2 3 2 2 1 0 2 1 2 6 9 11
3 0 72 1029 138 0 0 0 0 0 0 1 2 0 1 2 0 0 0 0 1 2 4 3 2 2 2 3 4 5 3 2 3 3 3 1 0 1 4 2 3 0 2
0 0 4 112 0 0 0 2 3 3 2 1 0 0 2 2 1 1 1 2 2 2 1 2 2 2 2 2 3 4 2 1 3 5 6 1 0 1 6 2 1 1 3
0 1 0 0 1 0 1 3 3 2 1 1 1 1 0 1 2 2 1 1 2 4 3 3 4 3 3 3 3 4 4 6 9 2 2 2 2 2 6 11 11 1 4
0 1 0 0 0 0 1 1 1 1 1 1 1 0 0 0 1 2 2 2 3 3 4 5 5 5 6 6 6 4 2 2 5 3 4 7 6 2 2 6 9 2 3
0 1 0 0 0 0 0 0 0 1 1 1 1 1 1 2 2 2 2 2 2 2 2 3 2 3 3 3 4 4 4 5 4 3 2 4 7 12 5 3 7 2 4
0 0 0 0 0 0 0 1 0 0 1 1 1 1 2 2 2 2 1 0 0 0 0 1 1 1 1 1 1 0 0 0 2 1 0 1 4 11 2 2 2 0 1
0 0 0 1 1 1 1 1 1 0 0 0 0 0 0 0 0 0 0 0 0 0 0 0 0 0 0 0 0 0 0 0 0 0 0 0 0 1 2 0 0 0 0
0 0 0 0 0 0 0 0 0 0 0 0 0 0 0 0 0 0 0 0 0 0 0 0 0 0 0 0 0 0 0 0 0 0 0 0 0 0 0 0 0 0 0

GFSGL_con_sbcape_045.txt.gz
CAPE
847 882 1011 981 1012 1143 994 1094 1594 1159 1319 1550 1862 1947 2063 2133 2249 2476 2396 2245 2552 2633 2466 2300 2389 2413 1975 1699 1371 1092 898 643 600 546 663 557 909 1102 819 631 647 738 525
869 968 975 964 1021 875 1264 997 1387 1669 1389 1620 1702 1908 2031 2060 2141 2333 2266 1998 2454 2522 2597 2608 2458 2148 2449 2451 2150 2041 1507 1351 886 1646 1193 747 977 1010 1202 1170 826 400 438
922 636 851 986 909 1311 1427 1385 1450 1605 1718 1325 1560 1775 1998 2002 2122 2237 2312 2378 2411 2398 2485 2695 2727 2619 2614 2278 2427 2238 2118 2023 1655 1281 1297 987 743 489 794 996 799 880 554
738 835 1135 1267 1343 1304 1647 1783 1341 1857 1816 1769 1764 1902 1849 1979 2062 2155 2268 2423 2495 2472 2561 2612 2709 2798 2855 2919 2779 2772 2652 2489 2451 1985 1695 1581 1574 1700 1122 854 848 802 661
1297 1210 1335 1479 1609 1765 1940 2011 1762 1741 1976 2018 1905 1743 1827 1801 1703 2128 2343 2521 2626 2672 2677 2737 2771 2584 2221 2402 2687 3236 2859 2604 2288 2041 1861 1730 1626 1567 1643 1333 1270 1246 1391
1509 1498 1623 1737 1855 1941 2108 2182 2040 1971 1953 2180 1835 2059 1924 1656 1051 1025 1738 2301 2742 2869 2824 2806 2815 2073 1774 1054 748 1047 1925 3437 2902 2574 2433 2534 3593 2846 2462 2260 2057 1903 2029
1594 1780 1939 2022 2040 2139 2246 2401 2534 2298 2061 2213 1922 1983 2199 2480 1263 436 368 1927 2421 2699 2897 2954 2895 2495 2201 2657 1808 284 199 226 710 2867 3445 3551 3826 3350 3543 3310 3439 3065 2588
1726 1892 2128 2198 2173 2260 2320 2382 2575 2514 2608 2519 2198 2295 2304 2526 1517 402 2 1411 2602 3004 3092 2898 3199 3240 2998 2579 2726 2738 2833 2951 2281 1571 2083 2685 3381 3487 4017 3513 3177 2481 1864
1837 1961 2215 2324 2357 2427 2402 2402 2197 2084 2151 2419 2321 2486 2460 2532 1196 556 17 1615 2093 2889 2997 2970 3002 3043 2510 2206 2591 2726 2966 3090 2486 2109 1746 1473 1126 687 368 1055 1293 1652 1501
2071 2133 2379 2531 2611 2690 2809 2824 2820 2466 2136 2003 2115 2396 2239 2773 1948 50 0 1601 2071 2022 2899 3132 2071 2018 2309 1805 2221 2600 3074 3148 3286 3570 3591 1779 581 800 15 8 744 966 1040
2078 2183 2717 2819 2899 3000 3114 3202 2839 2631 2832 2669 2494 2596 2474 2288 2423 683 0 1639 1986 2214 2294 2388 2550 1686 1241 781 494 2854 3192 3238 3201 3039 2990 3009 3130 3072 3307 3109 1558 1037 1557
3037 2941 3118 3159 2587 2569 3165 3028 2937 3163 3000 3135 3051 2973 2859 2858 1850 1264 0 50 1876 2498 2859 2960 3151 2443 1652 400 0 446 550 319 1661 1908 2225 2405 2453 2477 2809 2681 2302 1869 1260
3202 3315 3159 3136 2929 3356 3169 3201 2857 3061 2919 3036 3047 3095 3130 3242 3415 1507 179 0 1 1391 2782 2842 2525 2217 1588 423 0 16 0 0 219 709 1185 1387 1719 2247 2392 2059 2015 1289 1104
2995 3261 3299 3268 3058 3269 2930 3001 3016 3088 3125 3180 3257 3318 3375 3540 3684 3662 1950 315 14 32 223 1502 1804 1647 1527 1692 961 335 2 2 133 651 1223 1570 1521 1367 942 423 188 119 30
2231 2503 2646 2704 2815 3181 3287 1937 3191 3497 2745 3387 3518 3570 3638 3751 3722 3491 3641 3498 2415 1176 1350 1935 2019 2007 1839 1966 1543 1383 1572 841 619 930 1117 793 485 154 24 0 0 0 0
3255 2691 2139 2068 2194 2730 993 24 0 0 2 499 2364 3266 1243 519 1066 1175 1165 2078 2255 978 1023 1718 1648 1309 1147 948 647 482 457 209 338 175 174 42 0 0 0 0 0 2 3
1497 1211 2383 1813 1838 1995 1498 1206 190 0 1 2 3 27 358 6 2 2 2 2 2 95 842 333 19 3 0 0 32 110 160 20 1 1 5 3 0 0 0 3 6 4 3
1055 88 1830 2211 1979 1369 1426 1782 1208 834 618 0 0 0 0 2 0 0 0 22 5 0 71 0 2 1 3 38 13 10 10 26 7 6 10 9 6 4 8 14 13 3 5
773 1321 2212 1491 1034 1240 1550 1387 1369 568 43 1 1 0 0 1 0 0 0 114 5 4 7 6 10 12 9 11 9 10 9 10 7 7 3 17 11 9 12 13 5 0 0
538 11 444 137 159 544 713 675 560 429 90 13 5 8 5 0 0 3 3 5 8 4 5 5 5 5 7 5 5 6 5 6 14 13 16 22 24 31 30 23 21 3 2
357 77 2 132 0 1 1 2 5 5 3 3 3 0 0 2 2 1 0 0 1 4 6 4 5 5 5 4 5 3 2 2 3 3 2 2 9 24 23 24 19 6 9
132 117 21 17 6 2 1 2 2 2 2 2 1 0 0 0 0 1 1 2 3 4 4 7 5 3 5 4 5 3 3 2 2 1 3 4 5 8 19 19 15 12 16
2 1 1 0 1 0 0 1 0 0 1 0 0 0 0 1 2 2 3 3 3 3 3 3 2 1 1 1 1 1 1 2 2 2 2 2 2 4 9 21 19 21 13
3 2 1 0 1 1 1 1 0 0 1 2 3 3 4 3 3 2 1 1 0 1 0 0 0 1 0 0 0 0 0 0 1 2 4 0 0 2 4 10 7 5 16
0 0 0 1 0 0 1 1 1 0 0 0 0 0 0 0 0 0 0 0 0 0 0 0 0 0 0 0 0 0 0 0 0 0 0 2 0 0 0 0 7 0 0
1 0 1 0 0 0 0 0 1 0 0 0 0 0 0 0 0 0 0 0 0 0 0 0 0 0 0 0 0 0 0 0 0 0 0 2 1 0 0 0 0 0 2

GFSGL_con_sbcape_048.txt.gz
CAPE
1469 1710 1711 1429 1377 1615 1517 1629 1792 1766 1660 1930 1414 1365 1792 2232 2401 2644 2476 2122 2714 2755 2605 2343 2578 2674 1996 1423 1332 1232 1200 1055 933 612 491 693 1503 1714 1532 1449 1214 1196 852
1862 2306 1683 1770 1762 1350 1712 1629 1883 1967 1939 2036 1862 1740 1707 1867 2348 2690 2608 2041 2510 2636 2691 2695 2678 2323 2769 2751 2047 2328 1991 1964 1148 2492 1981 1095 2070 2081 1699 1671 1490 976 790
1443 1257 1224 1330 1349 1827 2022 1901 2143 2003 2151 1929 1965 2068 2007 1796 2288 2594 2655 2556 2449 2590 2737 2765 2842 2967 3074 2592 2431 2124 2082 2377 2613 2321 2176 1597 1460 1613 2029 2682 2192 2210 1347
1163 1172 1775 1623 1701 1582 2437 2457 1906 2442 2265 2220 2153 2122 2178 1877 1826 2270 2471 2643 2527 2552 2817 2846 2944 3174 3408 3523 3478 3381 3228 3097 2942 2402 1955 1545 1268 1815 1677 1709 1801 1798 1758
2055 1288 1994 2458 2441 2509 2778 2746 2336 2708 2456 2427 2413 2252 2235 1948 1534 2124 2096 2195 2558 2696 2774 3030 3108 2950 2756 2991 3297 4363 4345 3412 2539 2047 1878 1868 1894 1993 2645 2259 2474 2493 2824
2548 2185 2482 3012 3033 3057 3239 3339 3164 2898 2840 2617 2481 2417 2348 1931 991 835 1200 1818 2223 2658 2889 3018 3155 2635 2467 2123 1787 1642 1818 3646 4571 3164 2557 2531 4485 3655 2892 2723 2528 2547 3115
2795 2727 2952 3216 3288 3357 3383 3586 3478 3420 3005 2869 2606 2773 3171 3090 1462 514 559 1681 1767 2441 3083 2842 2604 2021 2463 2908 1462 1049 846 628 622 2504 3304 3594 4254 4132 4667 4500 4353 4176 4107
2997 3027 3188 3404 3253 3539 3631 3702 3858 3273 3453 3294 2894 3398 3600 3312 1968 914 29 1936 2324 2535 2769 2890 3409 3320 2891 2496 2865 2834 2926 3107 2764 2186 2675 2886 2862 3305 4272 4577 4500 3964 3568
2992 3226 3308 3405 3333 3362 3484 3638 3428 3243 3312 3209 2980 3532 3733 3773 1665 1135 137 1993 2185 3004 2849 3112 3563 3633 2840 2313 2801 3047 3087 2996 1952 1726 1900 2093 2091 1810 1544 2530 2325 2845 2822
2909 3154 3460 3571 3572 3592 3673 3728 3798 3347 3204 2877 2995 3378 2875 3425 2567 326 331 2202 2474 2150 3332 3928 2248 2155 2526 1998 2831 2780 3063 2803 3066 3651 4551 1625 651 2141 752 1223 2661 2371 2689
2214 2318 3058 3437 3822 3680 4051 4039 3914 3382 3378 3686 3376 3697 3685 3245 3236 772 0 2349 2139 2083 2022 1939 2161 1501 1641 1048 700 2813 3031 3219 3528 4127 4212 3974 3972 3834 3831 3510 1814 1448 2226
3111 3070 3566 3839 2883 2856 4149 3936 3781 3737 3843 3935 3691 3391 2969 3289 2370 856 0 213 2004 2470 2403 2227 3333 2655 1368 704 115 1098 1336 1047 2572 3088 3105 2680 2769 3058 2944 3168 3202 3139 3032
3139 3654 3438 3445 3355 3975 3969 3998 3463 3803 3320 3245 3226 3163 2979 3037 3460 1740 0 0 76 1525 2810 2927 1499 1592 1119 672 428 449 81 1767 1261 815 1242 1623 1961 1700 2488 2973 3421 3350 2190
3305 3579 3326 3350 3280 3314 3331 3380 3261 3239 3238 3137 3208 3240 3223 3361 3642 3958 2338 409 59 204 1016 2079 2669 2176 1419 1810 2626 1655 1230 668 731 1152 1060 1350 2067 2388 2484 1900 816 476 329
3164 3240 3366 3382 3293 3390 3290 1806 3181 3667 2250 3314 3323 3460 3571 3703 3823 3741 3868 4049 3322 2281 2714 3084 3132 3092 3212 3052 2885 2480 1906 1018 826 629 1368 1960 2411 1803 880 350 309 273 150
2530 2735 2927 2939 3255 3293 3445 1893 0 0 1 55 1029 2129 2609 1364 2206 3066 3091 2962 2789 1579 1957 3295 3228 3050 2652 2382 1898 1276 1198 836 1499 1409 1477 1255 740 325 297 194 92 74 127
2848 3544 2583 2448 2803 2330 2342 2225 1889 984 0 0 3 97 2045 811 43 300 384 60 185 893 2763 2396 1928 1404 647 485 475 558 791 819 635 451 400 346 330 267 67 163 155 152 92
2145 2179 3895 2677 2199 2056 558 62 42 443 1993 2786 0 0 2 3 3 3 0 254 493 658 769 387 181 115 157 210 269 378 472 437 221 123 174 260 315 266 179 125 85 15 6
1601 1331 1540 1339 1084 743 45 2 9 145 1985 2 1 0 0 1 0 0 0 1950 2724 1899 1179 761 517 199 60 2 3 7 9 9 7 4 9 77 5 4 20 11 4 0 0
911 141 296 978 1012 1851 2068 1766 1904 2037 586 82 6 1 0 0 130 318 426 172 16 2 3 3 2 2 3 3 4 3 6 8 7 5 6 12 18 22 16 18 13 17 14
974 816 200 135 154 246 1311 1843 2071 928 259 4 4 0 0 109 43 0 1 2 1 2 3 4 5 4 2 3 2 0 0 0 0 1 6 13 15 21 33 30 29 26 23
409 602 709 395 60 1 1 0 1 2 4 1 1 0 0 0 0 0 0 1 0 1 0 0 0 0 0 0 1 1 2 3 3 2 1 3 8 12 8 25 45 41 40
40 312 213 168 16 0 7 7 8 5 4 1 0 0 0 0 0 0 0 0 0 0 0 0 0 0 0 0 0 0 0 0 0 0 0 0 1 6 7 7 16 33 31
9 3 60 31 9 2 2 1 0 0 1 2 1 1 1 1 1 3 1 0 0 0 0 0 0 0 0 0 0 0 0 0 0 0 0 1 3 4 1 1 13 18 13
2 0 0 0 1 1 1 1 1 1 1 1 2 1 1 1 0 0 0 0 0 0 0 0 0 0 0 0 0 0 0 0 0 0 0 7 10 12 4 1 1 1 6
17 5 2 0 0 1 2 1 1 0 0 0 0 0 0 0 0 0 0 0 0 0 0 0 0 0 0 0 0 0 0 0 0 0 0 0 5 5 3 2 0 2 2

GFSGL_con_sbcape_051.txt.gz
CAPE
2347 2348 2005 1994 2142 2524 2859 3057 3072 2771 3157 2950 2433 2315 2322 2293 2936 3858 3620 2704 2769 3373 3074 2713 3094 3824 1961 1152 1176 1114 1063 1042 974 882 725 1361 2640 2980 2525 2321 1593 2213 1285
2041 2692 2326 2195 2141 2092 2457 2875 3291 3450 2907 3098 3081 2904 2621 2453 3352 3583 2795 2274 2751 2935 2947 3470 2614 2273 3862 3997 2491 3843 2216 2627 1399 2826 2038 1857 3103 3060 3237 3524 1858 1596 1614
1970 1926 2295 2079 2342 2095 2737 2721 3223 3449 3601 2322 3304 3539 3035 2723 3310 3596 3690 3175 2905 2934 3041 3461 3304 3565 4177 3011 3688 2414 1898 2674 2783 2511 2584 2336 2286 2055 2565 3579 3604 3139 2406
1278 1389 2189 2407 2444 2233 2556 3061 3126 3537 3717 3574 3761 3664 3241 2987 2868 2817 3280 3489 3450 2942 3319 3395 3527 3775 4255 4634 3870 4611 3837 3434 2768 2412 2352 2537 2348 2702 2362 2417 2748 2662 3025
1795 1665 2160 2647 2528 2676 2586 3199 3256 3579 3629 3930 3955 3740 3527 2637 1963 2839 3314 3494 3740 3385 3403 3418 3425 3333 2639 3528 3293 4160 4315 3825 2725 2554 2337 2148 2037 2230 3070 2902 2921 3304 3324
2258 1966 2160 2715 2756 2765 2826 3277 3643 3760 3838 3987 3941 3918 3638 2164 1290 921 1977 2906 3415 3728 3867 3965 3932 2664 2274 2239 2287 2324 2403 3664 4845 3257 2616 2571 3791 3442 3129 2874 2979 2769 3318
2836 2491 2717 3146 3153 3179 3211 3544 3763 3865 4080 4223 4114 4035 3977 3793 1517 509 545 1971 2823 3275 3679 4016 3471 2039 2768 3796 2070 1943 1623 1064 864 2992 3520 3617 3720 4134 4461 4427 3601 4171 4581
2949 3471 3000 3496 3449 3616 3706 3741 3914 3955 4008 4174 4275 4288 4216 4080 2344 833 27 2303 2444 2890 3581 3813 4108 3833 3813 3427 3877 3741 3663 3818 3257 2247 2914 3371 3939 4248 4491 4156 4683 4643 4239
3554 3548 3480 3582 3743 3927 3968 3992 4080 4111 4138 4173 4311 4440 4423 4283 2119 1321 95 2308 2358 3164 3359 3394 3507 3916 3559 2748 3352 3509 3755 3841 2075 1660 1553 1879 2222 1809 1108 2252 3173 3373 3413
3632 3526 3751 3725 3956 4004 4079 4207 4353 4268 4250 3707 4116 4362 4032 4562 3343 507 299 2290 2709 2433 3445 3840 2753 2554 2923 2272 3368 3923 3998 4105 3700 3557 3921 2752 1419 1999 1048 1114 2801 3001 3296
3374 3695 4015 3965 4135 4187 4331 4378 4417 4381 3702 4356 4199 4285 4371 4085 4384 1444 0 3083 2542 2359 2197 1930 2236 1718 1723 1401 1040 3450 3554 3519 3062 3809 4093 4514 4108 4468 4545 4391 3969 3353 3347
3622 3712 4061 4235 3789 3599 4467 4458 4488 4489 4468 4624 4512 4312 3722 4499 3252 628 0 460 2587 2904 2366 1332 1734 1173 634 516 94 1043 1603 1536 2521 2888 3237 3677 3669 3506 3181 3418 3588 3072 3867
3907 3935 4135 4282 4269 4213 4405 4555 4065 4443 3358 3537 3437 3160 2877 3116 3683 1947 0 0 462 1802 2491 1231 1533 1807 344 0 44 1234 901 2366 2834 3587 3562 3273 2596 2514 3061 2722 3172 4334 4019
4149 4092 4254 4222 4268 4206 3681 3740 3253 3162 3215 2913 2935 2661 2370 2267 2077 2842 1688 117 34 420 1494 2029 2285 1851 1844 2531 2624 272 2471 3342 3583 2844 1720 1756 2246 2127 2461 3233 2918 1695 693
4077 4137 3934 3618 3404 3952 3968 2808 3337 1051 1572 2920 2239 1834 1579 2063 1879 2164 3008 3276 2665 2150 2422 2753 2731 3044 3408 3827 3914 4204 4160 2880 1917 1454 1607 2124 1767 2995 3343 2542 931 576 553
3696 3336 3481 3036 3404 3548 1957 1136 0 143 1 3 3 465 2520 387 1710 1031 3030 2743 2788 2372 2540 3359 3646 3699 3661 3885 3679 3022 2157 1603 1578 1764 1983 2379 2458 1844 1173 685 523 426 476
3343 4075 3341 2895 3269 3721 3442 2749 2176 128 2 3 0 0 0 143 3 209 408 1170 1994 1715 3582 3539 4026 3670 2699 2213 1988 1682 1608 1677 1726 1499 1476 1252 1028 780 403 420 472 459 472
3347 2326 3304 3279 3445 3715 3669 3626 2817 2443 1690 1286 0 0 0 0 74 18 182 871 1770 2360 3150 2296 1553 986 533 437 431 551 836 1097 863 1038 704 554 438 485 519 502 399 332 177
3036 2988 3030 3434 3386 2879 2610 1771 1118 1075 1236 519 30 1 0 1 1 2 1 3251 2929 1859 1373 1131 871 503 504 526 409 293 263 161 154 137 81 130 198 148 142 71 20 0 0
1145 476 906 1160 955 979 1066 1205 637 550 425 481 86 14 0 0 29 129 615 853 2013 2655 1972 1035 486 185 69 58 9 10 4 4 6 11 7 24 21 9 14 8 13 18 24
694 614 608 1703 1559 1037 497 616 1448 1252 506 111 11 0 0 4 85 340 400 357 343 243 176 74 4 4 5 6 6 3 0 4 5 2 8 8 12 6 15 14 18 30 26
367 400 165 122 114 258 260 544 452 65 0 0 0 0 0 6 19 24 0 2 2 4 2 3 0 0 1 1 1 0 0 1 2 2 2 3 3 6 10 9 7 18 29
385 349 158 11 0 0 6 31 4 6 4 0 0 0 0 0 0 1 2 2 2 1 0 0 0 0 0 0 0 0 0 0 0 0 0 0 0 3 6 8 1 16 25
2 83 90 18 13 9 10 7 6 0 3 0 0 0 0 0 0 0 0 0 0 0 0 0 0 0 0 0 0 0 0 0 0 0 0 0 0 0 2 4 8 0 0
4 39 12 5 1 0 0 2 2 5 14 4 0 0 0 0 0 0 2 0 0 0 0 0 0 0 0 0 0 0 0 0 0 0 0 0 0 0 0 0 7 13 10
11 0 2 1 0 0 0 0 0 0 0 0 0 1 0 0 0 0 0 0 0 0 0 0 0 0 0 0 0 0 0 0 0 0 0 0 0 0 0 0 0 0 2

GFSGL_con_sbcape_054.txt.gz
CAPE
2123 1659 1501 1263 1185 998 1587 538 2529 1910 3855 3283 3613 3248 2900 2952 3459 3681 3107 2973 3143 3321 3534 3680 3518 3346 3147 3015 2695 2170 2130 2489 2043 1838 2408 2035 3101 3138 2018 2130 2394 2002 1690
2188 1804 1581 1615 1224 1139 644 2176 1973 3313 2782 4287 3302 3819 3032 3009 3089 3202 3196 2062 2772 3186 3287 3293 3562 3174 3727 3468 3176 3351 3564 3935 3157 2737 2646 2240 2197 2416 3055 3409 2735 1747 1643
2277 1914 1863 1650 1748 1662 1189 1175 2358 2180 3048 2535 3637 3050 3246 2682 2857 3185 3198 2892 2872 3219 3109 3417 3319 3643 3812 3620 3710 2901 2557 2946 2849 2804 2679 3224 3131 2913 2532 3605 3365 2450 2042
1953 2027 1992 1752 1659 1390 1862 1282 2126 2709 2522 2796 2762 3212 3106 2704 2534 2972 3272 3160 3005 2811 3377 3002 3438 3533 3580 3933 3563 3637 3691 3591 3153 3120 2615 2481 2615 2630 3343 3045 3114 3240 2691
1682 1753 2001 2214 1902 1685 1705 1943 1549 2086 2545 2854 2844 3113 3108 2845 2330 2499 2735 3191 3169 3102 3035 3253 3267 3409 3062 3517 3563 3781 3702 3725 3423 3259 3015 2918 2483 3094 2755 2701 2889 3071 2512
1521 1664 1893 2166 2090 2106 1799 2045 2206 2128 2561 2852 3060 3067 3275 2767 2065 1410 2084 2401 3261 3140 3100 3110 3545 2499 2119 2115 1883 2238 2429 3453 3340 3733 3555 3077 2860 2958 2943 2475 2601 2624 2582
1803 1791 1901 2309 2451 2165 2374 1919 2436 2329 2526 2847 3080 3255 3273 3198 1901 836 774 2043 2465 3005 3401 3275 3293 2712 2478 3179 1936 1234 1456 1478 1304 2362 2583 2558 2543 2652 3025 3304 3219 3254 3471
1977 2279 2047 2384 2385 2499 2294 2424 2131 2523 2550 2877 3142 3273 3424 3349 2566 712 59 1335 2131 2715 2895 2872 3191 3133 3092 3461 3412 3329 2655 2695 2253 1242 1554 2297 2824 3215 3561 3506 3473 3453 3291
2372 2372 2304 2224 2420 2405 2376 2355 2335 2675 2848 2888 3135 3417 3450 3497 2670 1701 3 979 1639 1947 2073 2275 3091 3549 2941 2449 2190 2513 2685 2971 2902 2666 2965 3090 2690 2254 1868 1369 1848 2169 3195
2375 2543 2829 2210 2706 2564 2542 2575 2650 2837 2980 3009 3127 3307 3348 3558 3003 1102 102 1820 1824 1910 2306 2571 2301 1963 2150 2140 2285 3264 3071 3006 3181 3247 3190 3183 2551 1549 1103 207 1730 2661 3064
2493 2780 2977 2880 2731 3071 3139 3107 3104 3238 3218 3306 3238 3357 3659 3534 3667 1094 0 2155 2210 2327 2260 2315 2608 2352 2012 1516 1259 2584 2780 3028 3341 3250 2976 3361 3974 4130 4366 3634 3395 3395 3260
3323 2850 3679 3587 2973 3346 3522 3649 3570 3543 3678 3616 3723 3757 3767 4011 3189 863 1 227 2353 2561 2478 2463 2280 1852 1022 729 49 542 1551 1324 2186 2439 2664 2877 3278 4113 3679 3264 3396 3078 3302
3794 3215 3605 3701 3731 3423 3774 3781 3831 3852 3758 3636 3715 3632 3672 3660 3825 2328 73 0 227 2045 2696 2001 913 1132 85 0 0 254 357 970 2192 2764 3039 3245 3828 3016 2590 3004 3287 2942 3000
3567 3681 3589 3948 3792 3537 3840 3786 3880 3805 3834 3734 3391 3566 3436 3526 3561 3803 424 0 0 67 1458 1899 1354 1780 2111 1913 869 12 1157 2657 3117 3333 3481 3149 2206 2332 2468 2465 2532 3045 2344
3926 3705 3573 3695 3430 3814 3499 3727 3797 3668 3404 3514 3361 3147 3445 3215 2911 2629 2686 1940 1553 1008 1800 2311 2571 2453 2404 3208 3743 3598 2675 3251 3287 2740 2195 1849 2087 2189 2213 2772 3083 2314 1290
3749 3693 3488 3568 3615 3744 3301 1740 0 481 53 771 1215 2679 786 295 354 124 492 2136 1752 1561 1758 2649 2740 2771 2752 3031 3480 3579 3159 2641 1919 1619 1679 1768 1856 2251 2395 2187 1412 826 872
3896 3632 3519 3242 3436 3553 3159 1851 645 0 1 2 8 913 1509 239 56 2 0 7 1085 407 2407 2408 2965 3511 3969 3419 3036 2183 1899 1815 1633 1633 1905 1779 1526 1547 742 1001 929 1163 1026
3261 2858 3418 3033 3066 3411 3110 2618 1663 976 1037 219 0 0 3 4 488 1093 434 687 638 1485 2674 3230 3213 2498 2059 1503 1182 973 932 1255 1379 1155 523 558 505 884 1050 936 655 447 209
956 1126 1679 2991 2902 3307 3299 3026 2948 2627 2724 1390 24 1 1 0 3 2 236 2529 2691 2720 1591 1122 729 545 376 519 422 598 508 219 110 338 220 98 217 249 217 230 100 0 0
170 249 760 1633 1980 2706 2887 2409 2654 1922 1558 720 553 160 2 2 123 227 159 208 374 1106 341 319 309 206 218 133 332 274 20 0 43 74 52 10 35 42 51 22 10 12 9
88 61 149 443 871 1015 1263 1242 1012 836 809 672 261 75 104 695 412 200 55 0 0 0 21 6 0 0 0 0 0 0 0 0 3 0 4 12 15 11 11 4 1 2 13
6 3 4 3 94 197 165 537 230 316 28 0 0 0 0 255 0 1 0 0 0 0 0 3 0 0 3 1 2 6 6 4 1 0 0 0 2 4 13 9 0 0 0
86 5 4 8 9 1 1 3 3 4 2 1 2 3 0 0 0 0 0 0 0 0 0 0 0 0 0 0 0 0 0 0 0 0 0 0 0 4 1 1 1 3 6
11 10 11 10 3 5 4 1 1 0 0 0 0 0 0 0 0 0 0 0 0 0 0 0 0 0 0 0 0 0 0 0 0 0 0 0 0 0 0 0 0 2 2
0 0 0 4 0 4 7 5 4 5 1 2 2 0 0 0 0 0 0 0 0 0 0 0 0 0 0 0 0 0 0 0 0 0 0 0 0 0 0 0 0 0 0
0 2 1 0 0 0 1 3 7 9 6 7 3 0 0 0 0 0 0 0 0 0 0 0 0 0 0 0 0 0 0 0 0 0 0 0 0 0 0 0 0 0 0

GFSGL_con_sbcape_057.txt.gz
CAPE
515 809 321 106 697 610 168 6 522 392 1753 1927 1931 2022 2111 2007 1829 1669 1396 1798 1437 1711 1770 1578 1735 1659 1506 1715 2365 1885 1157 962 873 621 1215 1163 1223 1275 1269 817 593 880 795
728 621 803 248 226 565 397 69 0 613 660 1857 1964 1846 1746 1709 1986 1911 1865 1770 1660 1868 1969 1733 1796 2154 1940 1604 2006 1882 2000 2072 1740 1234 1134 1136 1450 1635 1522 1486 1705 1982 1377
1067 713 845 671 136 368 149 317 15 735 548 1455 1720 1742 1760 1650 1598 1868 1879 1865 1666 1773 1908 2047 2008 1658 2196 2411 2019 1988 1842 1712 2233 1954 1915 1992 2302 2087 1905 1568 2130 2435 2015
1155 1189 911 749 660 78 122 1 740 283 1849 1404 2100 1609 1803 1422 1676 1723 1977 2033 1897 1747 2158 1968 2012 2269 2073 2235 2534 2448 2272 2316 2104 2060 2046 1896 1818 2095 2043 2240 2059 1885 2035
1223 1322 1167 914 661 630 204 143 0 1117 553 1430 1498 2090 1720 1858 1525 1573 2132 2081 2048 2034 1749 1946 2152 2105 2439 2461 2577 2604 2723 2655 2605 2609 2493 2290 2041 2010 2165 2246 1880 1463 1841
1271 1422 1327 1102 891 772 741 846 212 107 1461 1011 1247 1637 2087 2048 1943 1502 1539 2072 2200 2156 2183 1957 2210 2270 2094 2187 2255 2720 2863 2848 2929 2769 2521 2540 2151 1947 1979 1874 1741 2466 2323
857 1344 1360 1202 1191 909 835 715 1025 328 465 1497 1633 1728 1780 2102 2001 1500 927 1435 1496 2167 2182 2126 2102 2226 2205 2232 1998 1210 834 787 1132 1782 1785 1769 1803 1736 1852 2016 2308 2632 2621
924 1062 1285 1321 1324 1278 1106 843 942 1089 740 830 1423 1814 1880 1969 2190 1108 477 769 1328 1426 2197 2240 2179 2165 2097 1902 2014 2128 1667 1048 951 660 662 1480 1701 1822 1981 2256 2528 2698 2863
1012 1030 1268 1295 1355 1464 1176 1200 898 1195 1311 1113 1466 1768 2020 2101 1986 1415 35 39 787 1246 1548 1793 2050 2206 2196 2282 1754 2121 2318 2704 2804 2083 2023 1462 1341 1268 1509 1483 2335 2646 1902
244 1299 1237 1231 1493 1494 1419 1236 1425 976 1133 1515 1368 1700 2067 2151 2072 1049 19 898 377 697 982 1156 1718 2017 2453 2259 1494 1596 1418 1529 1622 1954 1842 1039 544 429 431 119 1328 1480 2084
1105 1448 1638 1309 1491 1544 1589 1461 1369 1462 1263 1365 1623 1648 2009 2133 2333 1066 8 1504 1302 851 887 1020 1341 1412 947 851 454 1276 1885 2184 2096 2318 2563 2370 2210 2783 2949 1272 897 1972 2349
1854 1660 1543 1636 1472 1696 1559 1586 1486 1473 1513 1533 1794 1885 1928 2283 2201 1405 73 80 1667 1405 1237 1278 1173 1477 1469 959 15 32 609 360 1691 1968 1866 1871 1953 2155 2811 2673 2539 2651 2762
2453 1871 2177 2314 1578 1843 1733 1703 1746 1766 1777 1934 1980 2101 2152 2258 2587 1558 233 0 9 1305 1616 1486 1610 1319 248 4 0 3 0 38 871 1333 1567 1854 2135 2495 2063 1997 2300 2597 2386
2422 2874 1945 2463 2187 1636 2280 2052 2170 2215 2222 2134 2275 2266 2377 2398 2616 2936 284 0 0 0 1154 864 313 366 522 1172 78 0 0 177 653 1214 1861 2181 1851 1773 1827 1874 2138 1835 2113
1770 2922 2514 2455 2270 2248 2440 2469 2514 2532 2486 2441 2407 2439 2397 2601 2477 2714 2581 1235 749 367 724 1188 630 685 1100 1195 1818 564 99 1166 1864 2468 2473 2191 1838 1717 1685 1826 1983 2040 1261
933 2284 2849 2350 2550 2660 2389 241 2 162 701 1924 2467 2565 2543 1055 2242 2350 1739 1467 1033 549 385 1527 1572 1733 1817 1644 1918 2603 1678 1556 2233 2186 1898 1711 1642 1557 1525 1749 1457 61 34
405 1874 2833 2408 2618 2705 2621 1791 877 1 2 2 1 960 1235 1166 23 0 0 44 6 0 1355 1676 1841 1833 1906 1709 1587 2103 2435 2166 1707 1626 1370 1276 1406 1519 1288 246 109 73 25
28 852 2417 2438 2435 2685 2743 2310 1424 234 450 93 1 0 3 2 2 3 0 0 0 508 1348 1526 1788 1615 1449 1597 1590 1510 1211 1178 1039 985 721 409 190 242 130 8 0 0 0
8 344 1348 1722 2405 2578 2689 1949 705 582 611 300 0 1 1 1 2 82 529 764 844 1022 574 235 195 137 126 121 52 31 99 100 195 75 16 6 4 0 0 0 0 0 0
2 95 235 1450 1705 1904 2389 2124 919 969 895 147 169 24 1 1 278 389 244 850 811 344 186 143 96 75 26 30 9 0 0 0 0 1 0 0 0 0 0 0 0 0 0
3 2 59 342 649 1223 1085 546 1272 1297 538 272 105 1 1 284 165 86 59 4 120 135 106 77 18 5 0 0 0 0 0 0 0 0 0 0 0 0 0 0 0 0 0
4 3 0 1 1 0 1 12 2 1 2 1 1 1 1 44 0 0 0 1 1 0 0 0 1 0 0 0 0 0 0 0 0 0 0 0 0 0 0 0 0 0 0
9 4 3 2 2 1 2 3 1 0 0 0 1 0 0 0 0 0 0 0 0 0 0 0 0 0 0 0 0 0 0 0 0 0 0 0 0 0 0 0 0 0 0
14 6 9 3 2 2 6 6 5 3 3 0 0 0 0 0 0 0 0 0 0 0 0 0 0 0 0 0 0 0 0 0 0 0 0 0 0 0 0 0 0 0 0
0 0 2 5 7 6 1 4 4 7 6 4 3 0 0 0 0 0 0 0 0 0 0 0 0 0 0 0 0 0 0 0 0 0 0 0 0 0 0 0 0 0 0
0 0 0 0 0 1 1 3 1 0 1 1 0 0 0 0 0 0 0 0 0 0 0 0 0 0 0 0 0 0 0 0 0 0 0 0 0 0 0 0 0 0 0

GFSGL_con_sbcape_063.txt.gz
CAPE
85 63 7 4 195 76 0 0 51 323 462 514 1005 941 785 883 885 903 732 507 830 770 653 935 919 782 874 723 899 974 664 72 369 314 6 566 714 627 1080 1020 1088 1073 921
95 71 0 0 0 251 19 0 0 0 2 209 562 1031 886 907 851 949 1097 1076 687 825 868 835 1029 943 1225 910 798 1047 858 574 655 864 337 856 1033 1272 1204 1472 1402 1472 1615
194 135 43 0 0 0 154 75 0 0 0 269 609 996 913 907 1006 812 831 1016 1002 957 1020 963 948 1079 1285 1150 1049 1143 1114 1153 801 1066 1649 981 1181 998 1480 1286 1352 1452 1183
125 301 224 84 0 0 0 46 42 0 0 0 870 1139 1143 986 1059 1116 991 885 878 941 986 1040 1194 1226 1189 1038 1047 1463 1396 1499 1328 1179 1009 983 1086 1360 1208 1620 1852 1171 1083
35 161 307 267 105 0 0 0 0 0 0 0 73 1091 1112 1140 1172 1115 1200 1137 1066 976 986 1039 1141 1266 1396 1380 1239 1176 1239 1361 1372 1401 1430 1416 1629 1779 2036 1361 1269 1006 974
152 108 212 292 299 93 0 0 0 0 0 0 0 56 974 1210 1236 1129 1144 1120 1029 1027 961 880 1029 1371 1273 1208 936 1299 1786 1609 1556 1527 1642 1864 1795 1610 1120 1049 918 1063 1529
325 227 224 263 312 433 186 0 0 0 0 0 4 132 200 727 1156 797 344 901 835 919 993 1018 1009 1321 1246 1268 1313 923 307 298 1110 1861 1881 1811 1771 1296 939 971 936 969 1227
524 508 451 466 306 416 475 208 0 0 0 0 0 24 385 538 748 534 130 615 984 937 1028 1091 1134 1231 1310 1373 1411 1429 1286 1106 582 171 669 1538 1425 1296 905 1085 1203 1186 1321
49 287 736 721 713 465 499 478 348 53 0 0 0 0 4 250 580 321 0 367 715 826 787 916 1284 1376 1401 1266 1273 1355 1300 1251 1282 1009 534 552 439 529 162 765 1084 1266 1727
53 12 8 417 952 910 728 561 494 384 217 85 1 0 0 134 107 59 0 743 850 923 958 735 650 1046 1269 1150 592 1119 1273 1442 1308 1029 653 255 33 53 1 61 848 1481 1671
19 11 0 4 12 928 988 766 617 548 532 513 461 84 0 221 576 0 0 713 858 853 843 859 805 665 371 547 69 1194 1282 1395 1141 703 646 650 911 1203 1297 294 253 947 1248
431 21 2 2 45 153 379 1028 845 680 536 564 569 607 490 184 238 127 0 22 797 933 892 781 694 674 295 4 0 17 535 246 219 563 742 802 852 925 1112 1322 1380 558 846
5 29 211 427 41 49 274 649 1149 1055 904 790 703 710 787 764 611 70 0 0 1 580 1058 1064 900 558 167 0 0 0 0 0 6 4 201 361 591 800 875 1132 1616 1744 1621
1 5 3 18 400 1077 898 739 779 1200 1193 1093 983 874 781 918 1020 933 18 0 1 0 184 538 563 125 16 23 1 0 0 0 0 13 212 415 412 618 889 1189 1838 1608 1522
0 1 0 2 181 1052 1196 1000 1064 1164 1215 1207 1162 1105 917 843 937 1148 1213 760 335 117 257 361 904 214 456 138 29 33 0 0 0 0 17 118 318 564 937 1280 1480 1251 1464
0 0 0 2 2 171 1312 978 1 236 829 771 864 1113 1179 949 986 916 884 1032 799 343 14 899 815 948 1028 1006 883 571 170 0 0 8 45 191 441 913 1238 834 986 1127 1129
0 0 0 0 2 13 613 1686 1219 79 2 1 0 76 255 1167 617 799 336 227 18 2 991 1106 1081 970 939 831 885 784 836 498 229 270 500 742 934 1057 669 524 455 149 25
0 0 0 0 1 4 210 1330 1914 1372 1222 728 43 1 0 36 261 509 69 1 8 1 843 1498 1086 1009 898 902 834 944 926 1051 796 728 865 863 647 588 228 296 178 48 1
0 1 2 2 4 7 37 668 2013 1788 1635 1362 230 1 1 2 1 2 0 698 688 289 106 852 1121 980 1043 986 949 936 912 954 1119 874 551 515 252 103 21 0 0 0 0
0 0 1 2 1 5 0 428 1772 2136 1801 1666 887 661 1 0 45 29 0 19 801 817 722 364 686 673 682 749 350 351 294 184 177 146 0 0 0 0 0 0 0 0 0
1 2 1 3 2 4 14 571 1679 1652 1460 1403 1019 261 0 74 652 945 213 85 149 98 138 281 128 15 1 1 1 1 1 1 0 0 0 0 0 0 0 0 0 0 0
5 0 2 1 5 11 122 673 1327 1268 1126 795 31 1 1 27 94 16 1 1 1 1 1 1 0 3 1 1 0 0 0 1 0 0 0 0 0 0 0 0 0 0 0
4 1 3 3 1 0 46 397 648 919 419 28 0 0 0 0 0 0 0 1 1 5 2 2 5 1 2 1 0 0 0 0 0 0 0 0 0 0 0 0 0 0 0
2 3 2 1 1 0 0 0 3 15 7 0 1 0 0 0 1 1 2 3 2 4 12 0 0 0 0 0 0 0 0 0 0 0 0 0 0 0 0 0 0 0 0
3 3 3 4 2 1 1 0 0 0 0 0 0 0 0 0 0 1 0 0 0 2 0 0 0 0 0 0 0 0 0 0 0 0 0 0 0 0 0 0 0 0 0
4 3 3 3 3 3 1 0 0 0 0 1 0 1 0 1 0 1 2 1 2 0 0 0 0 0 0 0 0 0 0 0 0 0 0 0 0 0 0 0 0 0 0

GFSGL_con_sbcape_066.txt.gz
CAPE
78 59 19 0 0 0 0 0 208 325 439 637 981 949 888 863 1069 852 796 721 759 760 707 1159 1295 1032 1107 1097 1159 1341 1049 297 1097 1329 307 1098 1556 2005 2297 2117 2137 2307 2320
41 57 15 18 36 0 0 0 0 150 278 651 699 1005 929 897 749 1093 1036 1143 812 908 1071 908 1175 1113 1238 1322 1208 1399 1400 1083 1195 1552 1127 1649 1914 1977 1930 2260 2200 2230 2013
11 56 10 0 0 108 49 0 0 0 0 93 409 755 1037 1036 1039 1053 1152 1267 1225 1036 1040 1105 1231 1171 1531 1557 1539 1542 1470 1449 1296 1466 2111 1635 1708 1648 2165 2328 2295 2295 1785
21 18 8 3 0 0 17 25 0 0 0 0 233 549 895 976 1065 1147 1034 1119 1201 1215 1233 1252 1372 1359 1457 1590 1436 1636 1747 1839 1807 1791 1681 1604 1610 2057 1853 2153 2490 2011 1878
78 107 50 2 0 0 0 0 32 0 0 0 8 496 947 1075 974 1165 1220 1139 1110 1146 1244 1223 1221 1243 1086 1385 1701 1911 1622 1640 1788 1910 1946 1868 2045 2223 2421 2192 1867 1693 1890
46 97 269 180 59 0 0 0 0 22 0 0 0 71 594 927 1102 865 990 1320 1309 1311 1318 1265 1376 956 883 775 653 823 1518 2138 2257 2023 2261 2183 2530 2082 2130 1928 1656 1828 2280
101 121 125 301 289 209 24 0 0 0 5 0 0 0 163 481 561 719 311 1242 1257 1296 1374 1383 1146 1125 916 1447 1055 397 17 96 721 2193 2287 2444 2495 2452 1958 1927 1549 1519 1873
60 248 182 175 275 321 300 27 0 0 0 3 8 3 2 73 156 74 28 737 1118 1028 1088 1142 1199 1352 1317 1372 1498 1681 1756 1680 948 404 966 1893 2242 2332 1832 1925 1619 1575 1609
75 120 502 296 260 277 369 430 175 0 0 0 0 1 37 62 0 0 0 382 682 983 995 1115 1236 1325 1057 663 1475 1732 1843 1834 1297 864 670 693 675 597 346 1029 1418 1658 2113
61 66 33 119 647 500 283 401 417 322 85 2 9 0 0 18 0 0 0 189 284 480 861 953 477 1034 1009 569 868 1619 1667 1682 1708 1617 1188 308 56 87 0 162 1206 1859 2326
214 92 12 4 35 789 813 561 571 545 507 297 150 90 0 0 9 0 0 273 358 309 485 757 1037 139 105 118 42 1359 1363 1495 1391 1277 1539 1297 1172 1191 1457 211 491 1517 2245
3 2 13 8 5 131 392 992 769 619 546 567 509 429 284 18 0 0 0 4 322 450 428 602 744 454 83 0 0 5 298 72 826 1221 1234 1261 1428 1623 1452 1487 1652 1144 1779
0 0 1 2 102 89 137 207 991 942 830 746 710 699 769 733 226 0 0 0 0 249 590 413 406 440 206 0 0 0 0 0 172 561 754 889 1106 1158 1171 1199 1488 1772 1682
0 0 0 2 3 37 376 192 195 865 1045 1022 905 873 815 830 867 742 2 0 0 0 15 273 338 22 0 126 0 0 0 1 100 290 547 630 737 681 952 1200 1362 1931 2040
0 0 2 3 6 2 202 602 674 338 754 1166 1136 1105 1011 934 961 877 605 186 26 5 34 325 742 739 734 729 277 204 78 2 3 42 206 464 630 855 985 1013 1583 2170 2280
1 1 1 2 2 6 6 74 456 269 95 37 858 1114 1219 903 707 562 545 215 156 0 1 531 590 704 810 752 908 1159 649 49 224 289 232 396 600 720 1026 1352 1576 1684 1799
0 2 1 1 2 3 6 6 69 393 2 2 0 3 457 1131 461 408 251 0 6 1 658 803 844 932 789 800 1037 1062 1293 879 589 486 544 593 668 950 736 1508 1190 1364 1583
2 2 3 2 1 3 2 6 53 259 1143 1000 38 1 0 0 58 158 0 1 0 1 710 1078 1258 1186 1141 893 856 860 1159 1206 939 695 716 944 923 932 1125 1237 1295 1311 1282
5 6 3 0 1 2 6 5 5 4 206 1379 910 1 1 2 1 1 2 431 615 625 90 792 1276 1581 1131 907 874 1034 1132 1181 1046 1024 920 1197 1134 1181 1367 1203 707 189 98
6 8 3 1 0 0 7 8 6 12 149 1070 1759 1422 0 1 1 0 0 6 850 1152 1102 517 814 1203 1279 1027 1001 1000 1078 927 879 1005 1055 653 167 51 38 0 8 36 2
7 3 0 0 0 0 0 7 5 12 108 967 1407 1696 80 246 586 534 356 27 217 870 1316 1282 778 835 983 975 987 833 688 695 506 172 3 1 1 1 0 0 2 8 0
7 9 6 0 0 0 0 8 4 9 104 568 1370 1448 28 257 758 931 979 764 412 350 412 468 313 439 381 333 265 171 79 0 1 0 0 0 1 0 6 1 1 0 0
13 7 3 3 0 0 1 0 17 16 67 472 1218 574 1 57 69 1 0 1 1 1 1 1 1 0 1 0 1 0 0 0 0 0 0 1 2 2 1 1 0 0 0
11 9 4 5 0 0 0 1 7 4 24 351 478 65 1 0 0 1 1 1 1 1 1 0 0 0 0 0 0 0 0 0 0 0 0 0 0 0 0 0 0 0 0
3 3 4 3 2 2 2 2 1 1 1 1 0 0 0 1 1 1 1 1 1 1 0 0 0 0 4 3 0 0 0 0 0 0 0 0 0 0 0 0 0 0 0
4 3 3 2 2 3 2 1 1 1 0 0 1 1 1 1 1 1 2 1 0 0 0 0 0 0 1 2 0 0 0 0 0 0 0 0 0 0 0 0 0 0 0

GFSGL_con_sbcape_069.txt.gz
CAPE
591 900 789 629 617 814 862 1244 1572 1684 1791 1922 2067 2085 2279 2256 2356 2320 2108 1938 2127 2076 2008 2099 2244 2439 1654 1719 2079 2199 2152 2005 1970 1826 2170 2432 3156 3246 3047 3265 3105 3013 2161
802 1069 816 900 676 578 690 816 1328 1645 1730 2003 2066 2222 2354 2287 2343 2425 2296 1868 2012 2062 2017 2071 1913 2018 2632 2570 2271 2753 2440 2591 2320 2428 2525 2483 2910 3127 3337 3522 2925 2287 2944
518 560 746 749 751 740 812 726 876 1186 1596 1611 2152 2298 2389 2390 2456 2412 2378 2335 2279 2029 1998 2172 2127 2281 2508 2210 2639 2560 2438 2723 2826 2689 2534 2497 2663 2655 2972 2743 3123 3263 2476
415 336 630 578 780 865 1340 1055 798 1085 1121 1304 1621 1928 2323 2436 2434 2400 2437 2484 2468 2269 2194 2147 2175 2294 2534 2830 2637 2800 2736 2740 2602 2822 2321 2367 2366 2665 2952 2710 2383 2344 2661
555 587 620 863 795 500 758 1435 1121 946 1078 1175 1143 1272 1525 1639 1670 2190 2370 2371 2354 2373 2305 2247 2150 2017 1830 1962 2082 2377 2697 2871 2460 2310 2223 2176 2137 2103 2218 2494 2489 2646 2921
213 664 912 1203 1202 1141 1070 1005 1412 1179 1057 1165 998 1053 1170 935 478 853 1625 2183 2329 2353 2397 2357 2285 1430 1169 817 624 886 1394 2688 2851 2527 2049 2124 2556 2689 2406 2446 2526 2589 2019
239 215 644 1021 1174 1335 1011 1095 1315 1310 1386 1256 1015 1125 1398 1557 475 238 404 1548 2134 2490 2519 2436 2243 1747 1759 2253 1009 131 93 48 581 2378 2541 2345 2527 2466 2846 2902 2832 2930 2438
614 233 466 830 954 1170 1062 1144 1274 1062 1303 1374 1126 1209 1336 1209 432 4 0 1314 2078 2033 2242 2508 2516 2386 2259 2099 2206 2162 2171 2169 1778 1281 1880 2340 2619 2855 3052 2933 3068 2901 2495
90 532 774 805 880 934 1085 1469 1158 912 977 988 993 1197 1221 1236 73 0 0 927 1221 2222 2160 2195 2513 2451 2174 1310 1888 2129 2225 2252 1425 1574 1507 1582 1495 1105 1176 2086 2163 1905 1509
2 74 229 659 464 1256 1096 1188 1249 1230 980 817 723 861 721 1257 488 0 0 295 792 864 1696 2303 1098 1482 1554 840 1409 1964 2185 2071 1777 1692 1986 714 125 788 0 935 1963 1934 1564
0 75 22 48 402 365 605 1576 1317 1299 1335 1298 1025 1069 1062 794 939 0 0 455 578 806 636 635 680 200 132 61 65 2263 2293 1878 1229 1782 1794 1859 1964 2158 2243 1379 1697 1998 1712
0 7 0 6 40 255 537 424 1635 1825 1864 1679 1673 1320 1057 1152 189 76 0 0 336 850 1224 928 887 354 0 0 0 228 971 746 1250 960 968 1426 1564 1612 1686 1997 2679 2528 2137
0 9 2 0 10 40 438 611 681 965 1674 1893 1603 1488 1563 1491 1270 0 0 0 0 386 941 933 637 334 0 0 0 0 0 399 911 940 921 1026 1262 1470 1956 2014 2075 2268 2541
0 9 3 0 4 10 37 214 474 573 976 1394 1668 1644 1633 1701 1673 1555 295 3 0 0 13 401 496 255 194 526 360 8 22 725 852 880 828 929 1247 1530 1578 1614 1624 1915 2198
3 7 18 0 1 9 5 21 412 836 695 693 1187 1525 1455 1667 1603 1365 1410 1225 589 107 125 498 863 980 1057 1093 1102 1216 1286 1009 878 1070 1209 1215 1372 1558 1657 1772 1903 2069 2075
17 9 14 7 2 7 6 0 0 0 17 149 101 162 1234 1140 1018 859 656 597 210 18 156 1074 1360 1239 1102 977 1209 1409 1380 1112 1276 1121 1165 1218 1342 1530 1742 1985 2077 2073 2081
22 33 19 11 8 7 5 8 2 0 20 24 3 2 0 52 45 312 20 0 0 1 710 1247 1401 1457 1296 1076 1299 1484 1457 1384 1954 1210 1107 1177 1351 1491 1676 1958 2131 2238 2171
24 15 25 16 8 6 8 13 9 5 1 50 15 1 4 2 1 1 0 0 9 1 1019 1336 1674 1354 1300 1577 1510 1344 1410 1714 1894 1665 1312 1252 1383 1530 1683 1964 2093 2267 2210
23 12 9 12 6 5 9 11 17 5 0 4 34 70 42 2 1 1 1 290 931 1214 182 986 1435 1761 1785 1965 1945 1867 1782 1050 1070 1553 1606 1583 1749 2111 2105 2102 2155 1629 1875
21 19 12 6 8 14 9 10 14 9 0 0 26 183 887 2 3 3 4 3 1014 1781 2011 1380 1264 1838 1702 1791 1914 1854 2041 1130 998 1233 1375 1414 1342 1601 1723 1909 1855 281 126
18 14 9 26 22 14 2 1 9 20 10 4 12 116 812 185 513 274 126 85 661 1669 2129 2306 2077 1819 1985 2259 1989 1675 1506 1392 1095 1065 1167 1259 1237 1047 1098 549 214 219 444
27 22 19 7 6 9 13 14 7 10 21 19 5 13 323 33 1092 1758 951 498 528 1097 1637 2331 2335 1977 1613 1557 1698 1634 1281 1185 1134 835 724 320 155 125 47 49 190 313 235
28 20 15 16 13 8 15 17 13 4 7 22 65 97 369 41 674 1225 351 2 2 1 4 3 55 2 1 1 0 57 720 748 344 120 81 49 27 45 124 234 199 101 87
22 18 19 14 18 14 10 13 13 5 7 23 61 175 330 81 0 0 1 2 3 5 6 4 1 1 1 0 0 0 0 0 0 0 1 44 114 67 99 55 20 10 10
14 15 15 20 14 11 10 3 3 3 0 3 3 8 1 1 1 1 2 3 3 3 2 6 7 0 0 0 0 0 0 0 0 0 0 1 0 0 0 5 0 0 0
14 9 9 9 9 8 4 3 3 3 4 2 2 2 1 1 2 2 2 2 2 3 3 4 3 1 1 1 0 0 0 0 0 0 0 0 0 0 0 0 0 0 0

GFSGL_con_sbcape_072.txt.gz
CAPE
1610 1567 1563 1548 1579 1767 1685 1730 1784 1522 1653 2127 2219 2316 2188 1921 2210 2768 2080 1686 2362 2063 1669 1754 2273 2198 1569 1303 1571 1615 1641 1626 1455 1391 1917 2236 3363 3351 3262 3184 2469 2161 1336
1439 1634 1627 1673 1531 1350 1610 1563 1624 1719 1709 2158 2562 2368 2460 2174 2516 2576 2086 1656 1880 1929 2138 1962 1977 1626 2485 2364 1837 2024 1843 1869 1862 2018 2470 2281 2659 2941 2968 3317 2617 1972 2348
1229 1333 1405 1404 1419 1431 1361 1544 1506 1593 1732 1837 2121 2494 2403 2333 2771 2804 2255 2044 2262 2152 2150 2106 2212 2024 2145 1667 2197 1644 1768 2119 2240 2218 2083 1960 2161 2518 2645 3285 2595 2628 1817
1098 1128 1268 1256 1276 1417 1499 1538 1509 1616 1649 1755 1978 2189 2280 1790 2225 2486 2677 2293 2218 2118 2437 2370 2129 2144 2418 2685 2522 2708 2637 2359 2498 2114 1955 1827 1854 2050 2499 2019 1603 1536 2006
927 1199 1205 1312 1370 1402 1542 1787 1723 1648 1622 1621 1624 1765 2043 2112 1563 2156 2626 2517 2636 2535 2603 2718 2425 1761 1699 2076 2362 3127 3285 2615 1947 1707 1714 1761 1728 1693 2365 1489 1625 1433 2279
754 799 1089 1500 1574 1598 1592 1538 1796 1888 1869 1761 1636 1439 1436 1282 928 1063 1782 2514 2531 2586 2576 2790 2712 1709 1546 1596 1483 1284 1231 2655 2767 2368 1812 2029 3136 2439 1972 1487 1576 1314 1528
0 727 885 1125 1572 1695 1779 1788 1704 1626 2045 2299 1862 1772 1957 1830 495 180 725 1475 1744 2156 2442 2407 2478 1953 2019 2349 885 546 313 261 527 2176 2537 2655 2934 2377 2646 2609 3248 2330 2193
0 12 529 710 1050 1545 2168 1931 1868 1812 1854 1994 2169 2489 2469 2060 727 177 0 1299 1796 2266 2183 2238 2856 2821 2213 2185 2338 2123 2271 2226 1934 1609 1878 2058 2564 2634 3237 3048 3281 3169 2414
0 0 35 39 1082 1209 1397 2062 1969 2043 1921 1759 1772 2302 2576 2563 669 273 0 1055 1059 2086 2333 2662 2908 3077 2360 1493 2192 2188 2332 2221 1130 1543 1620 1536 1220 1322 1272 1619 1259 936 646
0 0 0 71 94 548 1279 2072 2548 2165 2021 1764 1765 1856 1518 2258 1457 32 0 787 1178 690 1653 2514 1599 1742 1947 1337 2460 2576 2590 1988 1318 1186 1769 1175 495 1373 342 1282 1682 1105 501
0 0 0 1 24 5 409 1746 1843 2300 2563 2397 2111 2148 1947 1808 1781 35 0 894 839 880 731 461 484 344 616 251 339 2835 2430 1442 778 1133 983 905 1049 1517 2319 2066 2220 1893 785
0 0 0 0 1 0 37 41 1006 2297 2528 2487 2815 2167 2021 2134 1089 675 0 7 602 1113 1461 989 1208 510 0 0 0 437 823 580 454 47 49 98 152 368 589 1278 3422 3248 2300
0 0 0 0 0 2 12 38 48 997 1547 2451 2865 1990 1926 1984 2204 856 0 0 0 146 1067 1153 875 71 0 0 0 1 0 580 489 59 94 65 77 63 1429 2199 2918 4367 3763
3 1 0 0 0 0 0 0 0 11 436 958 1511 2495 2636 1974 2150 2301 1158 105 0 0 17 44 510 642 504 714 577 28 91 629 539 458 202 97 182 71 161 568 1071 1191 1491
8 1 0 0 0 0 0 0 0 0 53 358 1230 1661 1910 1832 1849 1866 1771 2328 2003 723 437 930 1190 1194 1285 1361 1182 998 1027 844 747 796 816 704 474 184 173 428 707 997 1041
16 7 0 0 0 0 0 0 0 0 0 0 0 0 577 779 261 72 548 643 599 155 680 1114 1540 1682 1683 1650 1414 1203 1188 957 1311 1255 1106 946 817 550 340 456 692 924 1079
12 28 19 11 13 3 0 0 0 0 0 0 0 0 0 15 57 0 0 2 13 0 839 1507 1776 1786 1970 1975 1955 1775 1566 1339 1880 1224 1141 1057 788 726 517 564 646 1068 1801
26 7 25 19 11 19 25 9 1 0 0 0 0 0 0 1 1 2 1 2 91 0 746 1189 1560 2030 2269 2671 2139 2194 2067 2019 1953 1789 1632 1444 1231 960 861 878 904 1392 1446
46 24 8 19 26 15 20 21 13 7 3 0 0 0 0 0 2 0 0 4 954 1183 993 1163 1229 1779 2264 2288 2313 2545 2676 2559 2293 2302 2234 2015 1777 1492 1317 1233 1113 732 1095
27 21 28 24 22 23 28 25 22 18 6 0 0 0 0 3 257 565 4 5 397 1467 1753 1773 1841 1800 2081 2673 2810 2888 2806 2764 2428 2289 2465 2394 2097 2321 2298 2116 1968 1943 2062
29 30 16 18 27 19 27 26 26 22 21 5 0 0 0 2 133 508 1401 223 412 1144 1870 2303 2315 2463 2456 2627 2723 2695 2727 2757 2369 2247 2254 2217 2087 1558 1482 1595 1711 1891 2205
37 34 41 31 27 22 23 19 10 20 28 17 3 1 0 5 0 18 250 1369 1177 800 753 1847 2655 2433 2646 2893 2663 2693 2996 2723 2536 2176 1943 1866 1728 1417 1354 1284 1297 1028 994
42 38 41 32 29 24 25 25 17 13 12 21 15 8 5 23 45 121 310 758 474 290 3 1 37 630 55 2 2 96 895 2218 2407 2001 1503 1450 1022 911 566 420 421 398 499
44 37 35 34 39 39 27 20 19 5 9 24 23 21 15 19 19 259 75 2 2 2 2 2 2 1 1 1 0 0 0 1 1 33 613 508 360 164 274 230 215 349 592
21 29 29 26 25 24 22 21 24 24 33 32 24 26 31 7 1 1 2 2 2 2 1 2 2 0 0 0 0 0 1 2 0 0 1 0 0 1 29 98 151 0 21
11 11 24 27 22 21 20 16 15 18 22 29 33 23 16 1 1 2 2 3 2 2 2 1 2 1 0 0 1 0 0 1 0 0 0 0 0 0 0 0 0 1 0

GFSGL_con_sbcape_075.txt.gz
CAPE
1988 1999 2109 2099 2163 2277 1847 1771 1909 1588 1752 1735 2864 2198 2143 1980 1936 2756 3138 2086 1944 2309 2656 1692 2683 3725 1803 1063 957 1109 1301 1434 1409 1290 1724 2904 3273 4061 3525 3928 3042 3574 2277
1734 2399 1951 2030 2103 1980 2193 2029 2325 2458 1825 2050 2121 2199 2248 2192 2502 2685 2136 1509 1978 1999 2268 2885 1770 1691 3670 3615 1931 3773 2436 3225 1927 3909 2786 1738 3568 3571 4577 4833 3053 1959 2448
1625 1563 1828 1846 1952 2001 2073 2101 2704 2557 2298 1505 2247 2553 2055 2101 2900 2758 2816 2196 2047 1939 2014 2429 2310 2814 3235 2406 2974 1985 1812 2267 2424 2065 2265 1880 1893 2083 2885 4012 4501 3705 2635
1074 1321 1656 1841 1877 1857 2308 2750 2044 2923 2599 2451 2408 2850 2526 1935 2065 2358 2781 2666 2636 2386 2361 2565 2463 2686 3355 3728 2859 3779 2931 2790 2348 1676 1510 1595 1812 2656 2181 2232 1937 1391 1546
216 1187 1760 1709 2046 1774 2240 2894 2595 2847 2764 2648 2670 2765 2404 2123 1505 2798 2687 2676 2814 2896 2912 2602 2999 2256 1712 2464 2186 3288 3626 3162 1784 1492 1388 1427 1471 1695 2956 2335 1919 1783 2559
0 150 1341 1479 1827 2315 2297 2282 2810 3027 3201 3276 2544 2659 2666 1419 855 875 1732 2822 3262 3564 3659 3784 3684 1739 1496 1184 1345 1482 1549 3063 4449 2496 1924 2012 4356 2934 1811 1695 1688 1354 1179
0 0 14 565 1545 1633 2404 2471 2712 2734 3027 3600 3194 2843 3115 2970 1033 183 757 1622 2709 3355 3268 3788 2801 1580 2196 2894 1265 1161 1109 663 344 2583 3413 3319 3354 3586 3681 4073 3042 3119 2295
0 0 0 0 113 847 1985 1945 2373 2610 2612 2996 2997 3528 3591 3104 1548 522 30 2208 2387 2611 2981 3396 3547 3490 3401 3197 3183 2808 2572 2586 2349 1377 1898 2509 2998 3399 3628 3334 4037 4392 3110
0 0 0 0 0 27 81 1275 2609 2367 2242 2243 2547 3291 3621 3618 1795 850 0 1263 1424 2375 2660 2655 2982 3537 3015 2164 2677 3520 3464 3465 1274 1632 1751 1938 1856 1340 1137 1622 1386 998 660
0 0 0 0 0 9 22 0 832 2333 2165 1960 2321 2564 2469 3268 2538 1463 0 1389 1545 1581 1995 2361 1387 1624 2119 2047 2757 3149 3217 3204 3319 1990 1783 894 325 1117 493 1005 1641 1574 954
0 0 0 0 0 0 2 0 66 629 2011 2264 2031 2527 2968 2692 3073 1291 15 1671 1737 1608 1515 1511 1429 732 550 605 417 3074 3012 3180 2688 2256 1817 1248 1069 1926 2350 2381 2833 2241 1414
0 0 0 0 0 0 0 0 1 71 424 2001 2668 2532 2896 2797 1916 1591 24 39 1516 1726 1844 1443 1528 585 0 0 0 514 1024 1291 1968 1609 939 463 363 589 452 750 3151 3330 2487
2 1 0 0 0 0 0 0 0 75 101 190 1621 1894 2227 3007 2149 1475 47 0 0 562 1700 1411 474 4 0 0 0 1 0 585 1152 1357 1225 812 332 134 489 912 1529 4455 4156
5 1 0 0 0 0 0 0 0 0 0 0 374 1741 2073 2663 3092 2335 1792 66 1 5 236 631 642 556 272 142 470 48 6 718 1051 1231 1204 1032 583 195 197 422 395 367 821
3 0 0 0 0 0 0 0 0 0 0 0 5 82 166 243 1620 130 0 228 1689 1015 961 1397 1277 1257 1371 1626 1897 2034 2123 1515 1155 1169 1360 1155 833 604 432 477 441 447 788
6 0 0 0 0 0 0 0 0 0 0 0 0 0 0 0 0 0 0 0 2 1 421 1495 1711 1801 2163 1948 2212 2328 2417 1621 1892 1752 1554 1341 1170 1207 1235 1151 740 554 771
16 15 8 4 1 0 0 0 0 0 0 0 0 0 0 0 0 0 0 0 0 2 356 1901 2096 1968 2188 2384 2153 2188 2269 2046 2157 1789 1897 2078 1851 1672 1486 1327 1225 997 1043
16 14 20 14 11 6 1 0 0 0 0 0 0 0 0 0 0 0 0 0 4 86 330 1210 1983 2253 2475 2631 2401 2487 2503 2394 2251 2384 2395 2103 1870 1877 1815 1602 1392 1267 1122
16 23 21 27 31 19 13 10 6 0 0 0 0 0 0 0 0 1 0 1 121 369 1067 1488 1484 2110 2240 2543 2812 2955 3163 2854 2837 2705 2433 2295 2080 1985 2017 1845 1575 775 815
16 22 32 33 18 19 33 25 15 15 1 0 0 0 0 0 0 40 0 2 207 497 454 1818 1858 1799 1970 2565 2792 2788 2817 3164 3418 2892 2617 2869 3165 2751 2263 2178 1889 1431 2051
28 30 25 48 38 41 46 36 31 27 21 15 0 0 0 0 0 0 39 8 211 706 791 1456 2688 2619 2361 2891 2613 2838 2805 2829 2815 2853 2908 2649 2905 2720 2848 2691 2808 2543 2332
33 32 25 28 24 28 46 38 23 35 38 33 13 5 0 0 0 1 16 79 62 703 1037 1211 1836 2783 2384 2652 2603 2749 2783 2622 2810 3232 3180 2847 2320 2486 2706 2556 2408 1960 2141
42 36 30 29 30 30 45 34 29 24 34 40 34 14 14 7 2 7 28 83 139 168 303 584 926 1019 46 1 4 541 1911 2365 2245 2642 2931 2821 2332 1995 1887 1738 1581 1352 1301
27 23 32 23 23 39 40 44 32 13 19 16 34 32 20 36 14 14 1 85 92 0 1 1 1 1 1 2 3 2 2 0 1 1 2 278 1720 1577 1250 1161 1061 850 709
23 17 20 17 29 29 23 26 18 13 38 44 34 29 33 35 58 31 66 7 1 1 0 1 1 0 0 0 0 0 0 0 0 0 1 3 34 164 205 216 268 273 371
20 27 14 20 15 17 17 20 21 17 14 27 32 26 27 34 42 51 44 2 2 1 1 0 0 0 0 0 0 0 1 1 0 0 2 0 0 0 0 0 0 0 0

GFSGL_con_sbcape_078.txt.gz
CAPE
2628 2545 2543 2605 2780 2827 2833 3232 2870 2394 527 24 0 0 1387 2734 3045 2972 2205 1847 2275 2392 3174 2794 2866 2908 2296 2963 2377 2660 2471 2861 2875 2632 2819 4715 4202 4404 3607 4048 4044 3485 3004
2439 2574 2634 2798 2771 2920 2873 2868 3315 3148 2959 923 0 8 1454 2456 2515 2862 2413 2095 2093 2568 2776 2428 2771 2385 3218 3304 2855 2822 3264 3117 3119 2907 2831 2627 2354 2778 4706 4219 4148 2664 2639
739 2499 2592 2534 2820 2833 3131 2910 3163 3237 3145 2555 2655 3267 3096 2424 2679 2368 2858 2826 2155 2308 2971 3135 2851 3133 3028 2645 3524 3304 2603 2913 3106 2700 2253 2904 3093 2954 3256 4230 4193 4053 3681
3 367 1255 2376 2389 2425 2940 2987 2790 3321 3007 2781 2901 3099 2794 2901 2863 2644 2683 2957 2477 2513 2824 2991 3089 3023 3023 3142 2987 3129 2695 3173 2609 2851 2233 1868 1938 2140 3574 3067 3234 2317 2026
2 55 50 133 2389 3128 2904 2707 3013 2910 2960 2987 2886 2644 2841 2499 2046 2613 2977 2803 2353 2132 2364 2680 2936 3260 2490 2934 2523 2947 2850 2975 2553 2094 1849 1908 1951 3294 3371 3242 2554 2725 2331
0 3 0 343 857 1377 2278 2629 3405 3012 2943 2802 2880 2788 2523 2362 1350 873 2093 2694 2831 2869 2422 2860 3230 2470 1784 1150 1194 1349 1406 3020 3035 2868 2760 2373 2368 3085 2843 2806 2390 1720 1202
0 0 0 1 7 286 1540 2471 3029 2994 3037 2933 2888 2845 2796 2660 1643 245 159 1933 2666 2932 2912 2711 2710 1720 2191 2176 875 847 813 323 603 1423 1648 2148 2278 2198 2762 3066 2713 2906 2596
0 0 0 0 0 29 295 81 939 2534 2778 2769 2670 2853 3051 2905 2134 1559 154 961 2099 2056 2506 2804 2678 2441 2747 2769 2970 2454 1657 1656 1216 395 554 758 1047 1356 2161 2102 2031 2401 2640
0 0 0 0 0 0 40 54 85 718 1938 2238 2231 2442 2785 2984 2359 1382 704 956 1201 1727 2027 2090 2083 2936 2518 1962 2014 2698 3062 2960 2279 1900 1670 1099 879 761 816 1633 1523 1226 898
0 0 0 0 0 0 0 0 11 164 490 1574 1961 2189 2058 2505 2682 2099 252 1337 1533 1305 1230 1530 1563 1471 1400 1428 1453 2191 2129 2011 2718 2679 844 196 55 258 188 247 1339 1400 1220
0 0 0 0 0 0 0 0 1 2 72 539 698 1930 2037 2185 2398 1849 453 1799 1909 1742 1568 1402 1249 1056 862 391 101 1887 2135 1923 1882 1946 2026 1668 1411 1671 1691 1052 1002 1190 1135
0 3 5 3 0 0 0 0 0 0 1 122 352 1016 1769 2197 2163 1676 819 22 1835 2036 1921 1641 1625 918 165 35 0 2 442 683 1626 1634 1597 1434 1163 885 613 369 1720 1665 1502
10 6 1 0 0 0 0 0 0 0 0 0 20 16 460 1611 1923 2011 1378 0 0 332 1911 1795 1556 17 0 0 0 0 0 8 512 752 867 975 1000 873 430 133 78 1993 2461
12 11 8 1 0 0 0 0 0 0 0 0 0 1 549 1754 1896 2089 1848 569 46 0 0 531 884 841 824 109 67 11 0 19 234 467 546 638 794 890 764 366 17 0 4
3 2 0 0 0 0 0 0 0 0 0 0 0 0 0 0 610 73 3 0 0 3 1 808 1197 1289 1170 1080 1006 1096 1006 332 265 522 665 832 973 999 851 514 99 0 107
0 0 0 0 0 0 0 0 0 0 0 0 0 0 0 0 0 0 0 0 0 1 27 643 1086 1603 1855 1780 1416 1215 1227 1328 1578 1049 958 951 921 933 903 751 494 228 228
5 4 1 0 0 0 0 0 0 0 0 0 0 0 0 0 0 0 0 0 1 1 0 108 875 1663 1990 1907 1980 2012 1843 1742 1814 1761 1709 1635 1330 1143 837 693 560 615 953
6 6 7 7 6 5 7 9 10 5 1 0 0 0 0 0 0 0 0 0 0 1 0 22 205 703 1095 1640 1902 1932 2163 2306 2442 1952 1786 1445 1372 1529 1627 1383 1183 1098 910
3 3 7 11 15 14 19 14 11 8 1 0 0 0 0 0 0 0 1 0 0 0 34 191 373 634 929 1269 1805 2096 1927 1802 2292 2411 2529 2054 2016 1573 1104 906 939 962 913
12 10 13 21 19 22 20 17 24 22 16 14 1 0 2 0 0 0 0 0 0 0 0 11 54 143 1437 1387 1571 2162 2267 2099 1829 2026 2750 2139 2894 2334 1649 1647 1623 1263 1094
17 16 14 12 15 21 23 34 35 32 32 25 6 6 0 0 4 2 0 0 0 352 426 608 905 1055 2058 2023 1945 2074 2015 2061 2011 1779 1945 2359 2323 2092 1823 2074 1679 1783 1443
10 23 27 27 25 20 15 17 37 35 39 38 23 4 0 0 0 4 14 0 0 0 0 726 707 940 962 1966 1814 1884 1327 1460 1440 1523 1941 2094 2027 1997 1983 2117 2270 2015 1820
0 3 9 15 18 14 17 19 27 26 30 30 31 32 21 1 3 3 0 15 0 0 0 1 392 1116 217 12 21 4 1 98 52 0 11 490 1166 1872 2079 2122 2082 2033 1846
2 6 10 12 15 19 19 21 22 11 15 32 44 33 31 30 35 6 0 0 7 5 1 6 2 1 0 0 0 0 2 1 0 1 1 5 69 696 1532 1640 1847 1787 1622
2 7 10 19 15 14 7 12 15 14 21 28 31 19 9 32 28 19 1 6 43 88 110 0 2 1 0 0 0 0 0 0 0 0 1 2 1 3 183 758 1031 1018 817
8 8 6 6 7 14 15 9 12 17 16 14 19 21 11 4 7 15 4 0 25 21 1 1 1 0 0 0 0 0 0 0 0 0 0 4 3 0 1 1 0 0 0

GFSGL_con_sbcape_081.txt.gz
CAPE
1457 1524 1567 1618 1510 1299 1376 1400 824 389 27 25 3 0 38 1070 1233 1238 1006 1074 967 860 1140 1637 1387 1752 1334 1656 1637 1348 1578 1690 1567 1598 1908 2522 1669 1798 2342 2608 2711 2574 2360
1 602 1541 1740 1733 1628 1608 1264 1357 589 388 44 0 0 0 615 1227 1327 1166 1107 1013 1112 1057 1462 949 1610 1718 1995 1488 1543 1459 1299 1307 930 977 883 1134 1271 1693 3175 2766 2945 2496
0 25 400 1454 1674 1592 1681 1803 2014 739 190 0 0 0 357 750 1111 1388 1311 1598 1179 1110 1039 1296 1386 1285 1507 1475 1153 1440 1544 2006 1793 1807 1653 1428 1808 1018 951 1397 2456 2663 2185
0 0 35 9 81 697 1744 2113 2108 2094 1533 1134 1179 1129 1240 1281 1199 1591 1373 1209 1486 1315 1339 1581 1577 1131 1264 1396 1127 1215 1543 1378 1446 1492 1207 1026 809 939 1483 2078 1677 1168 1379
0 0 2 28 0 0 150 1048 1944 2085 2169 1962 1656 1890 1715 1557 1801 1821 1541 1213 1330 1299 1430 1465 1600 1878 1920 1726 1459 1274 1677 1589 1468 1669 1429 1296 1608 1704 2166 1965 1383 1328 777
0 0 0 0 111 176 110 356 1005 1547 1924 2117 1975 1802 1716 1896 1493 1477 1567 1735 1695 1429 1111 1052 1486 1441 1643 1519 1555 1667 1622 1939 1556 1452 1526 1873 1711 1619 1756 1431 1887 1321 1175
0 0 1 1 0 0 64 38 18 1008 1455 1800 1921 2049 1803 1660 1768 842 154 1367 1933 1656 1294 1294 1419 1613 1705 1837 1385 524 490 600 1084 976 1025 833 775 653 837 808 716 1202 1349
0 0 0 0 0 0 10 11 0 112 494 1527 1388 1534 1785 1941 2001 1722 738 5 320 1468 1969 1946 1740 1389 1291 1469 1805 1322 598 412 229 20 326 517 199 92 219 397 723 943 1048
0 0 0 0 0 0 0 0 0 1 20 285 1214 1428 1382 1348 1701 1628 490 333 381 538 1007 1417 1761 1582 1474 1519 1327 1912 2014 1788 1449 886 308 145 135 21 21 786 1074 1109 809
0 0 0 0 0 0 0 0 0 0 0 0 163 344 1256 1320 1508 1623 764 343 431 819 646 767 1245 1287 1404 2037 1417 1259 1141 1333 1701 2335 568 156 26 15 0 0 352 379 517
0 0 0 0 0 0 0 0 0 0 0 0 0 34 312 1299 1426 1523 1094 237 1131 794 1163 1094 716 658 565 388 56 683 918 1129 1374 1072 1167 1260 1154 750 421 93 105 501 729
0 0 0 0 0 0 0 0 0 0 0 0 0 2 23 292 1051 1217 1338 8 608 958 1360 1360 1317 1038 704 31 0 0 38 22 427 864 1061 1143 1135 1021 918 811 815 458 553
0 0 0 0 0 0 0 0 0 0 0 0 0 0 0 0 224 1237 263 7 0 0 34 425 281 62 77 24 0 0 0 0 0 83 295 497 603 702 716 367 64 37 681
0 0 0 0 0 0 0 0 0 0 0 0 0 0 0 0 12 39 79 25 0 0 0 0 1 0 119 208 90 8 0 0 0 0 80 132 177 215 351 414 424 321 87
0 0 0 0 0 0 0 0 0 0 0 0 0 0 0 0 0 0 0 0 0 0 0 0 38 471 485 720 857 849 808 15 0 0 0 34 93 139 210 266 329 326 41
0 0 0 0 0 0 0 0 0 0 0 0 0 0 0 0 0 0 0 0 0 0 0 0 0 266 927 1058 1011 998 831 700 319 190 85 139 184 228 308 410 449 295 203
0 0 0 0 0 0 0 0 0 0 0 0 0 0 0 0 0 0 0 0 0 1 0 0 0 0 263 1142 1290 1349 1282 869 747 781 628 507 442 445 371 437 414 329 251
0 1 0 0 0 0 0 0 0 0 0 0 0 0 0 0 0 0 0 0 0 0 0 0 0 0 0 70 521 998 1309 1249 1198 1108 882 845 826 743 687 624 493 393 300
0 0 0 0 0 0 0 0 0 0 0 0 0 0 0 0 0 0 0 0 0 0 0 0 0 0 0 0 89 600 984 1152 1180 987 993 1033 1068 978 942 865 760 636 557
0 0 0 0 1 0 0 3 3 2 2 0 0 0 0 0 0 0 0 0 0 0 0 0 0 0 0 24 378 509 591 810 1078 1228 1126 905 1001 944 834 606 510 463 282
0 0 0 0 0 2 8 13 11 9 7 11 6 1 1 0 0 0 0 0 0 0 0 0 0 6 131 239 560 927 949 1004 971 972 1112 1143 880 967 785 888 654 511 607
0 0 0 0 0 0 2 2 3 9 14 16 12 9 1 1 1 0 0 0 0 0 0 0 0 0 0 184 446 776 811 615 529 332 258 448 555 541 530 464 373 409 470
0 0 0 0 0 0 0 6 8 11 9 15 22 18 12 20 19 8 5 0 0 0 0 0 0 0 0 3 9 89 22 1 0 1 1 5 82 182 215 89 49 148 271
0 0 0 0 0 3 1 8 10 7 10 15 17 17 12 21 9 2 12 8 6 5 0 0 0 2 0 0 0 0 0 0 0 0 0 1 1 7 0 4 37 98 176
0 0 0 0 0 0 0 2 3 11 10 12 7 8 4 16 19 9 14 32 25 20 0 2 1 0 0 0 0 0 0 0 0 0 1 2 1 1 4 162 438 542 645
0 0 0 0 0 0 0 5 2 4 11 11 5 8 8 13 13 16 19 15 4 1 4 4 1 0 0 0 0 0 0 0 0 0 0 1 1 1 1 2 2 68 153

GFSGL_con_sbcape_084.txt.gz
CAPE
104 252 952 1056 830 730 726 632 618 339 500 256 105 126 285 591 984 1082 616 671 675 537 317 1106 947 1085 1101 1169 968 774 1013 1023 878 918 1504 1179 987 778 960 1022 1538 2144 2064
1 71 284 433 781 984 922 940 582 382 164 111 12 0 0 78 603 885 702 948 856 733 741 568 861 712 1028 1334 1098 1134 1306 1163 1061 1138 640 830 933 955 891 717 1326 1981 2129
0 0 43 59 364 522 816 990 865 504 414 182 29 0 0 11 314 904 859 828 726 830 733 624 858 596 603 758 882 697 833 1254 1175 1328 1114 871 949 370 944 1114 1069 1453 922
0 0 0 3 0 0 116 372 625 564 412 185 48 5 0 16 322 697 959 844 1073 1102 799 792 833 865 780 602 743 714 616 900 821 840 719 623 478 709 1183 1583 1057 703 912
1 1 1 9 3 64 24 0 0 241 801 369 252 251 187 570 773 745 1111 856 739 788 1038 1102 1157 1322 1348 1024 997 949 695 922 880 998 1196 1016 1178 1271 1429 1340 895 690 408
0 0 1 0 0 0 31 14 6 23 482 977 1052 1111 1320 1602 1396 1341 1199 1154 763 718 768 790 826 1040 1056 1319 1323 975 978 845 946 1098 907 987 931 1072 1173 1165 720 414 79
0 0 0 0 0 0 1 23 0 5 96 457 981 1013 1156 1173 1513 1474 739 641 1100 1095 1004 844 704 894 1036 1066 1267 1089 183 233 957 800 857 641 616 513 413 206 116 148 149
0 0 0 0 0 0 0 0 0 4 30 78 260 625 835 1123 1209 1240 391 28 235 918 1307 1090 877 917 973 985 824 905 935 459 43 0 306 549 241 318 9 2 0 88 255
0 0 0 0 0 0 0 0 0 0 0 0 0 75 208 483 859 614 79 165 103 83 221 731 1382 1513 1416 977 565 1054 1191 1336 1283 387 91 110 208 240 17 4 142 418 477
0 0 0 0 0 0 0 0 0 0 0 0 0 0 0 18 155 519 441 137 324 373 467 303 406 754 1159 1243 319 782 802 906 935 1187 1168 67 3 0 0 0 161 205 211
0 0 0 0 0 0 0 0 0 0 0 0 0 0 0 0 1 84 388 71 600 882 282 665 764 532 199 160 84 917 1144 1027 867 622 896 1006 794 544 399 44 2 294 379
0 0 0 0 0 0 0 0 0 0 0 0 0 0 0 0 0 1 28 1 48 237 821 1005 1082 504 0 0 0 0 1 0 3 197 362 584 784 899 902 725 313 91 280
0 0 0 0 0 0 0 0 0 0 0 0 0 0 0 0 0 11 3 0 0 0 0 0 0 0 0 0 0 0 0 0 0 0 3 114 275 404 513 566 551 617 497
0 0 0 0 0 0 0 0 0 0 0 0 0 0 0 0 0 0 0 0 0 0 0 0 0 0 0 0 0 5 0 0 0 81 256 189 112 94 148 236 320 350 200
0 0 0 0 0 0 0 0 0 0 0 0 0 0 0 0 0 0 0 0 0 0 0 0 0 0 0 0 117 264 331 204 0 0 46 221 217 116 53 41 99 164 193
0 0 0 0 0 0 0 0 0 0 0 0 0 0 0 0 0 0 0 0 0 0 0 0 0 0 0 0 0 105 648 684 727 460 229 206 214 183 97 67 54 62 102
0 0 0 0 0 0 0 0 0 0 0 0 0 0 0 0 0 0 0 0 0 0 0 0 0 0 0 0 0 0 339 747 840 492 389 326 260 207 157 170 225 215 251
0 0 0 0 0 0 0 0 0 0 0 0 0 0 0 0 0 0 0 0 0 0 0 0 0 0 0 0 0 0 0 51 538 945 799 736 695 521 411 410 335 248 274
0 0 0 0 0 0 0 0 0 0 0 0 0 0 0 0 0 0 0 0 0 0 0 0 0 0 0 0 0 0 0 0 26 207 656 881 843 659 665 616 474 459 357
0 0 0 0 0 0 0 0 0 1 1 1 1 0 0 0 0 0 0 0 0 0 0 0 0 0 1 0 0 0 0 5 111 392 588 761 654 582 648 637 384 45 37
0 0 0 0 0 0 0 0 0 0 0 0 0 0 1 1 0 4 0 0 0 0 0 0 0 0 0 0 26 38 44 104 349 578 515 686 781 639 609 567 449 392 296
0 0 0 0 0 0 0 1 0 0 1 3 1 2 1 3 8 8 8 9 3 0 0 0 0 0 0 0 0 0 0 2 10 230 88 4 20 216 207 166 144 142 122
0 0 0 0 0 0 0 0 0 1 3 3 2 0 3 6 7 7 10 6 7 16 13 2 0 0 0 0 8 14 8 1 2 4 4 3 1 0 23 151 33 0 0
0 0 0 0 0 0 0 0 0 1 2 2 2 7 3 6 11 1 1 5 12 1 3 22 13 1 0 0 0 0 0 0 0 0 1 2 2 4 1 2 0 0 0
0 0 0 0 0 0 0 0 1 0 4 4 6 8 9 2 9 12 7 9 7 14 15 15 0 9 13 6 4 0 0 0 0 0 0 1 2 2 4 7 12 87 76
0 0 0 0 0 0 0 0 1 0 2 6 6 8 10 8 10 12 11 12 14 14 15 17 13 9 2 0 31 0 0 0 0 0 0 1 1 1 2 3 1 2 7

GFSGL_con_sbcape_087.txt.gz
CAPE
342 282 357 347 329 241 150 69 0 39 125 474 432 557 680 690 670 726 705 545 430 297 150 410 771 641 1014 980 845 556 825 671 706 526 958 761 781 724 644 624 675 1099 1527
2 36 185 289 514 541 340 444 384 511 211 142 171 119 110 162 400 752 851 791 523 478 432 289 416 621 613 822 983 801 904 828 904 935 621 641 755 612 518 792 986 1142 835
11 5 0 0 33 205 319 476 446 447 194 58 72 38 12 0 87 455 714 701 516 492 389 409 447 470 436 118 446 489 387 647 839 866 722 564 623 238 711 981 855 635 448
29 16 0 2 0 0 0 0 78 296 370 157 39 0 0 0 5 189 492 621 639 706 758 493 260 419 488 495 248 332 271 412 432 530 467 395 380 601 761 1133 1079 427 642
1 2 1 2 0 0 10 0 0 0 109 509 206 59 0 0 39 83 352 689 609 549 608 756 729 678 839 815 606 647 387 409 389 362 464 560 655 562 650 758 851 532 220
0 2 1 0 0 0 14 0 0 0 34 70 340 428 366 499 489 534 567 628 768 656 608 512 485 637 722 792 534 415 771 926 709 480 546 568 461 431 498 629 448 199 0
0 0 1 1 1 0 0 0 0 0 0 0 0 170 488 603 1022 978 688 569 916 778 694 688 672 794 676 548 608 583 291 60 44 728 751 628 565 387 233 126 0 0 0
0 0 0 0 0 0 0 0 0 0 0 0 0 0 17 197 81 4 1 3 189 283 567 806 779 747 585 585 633 620 548 490 216 0 147 689 561 462 83 100 24 0 0
0 0 0 0 0 0 0 0 0 0 0 0 0 0 0 0 0 0 1 13 88 187 113 156 652 897 1027 992 249 588 701 723 778 572 83 140 141 123 16 0 15 65 471
0 0 0 0 0 0 0 0 0 0 0 0 0 0 0 0 0 0 0 2 153 168 330 257 210 143 418 546 116 515 657 687 706 681 579 67 7 0 0 0 146 165 463
0 0 0 0 0 0 0 0 0 0 0 0 0 0 0 0 0 1 1 1 13 188 391 386 459 481 0 0 0 46 489 384 631 398 511 562 592 543 287 7 0 98 472
0 0 0 0 0 0 0 0 0 0 0 0 0 0 0 0 0 0 0 0 0 5 16 171 117 10 0 0 0 0 0 0 0 0 44 206 259 318 459 486 217 17 206
0 0 0 0 0 0 0 0 0 0 0 0 0 0 0 0 0 0 0 0 0 0 0 0 0 0 0 0 0 0 0 0 0 0 14 59 97 142 129 158 241 396 156
0 0 0 0 0 0 0 0 0 0 0 0 0 0 0 0 0 0 0 0 0 0 0 0 0 0 0 0 0 0 0 0 0 0 56 170 221 193 113 104 96 143 54
0 0 0 0 0 0 0 0 0 0 0 0 0 0 0 0 0 0 0 0 0 0 0 0 0 0 0 0 0 0 0 35 39 0 0 45 228 331 312 213 52 33 28
0 0 0 0 0 0 0 0 0 0 0 0 0 0 0 0 0 0 0 0 0 0 0 0 0 0 0 0 0 0 0 0 13 274 260 133 281 390 364 279 82 1 0
0 0 0 0 0 0 0 0 0 0 0 0 0 0 0 0 0 0 0 0 0 0 0 0 0 0 0 0 0 0 0 0 0 20 311 482 451 358 182 150 160 55 3
0 0 0 0 0 0 0 0 0 0 0 0 0 0 0 0 0 0 0 0 0 0 0 0 0 0 0 0 0 0 0 0 0 0 0 137 380 595 600 474 342 275 230
0 0 0 0 0 0 0 0 0 0 0 0 0 0 0 0 0 0 0 0 0 0 0 0 0 0 0 0 6 4 1 0 0 0 0 1 66 378 431 558 577 517 419
0 0 0 0 0 0 0 0 0 0 0 0 0 0 0 0 0 0 0 0 0 2 1 0 0 0 0 4 0 2 3 3 11 28 34 19 142 308 351 481 623 618 526
0 0 0 0 0 0 0 0 0 0 0 0 0 0 0 1 1 0 1 2 2 1 6 8 3 1 0 0 1 0 0 0 0 3 0 0 9 158 165 196 231 135 204
0 0 0 0 0 0 0 0 0 0 0 0 0 0 0 0 0 3 3 1 1 3 5 5 6 12 15 11 5 1 0 0 13 40 12 11 24 40 48 116 182 194 218
0 0 0 0 0 0 0 0 0 0 0 0 0 0 0 0 0 0 2 4 3 0 0 0 4 11 2 6 22 33 30 4 5 7 4 3 3 4 10 7 16 19 94
0 0 0 0 0 0 0 0 0 0 0 0 0 0 0 0 1 2 3 3 2 3 2 6 7 2 3 9 6 5 31 45 34 0 1 2 4 5 6 5 4 4 8
0 0 0 0 0 0 0 0 0 0 0 0 0 0 0 0 0 0 3 3 4 6 5 0 7 11 8 8 5 3 3 0 0 15 0 0 1 2 4 6 7 5 4
0 0 0 0 0 0 0 0 0 0 0 0 0 0 0 2 3 0 0 3 6 6 7 6 6 10 15 12 5 1 0 0 0 0 0 0 1 1 2 4 4 2 4

GFSGL_con_sbcape_090.txt.gz
CAPE
6 56 136 175 178 157 67 76 55 26 27 80 307 582 687 416 652 448 583 622 542 419 288 481 804 892 1215 1425 1262 902 1273 1112 1488 1443 1187 1425 1654 1773 1821 1750 1730 1971 1724
5 45 174 258 304 351 122 230 292 242 107 99 208 401 519 569 617 799 828 951 662 639 506 396 511 543 962 1079 1402 1242 1276 1220 1403 1554 1300 1325 1527 1396 1327 1517 1624 1288 1257
1 4 1 0 0 35 83 195 252 401 330 121 125 98 54 40 119 412 690 567 622 381 707 552 654 534 836 676 547 824 726 792 1131 1270 1252 944 1095 798 1272 1759 1876 1809 1265
1 14 19 2 0 0 0 0 0 138 386 247 171 118 74 15 0 24 411 632 558 525 292 644 617 534 798 885 751 782 619 706 787 829 880 806 712 1120 1082 1347 1430 1340 1307
37 37 6 0 0 0 0 0 0 0 11 239 420 215 114 39 36 48 144 530 778 739 689 799 745 524 322 651 1040 1203 754 833 929 1028 939 876 1045 996 1113 1092 1149 967 745
1 3 3 1 0 0 0 0 0 0 0 14 50 272 444 531 342 45 41 560 852 822 915 964 749 323 422 382 179 201 672 1294 1478 1072 1266 1257 1485 1099 1025 1019 927 707 594
1 1 1 1 1 0 0 0 0 0 0 0 0 0 0 113 0 0 0 48 730 1024 1053 936 951 972 699 774 370 21 0 0 312 1394 1423 1551 1472 1351 1044 1069 624 385 445
0 0 0 0 0 0 0 0 0 0 0 0 0 0 0 0 0 0 1 2 101 409 697 939 986 1123 1106 836 1021 993 1112 1000 510 90 470 1049 1267 1348 1039 1225 1008 441 162
0 0 0 0 0 0 0 0 0 0 0 0 0 0 0 4 0 0 0 1 130 254 375 346 442 711 649 415 485 818 1050 1101 748 393 110 184 159 70 158 310 531 627 944
0 0 0 0 0 0 0 0 0 0 0 0 0 0 0 0 0 0 0 3 4 78 280 403 208 87 92 0 12 454 708 908 938 1084 1019 325 71 40 0 0 510 734 795
0 0 0 0 0 0 0 0 0 0 0 0 0 0 0 0 0 0 0 0 0 3 8 51 77 0 0 0 1 1 139 364 65 68 292 631 726 837 888 328 63 430 732
0 0 0 0 0 0 0 0 0 0 0 0 0 0 0 0 0 0 0 0 0 0 0 0 0 0 0 0 0 0 0 1 0 0 56 359 600 726 783 818 959 378 583
0 0 0 0 0 0 0 0 0 0 0 0 0 0 0 0 0 0 0 0 0 0 0 0 0 0 0 0 0 0 0 0 0 0 0 0 109 475 665 727 772 1108 978
0 0 0 0 0 0 0 0 0 0 0 0 0 0 0 0 0 0 0 0 0 0 0 0 0 0 0 0 0 0 0 0 0 0 0 3 119 275 553 458 406 529 641
0 0 0 0 0 0 0 0 0 0 0 0 0 0 0 0 0 0 0 0 0 0 0 0 0 0 0 0 0 0 0 0 0 0 15 44 119 203 343 500 674 528 385
0 0 0 0 0 0 0 0 0 0 0 0 0 0 0 0 0 0 0 0 0 0 0 0 0 0 0 0 0 0 0 0 0 0 0 38 110 87 4 92 198 187 196
0 0 0 0 0 0 0 0 0 0 0 0 0 0 0 0 0 0 0 0 0 0 0 0 0 0 0 0 1 0 0 0 1 6 7 12 23 100 13 6 84 66 155
0 0 0 0 0 0 0 0 0 0 0 0 0 0 0 0 0 0 0 0 0 0 0 0 0 0 0 0 1 1 23 21 17 37 43 29 33 39 44 209 561 608 327
0 0 0 0 0 0 0 0 0 0 0 0 0 0 0 0 0 0 0 0 0 1 1 2 4 2 4 6 5 10 14 27 15 9 13 10 45 54 46 52 49 9 51
0 0 0 0 0 0 0 0 0 0 0 0 0 0 0 0 0 0 0 0 0 0 0 1 4 9 15 15 11 10 15 18 14 6 4 5 10 61 41 18 19 66 204
0 0 0 0 0 0 0 0 0 0 0 0 0 0 0 0 0 0 0 0 0 1 3 3 6 4 8 14 20 28 36 24 24 25 18 6 15 46 23 12 54 73 166
0 0 0 0 0 0 0 0 0 0 0 0 0 0 0 0 0 0 0 0 0 0 3 9 13 4 3 8 21 17 31 33 52 40 24 2 7 24 12 26 15 4 45
0 0 0 0 0 0 0 0 0 0 0 0 0 0 0 0 0 0 0 1 1 2 3 3 6 7 9 2 3 22 31 27 30 27 30 48 35 54 74 29 18 15 16
0 0 0 0 0 0 0 0 0 0 0 0 0 0 0 0 0 1 1 2 3 4 4 6 9 12 13 12 14 12 7 19 12 8 4 15 14 27 45 42 27 19 24
0 0 0 0 0 0 0 0 0 0 0 0 0 0 0 0 1 2 3 3 3 8 5 5 7 4 0 0 6 10 8 0 3 0 3 16 12 14 11 21 27 31 20
0 0 0 0 0 0 0 0 0 0 0 0 0 0 0 0 0 1 2 2 5 1 4 3 6 7 9 9 9 1 0 0 3 0 5 14 20 20 29 17 23 28 18

GFSGL_con_sbcape_093.txt.gz
CAPE
165 374 643 1067 1040 1072 1113 1159 1135 1077 920 1200 1377 1354 1703 1738 1748 1780 1700 1795 1736 1821 1644 1697 1742 2009 1488 1795 2326 2063 1988 1948 1653 1620 2040 2095 2702 2726 2122 2057 1747 2603 1748
524 234 232 758 805 1146 1338 1153 1267 1120 1041 1035 1026 1272 1293 1258 1709 1877 1755 1273 1690 1754 1796 1580 1521 1275 2015 2059 1836 2622 2165 2198 1647 1676 1607 1353 1961 2224 2317 2545 2027 1492 1946
17 4 11 131 1138 1447 1369 1377 1292 1391 1492 1415 1245 1315 1280 1249 1401 1614 1730 1633 1418 1641 1473 1758 1653 1765 1888 1292 1656 1366 1179 1557 1629 1696 1593 1679 1882 1873 2153 1945 2187 2120 1134
43 17 24 128 243 366 428 526 812 1276 1562 1549 1525 1396 1125 1066 884 771 954 1319 1490 1542 1623 1607 1770 1661 1848 2136 1895 2074 1694 1792 1666 2018 1769 1819 1886 2103 2375 2073 1843 1813 1956
40 35 53 64 189 242 283 229 224 375 652 1120 1509 1411 1288 988 717 721 665 682 994 1391 1354 1429 1713 1555 1132 1131 1401 2141 1949 1928 1530 1487 1453 1510 1542 1457 1723 1583 2147 2159 2184
117 93 47 52 1 1 103 133 123 134 181 257 624 795 828 323 0 1 77 950 1269 1464 1781 1931 1720 875 776 228 55 138 786 2070 1925 1286 1238 1551 2325 2176 1736 1744 1692 1748 1399
4 4 4 3 4 2 0 0 0 0 0 0 2 83 132 36 0 1 0 1031 1590 2062 2225 2377 2114 1384 1263 1717 934 264 91 0 32 2066 1863 2399 2460 2764 2492 2592 2241 2094 1878
0 0 0 0 0 0 0 0 0 0 0 0 0 0 0 0 0 0 1 187 751 1214 1520 1681 2027 2047 1809 1690 1914 1925 1986 2229 1850 1053 1362 1907 2255 2292 2496 2315 2239 2071 1730
0 0 0 0 0 0 0 0 0 0 0 0 0 8 0 0 0 0 0 92 264 382 590 863 1030 1206 0 1 790 1727 1944 1976 1328 790 532 520 481 120 177 1052 1552 1486 1268
0 0 0 0 0 0 0 0 0 0 0 0 0 0 0 0 0 0 0 0 0 0 94 0 0 0 0 0 0 712 1244 1748 1559 1810 1789 1159 178 1248 65 209 1423 1588 1444
0 0 0 0 0 0 0 0 0 0 0 0 0 0 0 0 0 0 0 0 0 0 0 0 0 0 0 0 0 0 0 0 0 0 250 1030 1367 1558 1594 1697 1655 1529 1507
0 0 0 0 0 0 0 0 0 0 0 0 0 0 0 0 0 0 0 0 0 0 0 0 0 0 0 0 0 0 0 0 0 0 0 0 12 53 81 126 1178 1596 1597
0 0 0 0 0 0 0 0 0 0 0 0 0 0 0 0 0 0 0 0 0 0 0 0 0 0 0 0 0 0 0 0 0 0 0 0 0 0 0 165 284 1381 1763
0 0 0 0 0 0 0 0 0 0 0 0 0 0 0 0 0 0 0 0 0 0 0 0 0 0 0 0 0 0 0 0 0 0 0 0 0 0 0 0 13 53 105
0 0 0 0 0 0 0 0 0 0 0 0 0 0 0 0 0 0 0 0 0 0 0 0 0 0 0 0 0 0 0 0 0 0 0 0 0 0 0 0 2 44 138
0 0 0 0 0 0 0 0 0 0 0 0 0 0 0 0 0 0 0 0 0 0 0 0 0 0 0 0 0 0 0 0 0 0 0 0 0 0 0 2 3 8 40
0 0 0 0 0 0 0 0 0 0 0 0 0 0 0 0 0 0 0 0 0 0 0 0 0 0 0 0 0 0 0 0 7 0 0 0 10 8 6 4 4 9 9
0 0 0 0 0 0 0 0 0 0 0 0 0 0 0 0 0 0 0 0 0 0 0 0 0 0 0 0 0 0 0 0 0 0 6 0 0 5 6 11 29 39 56
0 0 0 0 0 0 0 0 0 0 0 0 0 0 0 0 0 0 0 0 0 0 0 0 0 0 0 0 0 0 0 1 2 2 2 1 0 1 0 2 9 10 4
0 0 0 0 0 0 0 0 0 0 0 0 0 0 0 0 0 0 0 0 0 0 0 0 0 0 0 0 0 1 1 1 1 1 5 7 8 8 14 24 31 20 37
0 0 0 0 0 0 0 0 0 0 0 0 0 0 0 0 0 0 0 0 0 0 0 0 0 1 1 1 2 2 0 1 2 2 3 9 19 40 23 9 8 17 35
0 0 0 0 0 0 0 0 0 0 0 0 0 0 0 0 0 0 0 0 0 0 0 1 1 1 2 3 5 3 2 3 2 3 10 14 19 24 17 41 41 36 60
0 0 0 0 0 0 0 0 0 0 0 0 0 0 0 0 0 0 0 0 0 2 3 4 5 4 6 9 10 10 10 11 9 7 8 16 21 17 13 18 13 21 55
0 0 0 0 0 0 0 0 1 0 0 0 0 0 0 0 0 0 0 0 0 1 2 4 6 9 11 10 10 11 12 12 16 15 18 31 36 31 36 38 32 22 24
0 0 0 0 0 0 0 0 0 0 0 0 0 0 0 0 0 0 0 0 2 4 2 5 5 5 6 6 8 9 1 0 2 0 6 9 19 23 35 32 31 16 28
0 0 0 0 0 0 0 0 0 0 0 0 0 0 0 0 0 0 0 2 4 4 5 7 6 6 7 7 8 1 0 0 0 0 2 6 12 18 21 19 20 25 31

GFSGL_con_sbcape_096.txt.gz
CAPE
1069 1198 1078 926 705 734 729 901 944 1372 1775 1961 1542 1137 1312 1134 1231 1755 1648 1556 1924 1724 1799 1745 1764 1690 1191 962 1220 1374 1212 1224 1373 1345 1769 1828 2665 2438 2312 2312 1725 1557 842
1188 1079 738 906 826 729 781 845 1190 1085 1793 1617 1561 1630 1614 1328 1545 1565 1497 1297 1666 1451 1199 1443 1566 976 1504 1581 1160 1763 1965 1677 1341 1813 2159 1413 2103 2088 2055 2577 1719 1026 957
453 568 507 463 620 818 987 938 1176 1422 1289 985 1125 1235 1396 1567 1399 1666 1990 1750 1418 1204 1240 1224 1447 1336 1594 1027 931 904 748 804 1228 1054 1081 912 1279 1836 1934 2850 1705 1812 1404
158 80 123 140 246 538 766 1111 1213 1455 1602 1109 1176 1223 1313 1815 1724 1700 1774 1853 1668 1326 1311 1178 1080 1211 1583 1766 1988 1825 1911 1843 1875 1098 837 619 734 1478 1555 1087 669 711 1134
312 121 167 204 253 370 769 875 991 1129 1246 1485 1724 1889 1908 1821 1442 1840 1592 1501 1500 1393 1373 1451 1362 1147 970 1206 1417 2086 2308 1647 909 517 621 523 621 939 1674 879 906 845 1301
325 246 141 288 173 153 264 439 521 578 650 1050 1254 1542 1527 1188 0 1 135 1659 1695 1700 1849 2067 1832 1169 929 701 530 395 563 2300 2062 1615 1100 1227 2639 1963 1696 1397 1312 978 1044
6 8 5 22 60 6 0 0 102 220 268 256 428 796 55 0 0 0 0 1174 2068 2063 2021 1962 1724 814 1214 1357 588 333 131 5 0 2472 1904 1933 2903 2915 2429 2415 2589 2054 1799
0 0 1 2 4 5 0 0 0 16 147 154 190 178 0 0 0 0 0 435 1402 1755 1753 1761 1956 1787 0 245 1686 1522 1577 1863 2184 1554 1749 2179 2671 2640 3149 2664 2674 2846 2290
0 0 0 0 0 0 0 0 0 7 36 69 99 19 0 0 0 0 0 345 732 976 541 29 31 0 0 0 817 1808 1863 1821 1424 819 635 685 673 527 348 1215 1451 1361 1229
0 0 0 0 0 0 0 0 0 0 3 7 7 0 0 0 0 0 0 0 0 55 329 5 0 0 0 0 0 206 803 1200 684 440 838 824 315 973 156 910 1899 1761 1591
0 0 0 0 0 0 0 0 0 0 1 0 3 2 0 0 0 0 0 0 0 0 0 0 0 0 0 0 0 0 0 0 0 0 61 357 681 1089 1251 1612 3068 2889 1967
0 0 0 0 0 0 0 0 0 0 0 0 0 0 0 0 0 0 0 0 0 0 0 0 0 0 0 0 0 0 0 0 0 3 15 27 39 42 26 43 593 507 495
0 0 0 0 0 0 0 0 0 0 0 0 0 0 0 0 0 0 0 0 0 0 0 0 0 0 0 0 0 0 0 0 0 3 11 3 1 0 0 121 692 1788 2130
0 0 0 0 0 0 0 0 0 0 0 0 0 0 0 0 0 0 0 0 0 0 0 0 0 0 0 0 0 0 0 0 0 0 0 0 0 0 0 0 0 0 0
0 0 0 0 0 0 0 0 0 0 0 0 0 0 0 0 0 0 0 0 0 0 0 0 0 0 0 0 0 0 0 0 0 0 0 0 0 0 0 0 0 0 0
0 0 0 0 0 0 0 0 0 0 0 0 0 0 0 0 0 0 0 0 0 0 0 0 0 0 0 0 0 0 0 0 0 0 0 0 0 0 0 0 0 0 0
0 0 0 0 0 0 0 0 0 0 0 0 0 0 0 0 0 0 0 0 0 0 0 0 0 0 0 0 0 0 0 0 0 0 0 0 0 0 0 0 0 0 0
0 0 0 0 0 0 0 0 0 0 0 0 0 0 0 0 0 0 0 0 0 0 0 0 0 0 0 0 0 0 0 0 0 0 0 0 0 0 0 0 0 0 0
0 0 0 0 0 0 0 0 0 0 0 0 0 0 0 0 0 0 0 0 0 0 0 0 0 0 0 0 0 0 0 0 0 0 0 0 0 0 0 0 0 0 0
0 0 0 0 0 0 0 0 0 0 0 0 0 0 0 0 0 0 0 0 0 0 0 0 0 0 0 0 0 0 0 0 0 0 0 0 0 0 0 2 3 3 2
0 0 0 0 0 0 0 0 0 0 0 0 0 0 0 0 0 0 0 0 0 0 0 0 0 0 0 0 0 0 0 0 0 0 0 0 0 0 1 2 4 3 3
0 0 0 0 0 0 0 0 0 0 0 0 0 0 0 0 0 0 0 0 0 0 0 0 0 0 0 0 1 0 0 1 1 4 4 4 6 7 5 5 7 7 3
0 0 0 0 0 0 0 0 0 0 0 0 0 0 0 0 0 0 0 0 0 0 0 0 0 0 0 1 2 5 5 4 7 11 13 14 11 8 7 7 8 6 6
0 0 0 0 0 0 0 0 0 0 0 0 0 0 0 0 0 0 0 0 0 0 0 0 0 1 3 7 8 9 9 8 5 10 16 12 10 11 12 10 13 16 12
0 0 0 0 0 0 0 0 0 2 2 1 0 0 0 0 0 0 0 0 0 0 0 0 0 0 2 7 11 11 1 0 1 0 4 7 9 9 10 11 13 14 15
0 0 0 2 4 5 2 2 1 4 7 7 6 7 5 2 0 0 0 0 0 0 0 0 0 3 5 7 8 0 0 0 0 0 0 7 10 8 8 7 7 10 12

GFSGL_con_sbcape_099.txt.gz
CAPE
1582 1540 1907 1391 1623 1426 965 836 1057 1145 1466 1219 1452 1348 1344 1455 1529 2215 2473 1836 2103 2066 2383 2096 1611 2518 1368 986 1526 1113 981 1003 1073 1174 1367 3133 2602 2350 2242 2760 2342 2905 1143
960 1253 1418 961 1163 1397 914 907 916 1273 1352 1373 1507 1602 1719 1499 2032 2196 1743 1478 1775 1637 1406 1341 1453 1091 2659 3020 985 2525 1404 1964 1173 2219 1718 991 2137 3091 3497 4129 2193 1339 1282
222 1176 898 1072 1158 1414 1544 1059 1013 1029 1427 1246 1506 1633 1504 2007 1958 1930 2099 1966 1571 1515 1279 1321 1249 1285 2100 1518 2309 1587 857 757 1357 993 1035 923 1053 937 1674 3165 3430 2424 1475
694 233 296 265 341 589 682 790 1098 1691 1345 1365 1383 1610 1491 1515 1790 1808 1828 1854 1626 1362 1367 1363 1247 1247 1776 2313 1344 3185 2240 1670 1509 1012 715 1031 889 1470 1111 1364 1016 827 829
655 672 573 209 244 335 365 843 988 1758 1285 1322 1352 1456 1548 1461 519 493 1863 1760 1912 1766 1650 1562 1719 1254 762 1115 1296 2674 2906 2144 1378 1167 602 441 447 1757 1695 913 1466 1093 1611
1013 895 670 664 841 776 713 672 761 903 1076 1278 1375 1615 1477 0 0 0 0 2083 1618 1799 1745 2025 2375 1159 950 626 539 558 665 1994 2365 1716 1174 1329 2735 2068 1580 1655 1822 1202 1031
745 530 573 436 364 424 392 308 194 294 835 771 936 317 10 0 0 0 0 226 1641 2248 2427 2375 1838 970 1017 1627 480 303 285 140 264 2140 2032 2400 3069 3309 3432 3282 2819 2392 1901
30 11 8 30 50 44 104 13 1 57 350 513 531 116 0 0 0 0 0 36 1015 1607 1511 1682 1933 969 0 7 563 1736 1638 1873 1411 1397 2129 2263 2949 3271 3117 2925 3286 3055 2585
2 1 0 0 2 2 4 94 79 333 293 316 313 59 0 0 0 0 0 426 1069 1094 272 32 560 142 0 0 166 1257 2003 2376 740 651 601 494 566 646 614 1165 1378 1020 1203
0 0 0 0 0 0 3 2 5 3 82 111 0 0 0 0 0 0 0 0 98 33 728 0 0 0 0 0 0 42 554 955 533 313 103 534 575 1105 452 498 2247 1961 2445
0 0 0 0 0 0 0 0 0 1 14 20 10 5 0 0 0 0 0 0 0 0 0 0 0 0 0 0 0 0 0 0 0 0 1 116 372 606 382 1457 2356 2608 1489
0 0 0 0 0 0 0 0 0 0 0 5 7 2 0 0 0 0 0 0 0 0 0 0 0 0 0 0 0 0 0 0 0 2 59 103 141 165 183 346 812 905 299
0 0 0 0 0 0 0 0 0 0 0 0 0 0 0 0 0 0 0 0 0 0 0 0 0 0 0 0 0 0 0 0 0 0 0 0 0 0 13 20 144 761 1555
0 0 0 0 0 0 0 0 0 0 0 0 0 0 0 0 0 0 0 0 0 0 0 0 0 0 0 0 0 0 0 0 0 0 0 0 0 0 0 0 0 0 0
0 0 0 0 0 0 0 0 0 0 0 0 0 0 0 0 0 0 0 0 0 0 0 0 0 0 0 0 0 0 0 0 0 0 0 0 0 0 0 0 0 0 0
0 0 0 0 0 0 0 0 0 0 0 0 0 0 0 0 0 0 0 0 0 0 0 0 0 0 0 0 0 0 0 0 0 0 0 0 0 0 0 0 0 0 0
0 0 0 0 0 0 0 0 0 0 0 0 0 0 0 0 0 0 0 0 0 0 0 0 0 0 0 0 0 0 0 0 0 0 0 0 0 0 0 0 0 0 0
0 0 0 0 0 0 0 0 0 0 0 0 0 0 0 0 0 0 0 0 0 0 0 0 0 0 0 0 0 0 0 0 0 0 0 0 0 0 0 0 0 0 0
0 0 0 0 0 0 0 0 0 0 0 0 0 0 0 0 0 0 0 0 0 0 0 0 0 0 0 0 0 0 0 0 0 0 0 0 0 0 0 0 0 0 0
0 0 0 0 0 0 0 0 0 0 0 0 0 0 0 0 0 0 0 0 0 0 0 0 0 0 0 0 0 0 0 0 0 0 0 0 0 0 0 0 0 0 0
0 0 0 0 0 0 0 0 0 0 0 0 0 0 0 0 0 0 0 0 0 0 0 0 0 0 0 0 0 0 0 0 0 0 0 0 0 0 0 0 0 0 1
0 0 0 0 0 0 0 0 0 0 0 0 0 0 0 0 0 0 0 0 0 0 0 0 0 0 0 0 0 0 0 0 0 0 0 0 1 1 1 0 1 1 0
0 0 0 0 0 0 0 0 0 0 0 0 0 0 0 0 0 0 0 0 0 0 0 0 0 0 0 0 0 0 0 0 1 2 4 4 4 5 7 6 9 8 6
3 0 0 0 0 0 0 0 0 0 0 0 0 0 0 0 0 0 0 0 0 0 0 0 0 0 0 0 0 0 1 0 0 4 10 9 7 4 5 5 5 3 6
2 2 8 3 1 0 0 0 0 2 0 0 0 0 0 0 0 0 0 0 0 0 0 0 0 0 0 2 2 3 0 0 0 0 0 4 5 8 7 6 6 7 7
0 0 6 15 25 9 0 1 1 7 8 3 1 2 4 6 3 2 0 0 0 0 0 0 0 0 1 2 1 0 0 0 0 0 0 1 4 5 4 4 4 7 5

GFSGL_con_sbcape_102.txt.gz
CAPE
1489 1058 1951 1603 1861 2013 2154 2105 1760 158 0 0 739 1877 1761 2613 2534 2724 2699 2184 1405 1547 2109 1975 1798 2521 2221 1835 1538 1262 1538 1487 1565 1325 592 272 178 216 2729 2993 3180 2713 1961
1006 1341 1430 822 1094 1555 740 279 1471 1720 2078 2267 2652 1972 2208 1810 1920 2331 2318 2038 1949 2051 1988 2491 2265 976 2232 2881 2471 2335 2350 2260 2077 1769 1865 1973 2266 2859 3043 3903 3201 1776 1608
750 672 687 1440 1186 1511 1499 378 321 1418 2221 2184 2203 1828 1447 1977 1533 1938 2298 2109 1873 2255 2209 2121 2211 1922 1975 2094 2272 2121 1648 1500 1329 1413 1395 1064 993 1025 1066 1934 2724 2016 2362
224 318 522 565 624 368 584 820 1154 1222 1093 1142 1862 1652 1579 2240 1672 1627 2035 1925 2216 2128 1966 2371 2355 2267 1698 1909 1623 1872 1637 1917 1704 1702 1747 1612 1231 1308 1972 992 593 1791 1636
389 447 419 419 67 121 286 244 635 416 722 1035 1312 1581 229 0 0 4 63 1081 1432 2040 1979 1800 1928 1001 515 704 1499 1881 1744 1612 1395 1205 1101 1149 1506 1640 1676 1600 1909 1295 1201
925 677 717 790 664 560 315 275 172 170 445 599 472 893 19 1 0 0 0 905 1335 1340 2015 2498 2703 710 929 344 283 213 226 1503 1512 2102 1829 1462 1600 1878 1801 2052 1901 1811 1784
1392 1235 985 707 1026 626 512 429 371 195 148 203 312 23 0 0 0 0 0 21 1120 1390 1425 1721 1423 232 0 4 452 255 177 182 4 922 1454 1608 1899 1963 2475 2128 2106 2243 1913
163 558 492 577 359 239 212 119 71 154 99 158 128 0 0 0 0 0 0 0 455 1432 1611 1507 1250 0 0 0 0 976 1837 2129 1433 742 628 1499 2179 2205 1768 1791 1769 1675 1665
1 0 3 24 11 4 35 198 131 127 21 204 233 6 0 0 0 0 0 3 1535 1098 42 0 0 0 0 0 0 35 354 1192 51 20 7 0 0 17 9 332 685 1194 904
0 0 0 0 0 0 0 0 11 135 368 5 0 0 0 0 0 0 0 0 0 0 0 0 0 0 0 0 0 0 0 14 0 0 0 0 1 240 412 61 683 1013 1045
0 0 0 0 0 0 0 0 0 0 170 39 0 0 0 0 0 0 0 0 0 0 0 0 0 0 0 0 0 0 0 0 0 0 0 0 154 471 378 734 1347 1199 883
0 0 0 0 0 0 0 0 0 0 0 1 14 3 0 0 0 0 0 0 0 0 0 0 0 0 0 0 0 0 0 0 0 0 0 0 0 0 0 0 43 221 462
0 0 0 0 0 0 0 0 0 0 0 0 0 0 0 0 0 0 0 0 0 0 0 0 0 0 0 0 0 0 0 0 0 0 0 0 0 0 0 0 0 0 0
0 0 0 0 0 0 0 0 0 0 0 0 0 0 0 0 0 0 0 0 0 0 0 0 0 0 0 0 0 0 0 0 0 0 0 0 0 0 0 0 0 0 0
0 0 0 0 0 0 0 0 0 0 0 0 0 0 0 0 0 0 0 0 0 0 0 0 0 0 0 0 0 0 0 0 0 0 0 0 0 0 0 0 0 0 0
0 0 0 0 0 0 0 0 0 0 0 0 0 0 0 0 0 0 0 0 0 0 0 0 0 0 0 0 0 0 0 0 0 0 0 0 0 0 0 0 0 0 0
0 0 0 0 0 0 0 0 0 0 0 0 0 0 0 0 0 0 0 0 0 0 0 0 0 0 0 0 0 0 0 0 0 0 0 0 0 0 0 0 0 0 0
0 0 0 0 0 0 0 0 0 0 0 0 0 0 0 0 0 0 0 0 0 0 0 0 0 0 0 0 0 0 0 0 0 0 0 0 0 0 0 0 0 0 0
0 0 0 0 0 0 0 0 0 0 0 0 0 0 0 0 0 0 0 0 0 0 0 0 0 0 0 0 0 0 0 0 0 0 0 0 0 0 0 0 0 0 0
0 0 0 0 0 0 0 0 0 0 0 0 0 0 0 0 0 0 0 0 0 0 0 0 0 0 0 0 0 0 0 0 0 0 0 0 0 0 0 0 0 0 0
0 0 0 0 0 0 0 0 0 0 0 0 0 0 0 0 0 0 0 0 0 0 0 0 0 0 0 0 0 0 0 0 0 0 0 0 0 0 0 0 0 0 0
6 0 0 0 0 0 0 0 0 0 0 0 0 0 0 0 0 0 0 0 0 0 0 0 0 0 0 0 0 0 0 0 0 0 0 0 0 0 0 1 1 2 3
5 0 0 0 0 0 0 0 0 0 0 0 0 0 0 0 0 0 0 0 0 0 0 0 0 0 0 0 0 0 0 0 0 0 1 2 4 1 1 5 7 6 2
15 7 7 0 0 0 0 0 0 0 0 0 0 0 0 0 0 0 0 0 0 0 0 0 0 0 0 0 0 0 0 0 0 0 1 1 2 2 2 2 2 2 3
62 24 4 42 5 0 7 0 0 0 0 0 0 1 0 0 0 0 0 0 0 0 0 0 0 0 0 0 0 0 0 0 0 0 0 0 0 0 0 1 2 2 3
92 41 0 0 5 18 21 12 20 19 21 11 0 2 12 5 2 2 2 0 0 0 0 0 0 0 0 0 0 0 0 0 0 0 0 0 0 0 0 1 1 2 3

GFSGL_con_sbcape_105.txt.gz
CAPE
1251 971 969 905 929 872 771 598 44 0 0 0 0 124 871 1043 1180 1005 981 878 722 833 901 1040 832 908 1352 1413 912 955 860 912 571 875 24 0 4 10 0 150 647 1050 1532
1013 425 553 665 65 639 173 147 235 204 79 75 550 1192 948 1005 979 1239 1301 1251 924 759 747 918 838 974 728 752 866 873 690 709 548 263 656 701 94 303 401 750 1564 2317 1847
436 476 211 42 118 564 345 26 156 647 761 1032 863 1032 955 813 797 935 1049 908 836 881 697 893 932 1017 1044 629 425 334 778 777 624 673 759 445 316 810 880 648 449 1294 891
149 142 100 218 174 274 317 310 329 212 247 560 746 985 653 112 38 57 198 554 780 973 1031 872 971 841 631 616 599 563 695 329 491 460 466 482 660 883 1049 1022 1388 1065 721
113 159 151 115 23 33 27 20 22 31 96 359 634 12 0 0 0 2 1 44 761 692 764 890 553 316 119 192 458 564 575 362 317 260 322 367 358 558 879 1098 1298 1010 1055
356 296 380 236 100 111 149 56 27 23 3 161 3 0 0 0 0 0 0 0 348 824 680 420 327 0 0 0 0 35 2 152 186 489 558 704 593 696 989 1231 1344 1279 1346
575 574 468 358 271 363 350 211 22 1 31 36 0 0 0 0 0 0 0 0 29 357 548 696 137 0 0 0 0 336 463 82 32 168 288 389 707 678 953 1064 1054 1241 1096
588 471 408 243 109 85 44 19 0 2 11 0 0 0 0 0 0 0 0 0 55 38 0 5 0 0 0 0 0 31 149 0 0 0 39 40 65 46 21 231 560 707 703
0 1 10 15 0 2 0 13 19 16 7 0 0 0 0 0 0 0 0 0 55 0 0 0 0 0 0 0 0 0 0 0 0 0 0 0 0 0 0 0 0 230 343
0 0 0 0 0 0 0 0 0 0 1 0 0 0 0 0 0 0 0 0 0 0 0 0 0 0 0 0 0 0 0 0 0 0 0 0 0 0 0 0 62 218 225
0 0 0 0 0 0 0 0 0 0 0 0 0 0 0 0 0 0 0 0 0 0 0 0 0 0 0 0 0 0 0 0 0 0 0 0 0 0 0 0 0 21 45
0 0 0 0 0 0 0 0 0 0 0 0 0 0 0 0 0 0 0 0 0 0 0 0 0 0 0 0 0 0 0 0 0 0 0 0 0 0 0 0 0 0 0
0 0 0 0 0 0 0 0 0 0 0 0 0 0 0 0 0 0 0 0 0 0 0 0 0 0 0 0 0 0 0 0 0 0 0 0 0 0 0 0 0 0 0
0 0 0 0 0 0 0 0 0 0 0 0 0 0 0 0 0 0 0 0 0 0 0 0 0 0 0 0 0 0 0 0 0 0 0 0 0 0 0 0 0 0 0
0 0 0 0 0 0 0 0 0 0 0 0 0 0 0 0 0 0 0 0 0 0 0 0 0 0 0 0 0 0 0 0 0 0 0 0 0 0 0 0 0 0 0
0 0 0 0 0 0 0 0 0 0 0 0 0 0 0 0 0 0 0 0 0 0 0 0 0 0 0 0 0 0 0 0 0 0 0 0 0 0 0 0 0 0 0
0 0 0 0 0 0 0 0 0 0 0 0 0 0 0 0 0 0 0 0 0 0 0 0 0 0 0 0 0 0 0 0 0 0 0 0 0 0 0 0 0 0 0
0 0 0 0 0 0 0 0 0 0 0 0 0 0 0 0 0 0 0 0 0 0 0 0 0 0 0 0 0 0 0 0 0 0 0 0 0 0 0 0 0 0 0
0 0 0 0 0 0 0 0 0 0 0 0 0 0 0 0 0 0 0 0 0 0 0 0 0 0 0 0 0 0 0 0 0 0 0 0 0 0 0 0 0 0 0
0 0 0 0 0 0 0 0 0 0 0 0 0 0 0 0 0 0 0 0 0 0 0 0 0 0 0 0 0 0 0 0 0 0 0 0 0 0 0 0 0 0 0
0 0 0 0 0 0 0 0 0 0 0 0 0 0 0 0 0 0 0 0 0 0 0 0 0 0 0 0 0 0 0 0 0 0 0 0 0 0 0 0 0 0 0
0 0 0 0 0 0 0 0 0 0 0 0 0 0 0 0 0 0 0 0 0 0 0 0 0 0 0 0 0 0 0 0 0 0 0 0 0 0 0 0 0 0 0
0 1 0 0 0 0 0 0 0 0 0 0 0 0 0 0 0 0 0 0 0 0 0 0 0 0 0 0 0 0 0 0 0 0 0 0 0 0 0 0 0 0 0
32 6 0 0 0 0 0 0 0 0 0 0 0 0 0 0 0 0 0 0 0 0 0 0 0 0 0 0 0 0 0 0 0 0 0 0 0 0 0 0 0 0 1
55 47 0 0 0 0 0 0 0 0 0 0 0 0 0 0 0 0 0 0 0 0 0 0 0 0 0 0 0 0 0 0 0 0 0 0 0 0 0 0 0 0 1
88 55 0 0 0 0 0 0 0 0 0 0 0 0 0 0 0 0 0 0 0 0 0 0 0 0 0 0 0 0 0 0 0 0 0 0 0 0 0 0 1 1 0

GFSGL_con_sbcape_108.txt.gz
CAPE
486 674 433 633 523 320 147 104 97 10 0 17 0 0 70 513 613 473 502 559 463 358 396 414 504 317 557 724 461 464 306 233 301 326 32 17 13 87 143 41 44 223 1031
498 627 755 522 411 423 277 196 0 0 0 0 0 48 566 735 600 576 645 1051 640 537 403 432 538 581 377 361 349 354 361 282 303 101 130 305 204 136 305 393 643 1212 870
402 475 365 178 53 302 98 40 85 212 214 38 280 526 623 509 461 403 513 498 557 611 577 380 521 446 562 409 149 96 367 287 268 376 420 196 210 417 768 795 876 907 898
216 363 203 54 20 243 130 23 25 163 98 175 283 475 41 0 0 0 9 126 403 475 508 681 467 541 365 312 373 243 320 123 91 69 49 14 258 399 530 692 1013 696 774
124 97 161 120 94 80 36 37 20 27 62 69 1 0 0 0 0 0 0 0 199 242 438 409 44 9 2 6 97 203 303 118 96 37 60 54 58 156 401 649 808 760 651
89 46 87 65 30 20 61 66 6 33 13 47 0 0 0 0 0 0 0 0 0 343 457 294 0 0 0 0 0 0 15 122 66 109 158 225 176 226 396 609 711 666 682
127 229 284 172 154 168 196 146 51 21 38 0 0 0 0 0 0 0 0 0 1 186 242 183 0 0 0 0 0 140 11 0 0 18 127 109 173 241 269 204 139 307 375
222 279 286 229 195 104 34 4 0 11 3 0 0 0 0 0 0 0 0 1 3 0 0 0 0 0 0 0 0 0 0 0 0 0 0 0 0 0 0 0 0 46 183
166 266 213 122 67 4 1 0 0 0 0 0 0 0 0 0 0 0 0 0 0 0 0 0 0 0 0 0 0 0 0 0 0 0 0 0 0 0 0 0 0 69 61
0 0 0 0 0 0 0 0 0 0 0 0 0 0 0 0 0 0 0 0 0 0 0 0 0 0 0 0 0 0 0 0 0 0 0 0 0 0 0 0 0 0 0
0 0 0 0 0 0 0 0 0 0 0 0 0 0 0 0 0 0 0 0 0 0 0 0 0 0 0 0 0 0 0 0 0 0 0 0 0 0 0 0 0 0 0
0 0 0 0 0 0 0 0 0 0 0 0 0 0 0 0 0 0 0 0 0 0 0 0 0 0 0 0 0 0 0 0 0 0 0 0 0 0 0 0 0 0 0
0 0 0 0 0 0 0 0 0 0 0 0 0 0 0 0 0 0 0 0 0 0 0 0 0 0 0 0 0 0 0 0 0 0 0 0 0 0 0 0 0 0 0
0 0 0 0 0 0 0 0 0 0 0 0 0 0 0 0 0 0 0 0 0 0 0 0 0 0 0 0 0 0 0 0 0 0 0 0 0 0 0 0 0 0 0
0 0 0 0 0 0 0 0 0 0 0 0 0 0 0 0 0 0 0 0 0 0 0 0 0 0 0 0 0 0 0 0 0 0 0 0 0 0 0 0 0 0 0
0 0 0 0 0 0 0 0 0 0 0 0 0 0 0 0 0 0 0 0 0 0 0 0 0 0 0 0 0 0 0 0 0 0 0 0 0 0 0 0 0 0 0
0 0 0 0 0 0 0 0 0 0 0 0 0 0 0 0 0 0 0 0 0 0 0 0 0 0 0 0 0 0 0 0 0 0 0 0 0 0 0 0 0 0 0
0 0 0 0 0 0 0 0 0 0 0 0 0 0 0 0 0 0 0 0 0 0 0 0 0 0 0 0 0 0 0 0 0 0 0 0 0 0 0 0 0 0 0
0 0 0 0 0 0 0 0 0 0 0 0 0 0 0 0 0 0 0 0 0 0 0 0 0 0 0 0 0 0 0 0 0 0 0 0 0 0 0 0 0 0 0
0 0 0 0 0 0 0 0 0 0 0 0 0 0 0 0 0 0 0 0 0 0 0 0 0 0 0 0 0 0 0 0 0 0 0 0 0 0 0 0 0 0 1
0 0 0 0 0 0 0 0 0 0 0 0 0 0 0 0 0 0 0 0 0 0 0 0 0 0 0 0 0 0 0 0 0 0 0 0 0 0 0 0 1 1 2
0 0 0 0 0 0 0 0 0 0 0 0 0 0 0 0 0 0 0 0 0 0 0 0 0 0 0 0 0 0 0 0 0 0 0 0 0 0 0 0 0 0 0
0 0 0 0 0 0 0 0 0 0 0 0 0 0 0 0 0 0 0 0 0 0 0 0 0 0 0 0 0 0 0 0 0 0 0 0 0 0 0 0 0 0 0
0 0 0 0 0 0 0 0 0 0 0 0 0 0 0 0 0 0 0 0 0 0 0 0 0 0 0 0 0 0 0 0 0 0 0 0 0 0 0 0 0 0 0
0 1 0 0 0 0 0 0 0 0 0 0 0 0 0 0 0 0 0 0 0 0 0 0 0 0 0 0 0 0 0 0 0 0 0 0 0 0 0 0 0 0 0
0 0 0 0 0 0 0 0 0 0 0 0 0 0 0 0 0 0 0 0 0 0 0 0 0 0 0 0 0 0 0 0 0 0 0 0 0 0 0 0 0 0 0

GFSGL_con_sbcape_111.txt.gz
CAPE
330 217 214 230 189 196 228 198 137 78 14 11 39 0 0 29 234 427 335 349 276 96 218 325 246 177 178 316 188 228 122 45 125 41 8 0 0 99 165 249 456 722 743
310 397 304 301 298 248 177 101 43 0 0 0 0 0 0 356 385 428 348 667 436 350 182 129 257 472 263 22 161 212 153 111 134 39 3 142 153 123 212 303 750 880 619
222 207 208 248 256 141 112 134 81 12 0 0 0 65 354 352 309 263 386 503 525 522 436 356 325 346 328 294 48 0 15 185 56 91 141 54 51 88 368 360 680 621 663
246 402 326 218 210 125 144 24 22 67 38 131 144 252 162 0 0 0 27 151 217 383 457 477 454 413 267 189 200 162 101 141 0 0 0 0 18 53 127 272 458 375 607
284 112 177 252 267 167 134 37 29 16 19 42 59 1 0 0 0 0 0 0 19 57 410 359 59 34 8 11 103 130 105 50 66 16 0 0 15 46 145 251 351 363 248
127 184 166 162 135 92 27 20 20 0 1 57 0 0 0 0 0 0 0 0 0 195 309 37 0 0 0 0 0 0 1 26 15 22 12 69 38 99 195 261 268 113 124
59 44 60 25 60 30 39 58 30 14 23 1 0 0 0 0 0 0 0 0 1 93 201 115 0 0 0 0 0 0 0 0 0 8 29 10 2 65 0 0 0 0 17
64 47 105 84 142 223 179 88 14 17 0 0 0 0 0 0 0 0 0 0 0 1 0 0 0 0 0 0 0 0 0 0 0 0 0 0 0 0 0 0 0 0 0
115 166 128 157 93 33 1 0 0 1 0 0 0 0 0 0 0 0 0 0 0 0 0 0 0 0 0 0 0 0 0 0 0 0 0 0 0 0 0 0 0 0 0
37 77 57 52 4 0 0 0 0 0 0 0 0 0 0 0 0 0 0 0 0 0 0 0 0 0 0 0 0 0 0 0 0 0 0 0 0 0 0 0 0 0 0
10 5 3 1 0 0 0 0 1 0 0 0 0 0 0 0 0 0 0 0 0 0 0 0 0 0 0 0 0 0 0 0 0 0 0 0 0 0 0 0 0 0 0
12 10 4 1 0 0 0 0 0 0 0 0 0 0 0 0 0 0 0 0 0 0 0 0 0 0 0 0 0 0 0 0 0 0 0 0 0 0 0 0 0 0 0
0 0 0 0 0 0 0 0 0 0 0 0 0 0 0 0 0 0 0 0 0 0 0 0 0 0 0 0 0 0 0 0 0 0 0 0 0 0 0 0 0 0 0
0 0 0 0 0 0 0 0 0 0 0 0 0 0 0 0 0 0 0 0 0 0 0 0 0 0 0 0 0 0 0 0 0 0 0 0 0 0 0 0 0 0 0
0 0 0 0 0 0 0 0 0 0 0 0 0 0 0 0 0 0 0 0 0 0 0 0 0 0 0 0 0 0 0 0 0 0 0 0 0 0 0 0 0 0 0
0 0 0 0 0 0 0 0 0 0 0 0 0 0 0 0 0 0 0 0 0 0 0 0 0 0 0 0 0 0 0 0 0 0 0 0 0 0 0 0 0 0 0
0 0 0 0 0 0 0 0 0 0 0 0 0 0 0 0 0 0 0 0 0 0 0 0 0 0 0 0 0 0 0 0 0 0 0 0 0 0 0 0 0 0 0
0 0 0 0 0 0 0 0 0 0 0 0 0 0 0 0 0 0 0 0 0 0 0 0 0 0 0 0 0 0 0 0 0 0 0 0 0 0 0 0 0 0 0
0 0 0 0 0 0 0 0 0 0 0 0 0 0 0 0 0 0 0 0 0 0 0 0 0 0 0 0 0 0 0 0 0 0 0 0 0 0 0 0 0 0 0
0 0 0 0 0 0 0 0 0 0 0 0 0 0 0 0 0 0 0 0 0 0 0 0 0 0 0 0 0 0 0 0 0 0 0 0 0 0 0 0 0 0 0
0 0 0 0 0 0 0 0 0 0 0 0 0 0 0 0 0 0 0 0 0 0 0 0 0 0 0 0 0 0 0 0 0 0 0 0 0 0 0 0 0 0 0
0 0 0 0 0 0 0 0 0 0 0 0 0 0 0 0 0 0 0 0 0 0 0 0 0 0 0 0 0 0 0 0 0 0 0 0 0 0 0 0 0 0 0
0 0 0 0 0 0 0 0 0 0 0 0 0 0 0 0 0 0 0 0 0 0 0 0 0 0 0 0 0 0 0 0 0 0 0 0 0 0 0 0 0 0 1
0 0 0 0 0 0 0 0 0 0 0 0 0 0 0 0 0 0 0 0 0 0 0 0 0 0 0 0 0 0 0 0 0 0 0 0 0 0 0 0 0 0 0
0 0 0 0 0 0 0 0 0 0 0 0 0 0 0 0 0 0 0 0 0 0 0 0 0 0 0 0 0 0 0 0 0 0 0 0 0 0 0 0 0 0 0
0 0 0 0 0 0 0 0 0 0 0 0 0 0 0 0 0 0 0 0 0 0 0 0 0 0 0 0 0 0 0 0 0 0 0 0 0 0 0 0 0 0 0

GFSGL_con_sbcape_114.txt.gz
CAPE
145 79 88 55 69 86 155 108 71 116 147 117 49 91 1 10 186 412 468 544 418 309 324 291 592 345 350 479 444 336 250 144 424 433 199 222 405 678 895 784 1069 1293 1133
210 181 146 129 196 172 131 103 3 3 1 2 53 38 0 26 476 533 453 675 634 553 388 311 365 440 537 323 307 615 424 205 392 389 67 520 490 508 543 886 979 956 1186
241 266 205 203 212 219 146 76 0 0 0 0 0 0 39 495 565 471 435 355 732 706 754 521 638 518 626 545 355 310 132 274 226 270 388 208 185 250 659 646 899 1043 784
240 200 219 195 211 99 78 75 55 0 0 35 55 181 271 194 120 96 71 195 211 470 614 658 663 844 768 560 360 363 265 344 104 164 88 26 49 188 269 581 961 749 546
204 270 185 146 186 165 113 70 93 79 11 4 34 42 1 0 0 0 0 0 6 220 309 625 332 58 22 64 336 264 246 408 267 198 69 112 209 255 460 487 650 314 233
187 79 91 148 109 155 137 90 79 69 25 37 0 0 0 0 0 0 0 0 0 47 308 372 1 0 0 0 0 0 1 219 244 178 141 320 299 284 219 0 113 74 128
71 77 69 104 101 123 85 48 34 17 12 9 0 0 0 0 0 0 0 0 0 25 161 57 0 0 0 0 0 0 0 0 0 121 173 79 0 13 0 0 0 33 115
15 41 42 44 33 26 41 67 41 20 2 0 0 0 0 0 0 0 0 0 1 0 0 0 0 0 0 0 2 8 0 0 0 0 0 0 0 0 0 0 0 2 92
11 18 40 28 53 69 83 41 3 1 0 0 0 0 0 0 0 0 0 0 0 0 0 0 0 0 0 0 0 0 0 0 0 0 0 0 0 0 0 0 0 0 13
21 22 41 48 75 10 1 2 5 0 0 0 0 0 0 0 0 0 0 0 0 0 0 0 0 0 0 0 0 0 0 0 0 0 0 0 0 0 0 0 0 0 1
2 1 1 1 1 1 2 3 4 0 0 0 0 0 0 0 0 0 0 0 0 0 0 0 0 0 0 0 0 0 0 0 0 0 0 0 0 0 0 0 0 0 0
4 1 0 0 4 3 0 0 2 3 0 0 0 0 0 0 0 0 0 0 0 0 0 0 0 0 0 0 0 0 0 0 0 0 0 0 0 0 0 0 0 0 0
0 2 4 2 4 1 0 0 0 0 0 0 0 0 0 0 0 0 0 0 0 0 0 0 0 0 0 0 0 0 0 0 0 0 0 0 0 0 0 0 0 0 0
0 0 0 1 0 0 0 0 0 0 0 0 0 0 0 0 0 0 0 0 0 0 0 0 0 0 0 0 0 0 0 0 0 0 0 0 0 0 0 0 0 0 0
0 0 0 0 0 0 0 0 0 0 0 0 0 0 0 0 0 0 0 0 0 0 0 0 0 0 0 0 0 0 0 0 0 0 0 0 0 0 0 0 0 0 0
0 0 0 0 0 0 0 0 0 0 0 0 0 0 0 0 0 0 0 0 0 0 0 0 0 0 0 0 0 0 0 0 0 0 0 0 0 0 0 0 0 0 0
0 0 0 0 0 0 0 0 0 0 0 0 0 0 0 0 0 0 0 0 0 0 0 0 0 0 0 0 0 0 0 0 0 0 0 0 0 0 0 0 0 0 0
0 0 0 0 0 0 0 0 0 0 0 0 0 0 0 0 0 0 0 0 0 0 0 0 0 0 0 0 0 0 0 0 0 0 0 0 0 0 0 0 0 0 0
0 0 0 0 0 0 0 0 0 0 0 0 0 0 0 0 0 0 0 0 0 0 0 0 0 0 0 0 0 0 0 0 0 0 0 0 0 0 0 0 0 0 0
0 0 0 0 0 0 0 0 0 0 0 0 0 0 0 0 0 0 0 0 0 0 0 0 0 0 0 0 0 0 0 0 0 0 0 0 0 0 0 0 0 0 0
0 0 0 0 0 0 0 0 0 0 0 0 0 0 0 0 0 0 0 0 0 0 0 0 0 0 0 0 0 0 0 0 0 0 0 0 0 0 0 0 0 0 1
0 0 0 0 0 0 0 0 0 0 0 0 0 0 0 0 0 0 0 0 0 0 0 0 0 0 0 0 0 0 0 0 0 0 0 0 0 0 0 0 0 0 0
0 0 0 0 0 0 0 0 0 0 0 0 0 0 0 0 0 0 0 0 0 0 0 0 0 0 0 0 0 0 0 0 0 0 0 0 0 0 0 0 0 0 0
0 0 0 0 0 0 0 0 0 0 0 0 0 0 0 0 0 0 0 0 0 0 0 0 0 0 0 0 0 0 0 0 0 0 0 0 0 0 0 0 0 0 0
0 0 0 0 0 0 0 0 0 0 0 0 0 0 0 0 0 0 0 0 0 0 0 0 0 0 0 0 0 0 0 0 0 0 0 0 0 0 0 0 0 0 0
0 0 0 0 0 0 0 0 0 0 0 0 0 0 0 0 0 0 0 0 0 0 0 0 0 0 0 0 0 0 0 0 0 0 0 0 0 0 0 0 0 0 0

GFSGL_con_sbcape_117.txt.gz
CAPE
773 905 968 928 978 1240 1283 1446 1496 1173 1067 938 1007 1025 1185 1255 1259 1515 1761 1751 1886 1616 1472 1330 1542 1830 1255 1164 1386 1386 1307 1279 902 568 1051 882 1544 1770 1825 1471 1052 1318 1043
752 1038 1037 1054 1110 1162 1354 1327 1137 1183 967 990 877 765 752 974 880 1258 1420 1255 1588 1631 1517 1472 1402 1051 1650 2145 1364 1458 1351 1358 1076 1212 1159 995 1466 1340 1288 1491 1157 834 1264
816 1000 1066 1010 1140 1270 1337 1237 1036 1049 891 647 416 336 861 727 705 1285 1803 1755 1457 1520 1429 1506 1430 1364 1799 1113 2312 2115 1462 1141 1494 1252 1215 1080 967 666 865 1206 1602 1490 430
886 989 1093 1202 1285 1341 1313 788 591 664 751 875 865 869 701 860 1525 1677 1310 1320 1336 1304 1329 1540 1705 1637 1679 1591 1586 1826 1365 1875 1909 1698 1473 1007 779 1017 1068 1215 945 908 532
965 1074 1254 1566 1197 1236 761 731 410 420 453 495 546 701 992 925 677 525 698 788 856 938 1097 1347 1354 166 0 62 452 1458 1430 1713 2000 1806 1959 1271 1750 789 1382 959 544 525 944
1057 1217 1294 974 595 781 595 615 483 306 191 459 275 0 4 20 0 0 0 106 183 320 859 1049 247 0 0 0 1 0 5 1139 1515 1613 1511 1198 1208 836 584 107 214 359 457
613 659 517 244 430 208 189 305 360 141 69 187 62 0 0 0 0 0 0 0 3 229 658 1262 99 0 0 0 0 0 0 0 0 885 1037 688 152 196 0 98 438 521 494
64 93 95 56 26 93 112 134 133 99 76 14 0 0 0 0 0 0 0 0 48 3 1 77 6 0 0 0 0 0 0 0 0 0 0 0 0 0 0 47 233 274 0
97 178 80 68 51 18 5 51 82 126 17 0 0 0 0 0 0 0 0 6 0 0 0 0 0 0 0 0 0 0 0 0 0 0 0 0 0 0 0 2 0 4 158
63 47 53 37 102 127 92 24 2 2 2 2 0 0 0 0 0 0 0 3 0 0 0 0 0 0 0 0 0 0 0 0 0 0 0 0 0 0 0 0 0 0 11
1 2 3 1 3 9 3 4 3 2 6 10 0 0 0 0 0 0 0 0 0 0 0 0 0 0 0 0 0 0 0 0 0 0 0 0 0 0 0 0 0 0 0
3 2 3 1 1 0 1 2 3 3 6 3 0 0 0 0 0 0 0 0 0 0 0 0 0 0 0 0 0 0 0 0 0 0 0 0 0 0 0 0 0 0 0
6 6 4 7 2 1 1 2 4 8 3 0 0 0 0 0 0 0 0 0 0 0 0 0 0 0 0 0 0 0 0 0 0 0 0 0 0 0 0 0 0 0 0
0 1 0 0 0 1 0 5 4 7 6 0 0 0 0 0 0 0 0 0 0 0 0 0 0 0 0 0 0 0 0 0 0 0 0 0 0 0 0 0 0 0 0
0 0 0 0 0 0 1 3 0 0 0 0 0 0 0 0 0 0 0 0 0 0 0 0 0 0 0 0 0 0 0 0 0 0 0 0 0 0 0 0 0 0 0
0 0 0 0 0 0 0 0 0 0 0 0 0 0 0 0 0 0 0 0 0 0 0 0 0 0 0 0 0 0 0 0 0 0 0 0 0 0 0 0 0 0 0
0 0 0 0 0 0 0 0 0 0 0 0 0 0 0 0 0 0 0 0 0 0 0 0 0 0 0 0 0 0 0 0 0 0 0 0 0 0 0 0 0 0 0
0 0 0 0 0 0 0 0 0 0 0 0 0 0 0 0 0 0 0 0 0 0 0 0 0 0 0 0 0 0 0 0 0 0 0 0 0 0 0 0 0 0 0
0 0 0 0 0 0 0 0 0 0 0 0 0 0 0 0 0 0 0 0 0 0 0 0 0 0 0 0 0 0 0 0 0 0 0 0 0 0 0 0 0 0 0
0 0 0 0 0 0 0 0 0 0 0 0 0 0 0 0 0 0 0 0 0 0 0 0 0 0 0 0 0 0 0 0 0 0 0 0 0 0 0 0 0 0 0
0 0 0 0 0 0 0 0 0 0 0 0 0 0 0 0 0 0 0 0 0 0 0 0 0 0 0 0 0 0 0 0 0 0 0 0 0 0 0 0 0 0 0
0 0 0 0 0 0 0 1 0 0 0 0 0 0 0 0 0 0 0 0 0 0 0 0 0 0 0 0 0 0 0 0 0 0 0 0 0 0 0 0 0 0 0
0 0 0 0 0 0 1 1 1 0 0 1 0 0 0 0 0 0 0 0 0 0 0 0 0 0 0 0 0 0 0 0 0 0 0 0 0 0 0 0 1 1 2
0 0 0 0 0 0 4 13 18 0 1 4 4 2 4 12 0 0 0 0 1 1 1 0 0 0 0 0 0 0 0 0 0 0 0 0 0 0 1 2 3 1 0
0 0 0 0 2 5 4 6 11 14 12 10 11 12 22 29 69 0 0 0 1 7 2 6 0 0 0 0 0 0 0 0 0 0 0 0 0 0 0 0 2 3 3
0 0 0 0 0 2 3 4 10 16 19 21 24 33 44 56 68 39 0 0 0 0 0 1 16 8 0 0 0 0 0 0 0 0 0 0 0 0 1 3 4 6 9

GFSGL_con_sbcape_120.txt.gz
CAPE
868 1019 1088 1099 1172 1436 1378 1653 1855 2179 1889 1869 2035 1917 1824 1804 1859 2179 1977 1486 1765 1650 1602 1488 1625 1785 1316 690 630 736 736 802 775 404 452 738 1440 1289 1373 1401 1089 1248 1033
917 1154 1331 1325 1329 1117 1435 1449 1817 2054 1982 2032 1951 1811 1568 1687 1731 1910 1908 1280 1508 1502 1339 1391 1294 985 1482 1732 1032 1257 1131 1386 994 1005 1099 832 1235 1376 1302 1561 1219 683 1021
1280 1303 1410 1380 1433 1196 1452 1493 1760 1781 1786 1463 1490 1557 1508 1492 1527 1582 1699 1475 1481 1412 1251 1355 1310 1358 1515 1530 1875 1287 998 1442 1675 1443 1099 1229 1127 1047 1029 1382 1754 1533 920
1347 1451 1513 1445 1311 1279 1551 1690 1702 1707 1689 1595 1615 1547 1388 1175 1297 1537 1434 1395 1358 1276 1460 1348 1318 1374 1561 1683 1617 1686 1012 2118 2200 1344 1567 1484 1297 1022 1188 1016 712 854 703
1343 1396 1549 1637 1616 1690 1582 1716 1619 1444 1238 1169 1171 1150 1402 1433 1074 1430 1486 1373 1335 1389 1459 1546 1119 592 0 453 2001 1603 1327 1283 731 674 878 1151 2075 751 1654 1215 653 659 2375
924 869 1407 1850 1919 1847 1428 1690 1449 1036 943 936 906 977 996 551 0 0 0 360 963 1122 1159 1126 1364 5 1 0 0 0 15 1384 1322 2037 1710 1169 1623 2188 1782 494 346 536 1075
579 645 1313 1655 1392 1815 1598 1449 1010 755 1037 838 798 702 186 26 0 0 0 0 199 459 945 1191 1285 198 45 281 0 0 0 0 0 27 1590 1683 1289 926 219 499 1020 1170 1068
784 421 886 517 799 1114 271 252 215 288 287 389 351 206 91 0 0 0 0 0 157 356 223 797 1062 137 0 0 9 0 0 0 0 1 101 0 0 0 56 229 608 746 139
190 237 289 243 380 169 92 99 142 165 191 15 1 0 0 0 0 0 0 83 30 0 0 0 0 0 0 0 5 143 0 0 0 0 0 0 0 0 0 1 83 34 1309
205 299 363 384 284 89 67 22 56 28 2 3 2 0 0 0 0 0 0 175 170 120 7 0 0 0 0 0 0 4 0 0 0 0 0 0 0 0 0 0 0 0 19
185 30 3 1 1 71 84 12 2 2 2 3 4 2 0 0 0 0 0 50 67 93 48 8 0 0 0 0 0 0 0 0 0 0 0 0 0 0 0 0 0 0 0
10 7 6 3 4 2 2 1 4 4 2 3 2 2 1 0 0 0 0 0 0 13 31 7 0 0 0 0 0 0 0 0 0 0 0 0 0 0 0 0 0 0 0
3 3 5 6 4 5 9 5 2 4 4 4 2 3 1 0 0 0 0 0 0 0 0 0 0 0 0 0 0 0 0 0 0 0 0 0 0 0 0 0 0 0 0
1 1 0 1 2 2 2 5 4 9 8 13 9 7 4 0 0 0 0 0 0 0 0 0 0 0 0 0 0 0 0 0 0 0 0 0 0 0 0 0 0 0 0
0 0 0 0 0 0 0 1 1 1 1 8 7 12 3 0 0 0 0 0 0 0 0 0 0 0 0 0 0 0 0 0 0 0 0 0 0 0 0 0 0 0 0
0 0 0 0 0 0 0 0 0 0 0 0 0 0 0 0 0 0 0 0 0 0 0 0 0 0 0 0 0 0 0 0 0 0 0 0 0 0 0 0 0 0 0
0 0 0 0 0 0 0 0 0 0 0 0 0 0 0 0 0 0 0 0 0 0 0 0 0 0 0 0 0 0 0 0 0 0 0 0 0 0 0 0 0 0 0
0 0 0 0 0 0 0 0 0 0 0 0 0 0 0 0 0 0 0 0 0 0 0 0 0 0 0 0 0 0 0 0 0 0 0 0 0 0 0 0 0 0 0
0 0 0 0 0 0 0 0 0 0 0 0 0 0 0 0 0 0 0 0 0 0 0 0 0 0 0 0 0 0 0 0 0 0 0 0 0 0 0 0 0 0 0
12 0 0 2 1 0 0 0 0 0 0 0 0 0 0 0 0 0 0 0 0 0 0 0 0 0 0 0 0 0 0 0 0 0 0 0 0 0 0 0 0 0 0
0 0 0 0 0 1 1 3 6 5 2 6 8 6 0 0 0 0 0 0 0 0 0 0 0 0 0 2 0 0 0 0 0 0 0 0 0 0 0 0 0 0 0
0 0 0 0 0 0 0 0 0 3 6 8 4 3 0 0 2 2 0 0 0 0 0 1 4 7 10 8 2 0 0 0 0 0 0 0 0 0 0 0 0 0 0
0 0 0 0 0 0 0 0 1 3 2 3 4 4 4 7 11 22 34 28 12 18 31 33 62 57 27 14 1 0 0 0 0 0 0 0 0 0 0 0 0 0 1
0 0 0 0 0 0 0 0 4 0 5 9 12 16 18 18 22 31 46 62 55 11 34 88 87 39 35 3 1 0 0 0 0 0 0 0 0 0 0 1 3 4 4
0 0 0 0 0 0 0 0 1 3 5 4 7 11 14 25 34 44 58 76 89 121 74 69 59 29 53 17 8 0 0 0 0 0 0 0 0 0 0 1 4 7 10
0 0 0 0 0 1 2 1 0 0 1 3 7 18 30 45 56 95 82 31 98 203 119 158 137 109 12 20 13 0 0 0 0 0 0 0 0 0 1 4 7 9 15